<?xml version="1.0" encoding="UTF-8" standalone="no" ?>
<gpx xmlns="http://www.topografix.com/GPX/1/1" xmlns:xsi="http://www.w3.org/2001/XMLSchema-instance" xsi:schemaLocation="http://www.topografix.com/GPX/1/1 http://www.topografix.com/GPX/1/1/gpx.xsd" version="1.1" creator="VisuGPX - https://www.visugpx.com">
  <metadata>
    <name>Revel-golf-revel</name>
    <desc><![CDATA[File with points/tracks from Locus Map/3.46.2]]></desc>
  </metadata>
  <trk>
    <name><![CDATA[2020-06-16 09:48:02]]></name>
    <desc><![CDATA[Revgolf]]></desc>
    <extensions>
      <line xmlns="http://www.topografix.com/GPX/gpx_style/0/2">
        <color>0000FF</color>
        <opacity>0.59</opacity>
        <width>6.0</width>
      </line>
    </extensions>
    <trkseg>
      <trkpt lat="45.18378" lon="5.87388">
        <ele>692.47</ele>
        <time>2020-06-16T07:48:04.000Z</time>
      </trkpt>
      <trkpt lat="45.18387" lon="5.87386">
        <ele>691.87</ele>
        <time>2020-06-16T08:04:40.000Z</time>
      </trkpt>
      <trkpt lat="45.18393" lon="5.87374">
        <ele>690.66</ele>
        <time>2020-06-16T08:05:13.000Z</time>
      </trkpt>
      <trkpt lat="45.18394" lon="5.87354">
        <ele>687.32</ele>
        <time>2020-06-16T08:05:18.000Z</time>
      </trkpt>
      <trkpt lat="45.18393" lon="5.87323">
        <ele>684.54</ele>
        <time>2020-06-16T08:05:23.000Z</time>
      </trkpt>
      <trkpt lat="45.18387" lon="5.87296">
        <ele>680.3</ele>
        <time>2020-06-16T08:05:28.000Z</time>
      </trkpt>
      <trkpt lat="45.18392" lon="5.87263">
        <ele>676.95</ele>
        <time>2020-06-16T08:05:33.000Z</time>
      </trkpt>
      <trkpt lat="45.18409" lon="5.87232">
        <ele>678.33</ele>
        <time>2020-06-16T08:05:38.000Z</time>
      </trkpt>
      <trkpt lat="45.18425" lon="5.87205">
        <ele>677.91</ele>
        <time>2020-06-16T08:05:43.000Z</time>
      </trkpt>
      <trkpt lat="45.18439" lon="5.87183">
        <ele>678.68</ele>
        <time>2020-06-16T08:05:48.000Z</time>
      </trkpt>
      <trkpt lat="45.18449" lon="5.87178">
        <ele>677.78</ele>
        <time>2020-06-16T08:05:54.000Z</time>
      </trkpt>
      <trkpt lat="45.18458" lon="5.87184">
        <ele>673.8</ele>
        <time>2020-06-16T08:06:07.000Z</time>
      </trkpt>
      <trkpt lat="45.18472" lon="5.87187">
        <ele>675</ele>
        <time>2020-06-16T08:06:12.000Z</time>
      </trkpt>
      <trkpt lat="45.18484" lon="5.87193">
        <ele>675.97</ele>
        <time>2020-06-16T08:06:17.000Z</time>
      </trkpt>
      <trkpt lat="45.18496" lon="5.87203">
        <ele>676.8</ele>
        <time>2020-06-16T08:06:22.000Z</time>
      </trkpt>
      <trkpt lat="45.18507" lon="5.87217">
        <ele>677.31</ele>
        <time>2020-06-16T08:06:27.000Z</time>
      </trkpt>
      <trkpt lat="45.1852" lon="5.87231">
        <ele>679.32</ele>
        <time>2020-06-16T08:06:32.000Z</time>
      </trkpt>
      <trkpt lat="45.18527" lon="5.87241">
        <ele>681.91</ele>
        <time>2020-06-16T08:06:48.000Z</time>
      </trkpt>
      <trkpt lat="45.18541" lon="5.87257">
        <ele>682.03</ele>
        <time>2020-06-16T08:06:53.000Z</time>
      </trkpt>
      <trkpt lat="45.18552" lon="5.87271">
        <ele>683.64</ele>
        <time>2020-06-16T08:06:58.000Z</time>
      </trkpt>
      <trkpt lat="45.18564" lon="5.87286">
        <ele>683.32</ele>
        <time>2020-06-16T08:07:03.000Z</time>
      </trkpt>
      <trkpt lat="45.18577" lon="5.87301">
        <ele>685.01</ele>
        <time>2020-06-16T08:07:08.000Z</time>
      </trkpt>
      <trkpt lat="45.18589" lon="5.87315">
        <ele>686.88</ele>
        <time>2020-06-16T08:07:13.000Z</time>
      </trkpt>
      <trkpt lat="45.18598" lon="5.87333">
        <ele>686.98</ele>
        <time>2020-06-16T08:07:18.000Z</time>
      </trkpt>
      <trkpt lat="45.18587" lon="5.87346">
        <ele>688.95</ele>
        <time>2020-06-16T08:07:23.000Z</time>
      </trkpt>
      <trkpt lat="45.18567" lon="5.87338">
        <ele>687.22</ele>
        <time>2020-06-16T08:07:28.000Z</time>
      </trkpt>
      <trkpt lat="45.18549" lon="5.87332">
        <ele>686.97</ele>
        <time>2020-06-16T08:07:33.000Z</time>
      </trkpt>
      <trkpt lat="45.18533" lon="5.87336">
        <ele>689.44</ele>
        <time>2020-06-16T08:07:38.000Z</time>
      </trkpt>
      <trkpt lat="45.18518" lon="5.87347">
        <ele>692.11</ele>
        <time>2020-06-16T08:07:43.000Z</time>
      </trkpt>
      <trkpt lat="45.18506" lon="5.87358">
        <ele>692.95</ele>
        <time>2020-06-16T08:07:48.000Z</time>
      </trkpt>
      <trkpt lat="45.18493" lon="5.87372">
        <ele>695.34</ele>
        <time>2020-06-16T08:07:53.000Z</time>
      </trkpt>
      <trkpt lat="45.1848" lon="5.87385">
        <ele>694.42</ele>
        <time>2020-06-16T08:07:58.000Z</time>
      </trkpt>
      <trkpt lat="45.18463" lon="5.874">
        <ele>695.67</ele>
        <time>2020-06-16T08:08:03.000Z</time>
      </trkpt>
      <trkpt lat="45.18451" lon="5.87417">
        <ele>699.64</ele>
        <time>2020-06-16T08:08:08.000Z</time>
      </trkpt>
      <trkpt lat="45.1844" lon="5.87435">
        <ele>701.11</ele>
        <time>2020-06-16T08:08:13.000Z</time>
      </trkpt>
      <trkpt lat="45.18428" lon="5.87453">
        <ele>703.81</ele>
        <time>2020-06-16T08:08:18.000Z</time>
      </trkpt>
      <trkpt lat="45.18417" lon="5.87471">
        <ele>708.73</ele>
        <time>2020-06-16T08:08:23.000Z</time>
      </trkpt>
      <trkpt lat="45.18409" lon="5.87489">
        <ele>713.37</ele>
        <time>2020-06-16T08:08:28.000Z</time>
      </trkpt>
      <trkpt lat="45.18398" lon="5.87509">
        <ele>714.25</ele>
        <time>2020-06-16T08:08:33.000Z</time>
      </trkpt>
      <trkpt lat="45.18388" lon="5.87529">
        <ele>715.73</ele>
        <time>2020-06-16T08:08:38.000Z</time>
      </trkpt>
      <trkpt lat="45.18378" lon="5.87548">
        <ele>717.52</ele>
        <time>2020-06-16T08:08:43.000Z</time>
      </trkpt>
      <trkpt lat="45.18368" lon="5.87568">
        <ele>718.31</ele>
        <time>2020-06-16T08:08:48.000Z</time>
      </trkpt>
      <trkpt lat="45.18358" lon="5.87589">
        <ele>721.22</ele>
        <time>2020-06-16T08:08:53.000Z</time>
      </trkpt>
      <trkpt lat="45.18346" lon="5.87607">
        <ele>724.04</ele>
        <time>2020-06-16T08:08:58.000Z</time>
      </trkpt>
      <trkpt lat="45.18334" lon="5.87624">
        <ele>724.85</ele>
        <time>2020-06-16T08:09:03.000Z</time>
      </trkpt>
      <trkpt lat="45.18321" lon="5.87642">
        <ele>727.79</ele>
        <time>2020-06-16T08:09:08.000Z</time>
      </trkpt>
      <trkpt lat="45.18312" lon="5.87661">
        <ele>729</ele>
        <time>2020-06-16T08:09:13.000Z</time>
      </trkpt>
      <trkpt lat="45.18304" lon="5.87682">
        <ele>730.43</ele>
        <time>2020-06-16T08:09:18.000Z</time>
      </trkpt>
      <trkpt lat="45.18296" lon="5.87706">
        <ele>730.32</ele>
        <time>2020-06-16T08:09:23.000Z</time>
      </trkpt>
      <trkpt lat="45.18289" lon="5.87729">
        <ele>730</ele>
        <time>2020-06-16T08:09:28.000Z</time>
      </trkpt>
      <trkpt lat="45.18283" lon="5.87752">
        <ele>728.99</ele>
        <time>2020-06-16T08:09:33.000Z</time>
      </trkpt>
      <trkpt lat="45.18278" lon="5.87776">
        <ele>729.45</ele>
        <time>2020-06-16T08:09:38.000Z</time>
      </trkpt>
      <trkpt lat="45.18272" lon="5.878">
        <ele>728.29</ele>
        <time>2020-06-16T08:09:43.000Z</time>
      </trkpt>
      <trkpt lat="45.18267" lon="5.87823">
        <ele>732.96</ele>
        <time>2020-06-16T08:09:48.000Z</time>
      </trkpt>
      <trkpt lat="45.18262" lon="5.87847">
        <ele>736.7</ele>
        <time>2020-06-16T08:09:53.000Z</time>
      </trkpt>
      <trkpt lat="45.1826" lon="5.8787">
        <ele>737.38</ele>
        <time>2020-06-16T08:09:58.000Z</time>
      </trkpt>
      <trkpt lat="45.18256" lon="5.87894">
        <ele>741.79</ele>
        <time>2020-06-16T08:10:03.000Z</time>
      </trkpt>
      <trkpt lat="45.18256" lon="5.8792">
        <ele>743.61</ele>
        <time>2020-06-16T08:10:08.000Z</time>
      </trkpt>
      <trkpt lat="45.18258" lon="5.87946">
        <ele>744.49</ele>
        <time>2020-06-16T08:10:13.000Z</time>
      </trkpt>
      <trkpt lat="45.18257" lon="5.8797">
        <ele>748.3</ele>
        <time>2020-06-16T08:10:18.000Z</time>
      </trkpt>
      <trkpt lat="45.18249" lon="5.87988">
        <ele>749.81</ele>
        <time>2020-06-16T08:10:23.000Z</time>
      </trkpt>
      <trkpt lat="45.18237" lon="5.88007">
        <ele>751.01</ele>
        <time>2020-06-16T08:10:28.000Z</time>
      </trkpt>
      <trkpt lat="45.18235" lon="5.88021">
        <ele>752.83</ele>
        <time>2020-06-16T08:10:33.000Z</time>
      </trkpt>
      <trkpt lat="45.18229" lon="5.88034">
        <ele>750.38</ele>
        <time>2020-06-16T08:11:44.000Z</time>
      </trkpt>
      <trkpt lat="45.18221" lon="5.88048">
        <ele>748.74</ele>
        <time>2020-06-16T08:11:49.000Z</time>
      </trkpt>
      <trkpt lat="45.18213" lon="5.88064">
        <ele>747.1</ele>
        <time>2020-06-16T08:11:54.000Z</time>
      </trkpt>
      <trkpt lat="45.18203" lon="5.88082">
        <ele>750.7</ele>
        <time>2020-06-16T08:11:59.000Z</time>
      </trkpt>
      <trkpt lat="45.1819" lon="5.881">
        <ele>749.8</ele>
        <time>2020-06-16T08:12:04.000Z</time>
      </trkpt>
      <trkpt lat="45.18177" lon="5.88121">
        <ele>748.94</ele>
        <time>2020-06-16T08:12:09.000Z</time>
      </trkpt>
      <trkpt lat="45.1816" lon="5.88145">
        <ele>748.05</ele>
        <time>2020-06-16T08:12:14.000Z</time>
      </trkpt>
      <trkpt lat="45.18144" lon="5.88167">
        <ele>747.04</ele>
        <time>2020-06-16T08:12:19.000Z</time>
      </trkpt>
      <trkpt lat="45.18128" lon="5.88193">
        <ele>748.2</ele>
        <time>2020-06-16T08:12:24.000Z</time>
      </trkpt>
      <trkpt lat="45.18113" lon="5.88214">
        <ele>749.16</ele>
        <time>2020-06-16T08:12:29.000Z</time>
      </trkpt>
      <trkpt lat="45.181" lon="5.88233">
        <ele>748.25</ele>
        <time>2020-06-16T08:12:34.000Z</time>
      </trkpt>
      <trkpt lat="45.18091" lon="5.88252">
        <ele>753.18</ele>
        <time>2020-06-16T08:12:39.000Z</time>
      </trkpt>
      <trkpt lat="45.18081" lon="5.88275">
        <ele>753.22</ele>
        <time>2020-06-16T08:12:44.000Z</time>
      </trkpt>
      <trkpt lat="45.18075" lon="5.88296">
        <ele>753.02</ele>
        <time>2020-06-16T08:12:49.000Z</time>
      </trkpt>
      <trkpt lat="45.18069" lon="5.88316">
        <ele>752.59</ele>
        <time>2020-06-16T08:12:54.000Z</time>
      </trkpt>
      <trkpt lat="45.18061" lon="5.88338">
        <ele>753.29</ele>
        <time>2020-06-16T08:12:59.000Z</time>
      </trkpt>
      <trkpt lat="45.18052" lon="5.88358">
        <ele>753.23</ele>
        <time>2020-06-16T08:13:04.000Z</time>
      </trkpt>
      <trkpt lat="45.18043" lon="5.88384">
        <ele>753.4</ele>
        <time>2020-06-16T08:13:09.000Z</time>
      </trkpt>
      <trkpt lat="45.18032" lon="5.88406">
        <ele>755.13</ele>
        <time>2020-06-16T08:13:14.000Z</time>
      </trkpt>
      <trkpt lat="45.18017" lon="5.88421">
        <ele>755.16</ele>
        <time>2020-06-16T08:13:19.000Z</time>
      </trkpt>
      <trkpt lat="45.17999" lon="5.8843">
        <ele>757.08</ele>
        <time>2020-06-16T08:13:24.000Z</time>
      </trkpt>
      <trkpt lat="45.17979" lon="5.88445">
        <ele>756.47</ele>
        <time>2020-06-16T08:13:29.000Z</time>
      </trkpt>
      <trkpt lat="45.17959" lon="5.88455">
        <ele>754.67</ele>
        <time>2020-06-16T08:13:34.000Z</time>
      </trkpt>
      <trkpt lat="45.17937" lon="5.88468">
        <ele>757.76</ele>
        <time>2020-06-16T08:13:39.000Z</time>
      </trkpt>
      <trkpt lat="45.17916" lon="5.88481">
        <ele>760.52</ele>
        <time>2020-06-16T08:13:44.000Z</time>
      </trkpt>
      <trkpt lat="45.17897" lon="5.88495">
        <ele>760.82</ele>
        <time>2020-06-16T08:13:49.000Z</time>
      </trkpt>
      <trkpt lat="45.17878" lon="5.88508">
        <ele>764.47</ele>
        <time>2020-06-16T08:13:54.000Z</time>
      </trkpt>
      <trkpt lat="45.17856" lon="5.88518">
        <ele>766.31</ele>
        <time>2020-06-16T08:13:59.000Z</time>
      </trkpt>
      <trkpt lat="45.17836" lon="5.88524">
        <ele>762.62</ele>
        <time>2020-06-16T08:14:04.000Z</time>
      </trkpt>
      <trkpt lat="45.17815" lon="5.88528">
        <ele>763.82</ele>
        <time>2020-06-16T08:14:09.000Z</time>
      </trkpt>
      <trkpt lat="45.17794" lon="5.8853">
        <ele>765.6</ele>
        <time>2020-06-16T08:14:14.000Z</time>
      </trkpt>
      <trkpt lat="45.17771" lon="5.88531">
        <ele>762.4</ele>
        <time>2020-06-16T08:14:19.000Z</time>
      </trkpt>
      <trkpt lat="45.17749" lon="5.88527">
        <ele>761.58</ele>
        <time>2020-06-16T08:14:24.000Z</time>
      </trkpt>
      <trkpt lat="45.17728" lon="5.88524">
        <ele>763.46</ele>
        <time>2020-06-16T08:14:29.000Z</time>
      </trkpt>
      <trkpt lat="45.17708" lon="5.88516">
        <ele>766.42</ele>
        <time>2020-06-16T08:14:34.000Z</time>
      </trkpt>
      <trkpt lat="45.17691" lon="5.88509">
        <ele>762.16</ele>
        <time>2020-06-16T08:14:39.000Z</time>
      </trkpt>
      <trkpt lat="45.17674" lon="5.88499">
        <ele>764.57</ele>
        <time>2020-06-16T08:14:44.000Z</time>
      </trkpt>
      <trkpt lat="45.17657" lon="5.8849">
        <ele>767.43</ele>
        <time>2020-06-16T08:14:49.000Z</time>
      </trkpt>
      <trkpt lat="45.1764" lon="5.88485">
        <ele>768.86</ele>
        <time>2020-06-16T08:14:54.000Z</time>
      </trkpt>
      <trkpt lat="45.17622" lon="5.88481">
        <ele>773.69</ele>
        <time>2020-06-16T08:14:59.000Z</time>
      </trkpt>
      <trkpt lat="45.17603" lon="5.88482">
        <ele>775.01</ele>
        <time>2020-06-16T08:15:04.000Z</time>
      </trkpt>
      <trkpt lat="45.17584" lon="5.8849">
        <ele>771.86</ele>
        <time>2020-06-16T08:15:09.000Z</time>
      </trkpt>
      <trkpt lat="45.17569" lon="5.88504">
        <ele>771.27</ele>
        <time>2020-06-16T08:15:14.000Z</time>
      </trkpt>
      <trkpt lat="45.17555" lon="5.88522">
        <ele>773.69</ele>
        <time>2020-06-16T08:15:19.000Z</time>
      </trkpt>
      <trkpt lat="45.17543" lon="5.88541">
        <ele>775.1</ele>
        <time>2020-06-16T08:15:24.000Z</time>
      </trkpt>
      <trkpt lat="45.17529" lon="5.88559">
        <ele>775.53</ele>
        <time>2020-06-16T08:15:29.000Z</time>
      </trkpt>
      <trkpt lat="45.17509" lon="5.88571">
        <ele>774.35</ele>
        <time>2020-06-16T08:15:34.000Z</time>
      </trkpt>
      <trkpt lat="45.17483" lon="5.88577">
        <ele>774.57</ele>
        <time>2020-06-16T08:15:39.000Z</time>
      </trkpt>
      <trkpt lat="45.17462" lon="5.88578">
        <ele>777.62</ele>
        <time>2020-06-16T08:15:44.000Z</time>
      </trkpt>
      <trkpt lat="45.17443" lon="5.88579">
        <ele>775.64</ele>
        <time>2020-06-16T08:15:49.000Z</time>
      </trkpt>
      <trkpt lat="45.17424" lon="5.88582">
        <ele>775.92</ele>
        <time>2020-06-16T08:15:54.000Z</time>
      </trkpt>
      <trkpt lat="45.17408" lon="5.88583">
        <ele>776.06</ele>
        <time>2020-06-16T08:15:59.000Z</time>
      </trkpt>
      <trkpt lat="45.17391" lon="5.88587">
        <ele>775.61</ele>
        <time>2020-06-16T08:16:04.000Z</time>
      </trkpt>
      <trkpt lat="45.1737" lon="5.88583">
        <ele>771.1</ele>
        <time>2020-06-16T08:16:09.000Z</time>
      </trkpt>
      <trkpt lat="45.17352" lon="5.88583">
        <ele>767.82</ele>
        <time>2020-06-16T08:16:14.000Z</time>
      </trkpt>
      <trkpt lat="45.17329" lon="5.88583">
        <ele>769.93</ele>
        <time>2020-06-16T08:16:19.000Z</time>
      </trkpt>
      <trkpt lat="45.17308" lon="5.8858">
        <ele>773.64</ele>
        <time>2020-06-16T08:16:24.000Z</time>
      </trkpt>
      <trkpt lat="45.17293" lon="5.88577">
        <ele>774.2</ele>
        <time>2020-06-16T08:16:29.000Z</time>
      </trkpt>
      <trkpt lat="45.17276" lon="5.88579">
        <ele>770.67</ele>
        <time>2020-06-16T08:16:34.000Z</time>
      </trkpt>
      <trkpt lat="45.17257" lon="5.88593">
        <ele>768.89</ele>
        <time>2020-06-16T08:16:39.000Z</time>
      </trkpt>
      <trkpt lat="45.17232" lon="5.88617">
        <ele>765.45</ele>
        <time>2020-06-16T08:16:44.000Z</time>
      </trkpt>
      <trkpt lat="45.1722" lon="5.88636">
        <ele>765.03</ele>
        <time>2020-06-16T08:16:49.000Z</time>
      </trkpt>
      <trkpt lat="45.17205" lon="5.88659">
        <ele>767.62</ele>
        <time>2020-06-16T08:16:54.000Z</time>
      </trkpt>
      <trkpt lat="45.17189" lon="5.88678">
        <ele>768.55</ele>
        <time>2020-06-16T08:16:59.000Z</time>
      </trkpt>
      <trkpt lat="45.1717" lon="5.88689">
        <ele>771.78</ele>
        <time>2020-06-16T08:17:04.000Z</time>
      </trkpt>
      <trkpt lat="45.17154" lon="5.88706">
        <ele>770.36</ele>
        <time>2020-06-16T08:17:09.000Z</time>
      </trkpt>
      <trkpt lat="45.17131" lon="5.88723">
        <ele>769.68</ele>
        <time>2020-06-16T08:17:14.000Z</time>
      </trkpt>
      <trkpt lat="45.17106" lon="5.88734">
        <ele>770.87</ele>
        <time>2020-06-16T08:17:19.000Z</time>
      </trkpt>
      <trkpt lat="45.17083" lon="5.88724">
        <ele>776.63</ele>
        <time>2020-06-16T08:17:24.000Z</time>
      </trkpt>
      <trkpt lat="45.17064" lon="5.88705">
        <ele>776.42</ele>
        <time>2020-06-16T08:17:29.000Z</time>
      </trkpt>
      <trkpt lat="45.17047" lon="5.88685">
        <ele>774.58</ele>
        <time>2020-06-16T08:17:34.000Z</time>
      </trkpt>
      <trkpt lat="45.17026" lon="5.88676">
        <ele>775.6</ele>
        <time>2020-06-16T08:17:39.000Z</time>
      </trkpt>
      <trkpt lat="45.17004" lon="5.88672">
        <ele>779.92</ele>
        <time>2020-06-16T08:17:44.000Z</time>
      </trkpt>
      <trkpt lat="45.16977" lon="5.88675">
        <ele>784.67</ele>
        <time>2020-06-16T08:17:49.000Z</time>
      </trkpt>
      <trkpt lat="45.16951" lon="5.88686">
        <ele>791.09</ele>
        <time>2020-06-16T08:17:54.000Z</time>
      </trkpt>
      <trkpt lat="45.16923" lon="5.88701">
        <ele>795.29</ele>
        <time>2020-06-16T08:17:59.000Z</time>
      </trkpt>
      <trkpt lat="45.16897" lon="5.88704">
        <ele>793.81</ele>
        <time>2020-06-16T08:18:04.000Z</time>
      </trkpt>
      <trkpt lat="45.16876" lon="5.88706">
        <ele>794.04</ele>
        <time>2020-06-16T08:18:09.000Z</time>
      </trkpt>
      <trkpt lat="45.16856" lon="5.88707">
        <ele>796.92</ele>
        <time>2020-06-16T08:18:14.000Z</time>
      </trkpt>
      <trkpt lat="45.16836" lon="5.88713">
        <ele>795.83</ele>
        <time>2020-06-16T08:18:19.000Z</time>
      </trkpt>
      <trkpt lat="45.16815" lon="5.88723">
        <ele>796.32</ele>
        <time>2020-06-16T08:18:24.000Z</time>
      </trkpt>
      <trkpt lat="45.1679" lon="5.88734">
        <ele>799.07</ele>
        <time>2020-06-16T08:18:29.000Z</time>
      </trkpt>
      <trkpt lat="45.16763" lon="5.88738">
        <ele>800.89</ele>
        <time>2020-06-16T08:18:34.000Z</time>
      </trkpt>
      <trkpt lat="45.16743" lon="5.88743">
        <ele>800.06</ele>
        <time>2020-06-16T08:18:39.000Z</time>
      </trkpt>
      <trkpt lat="45.16722" lon="5.88744">
        <ele>797.15</ele>
        <time>2020-06-16T08:18:44.000Z</time>
      </trkpt>
      <trkpt lat="45.16712" lon="5.88743">
        <ele>791.84</ele>
        <time>2020-06-16T08:18:49.000Z</time>
      </trkpt>
      <trkpt lat="45.16697" lon="5.88743">
        <ele>791.39</ele>
        <time>2020-06-16T08:18:54.000Z</time>
      </trkpt>
      <trkpt lat="45.16671" lon="5.88742">
        <ele>790.96</ele>
        <time>2020-06-16T08:18:59.000Z</time>
      </trkpt>
      <trkpt lat="45.16635" lon="5.88734">
        <ele>787.55</ele>
        <time>2020-06-16T08:19:04.000Z</time>
      </trkpt>
      <trkpt lat="45.16591" lon="5.88729">
        <ele>785.66</ele>
        <time>2020-06-16T08:19:09.000Z</time>
      </trkpt>
      <trkpt lat="45.1655" lon="5.8872">
        <ele>781.72</ele>
        <time>2020-06-16T08:19:14.000Z</time>
      </trkpt>
      <trkpt lat="45.16519" lon="5.88679">
        <ele>779.01</ele>
        <time>2020-06-16T08:19:19.000Z</time>
      </trkpt>
      <trkpt lat="45.16512" lon="5.88624">
        <ele>777.24</ele>
        <time>2020-06-16T08:19:24.000Z</time>
      </trkpt>
      <trkpt lat="45.16515" lon="5.88571">
        <ele>780.64</ele>
        <time>2020-06-16T08:19:29.000Z</time>
      </trkpt>
      <trkpt lat="45.16527" lon="5.88539">
        <ele>786.1</ele>
        <time>2020-06-16T08:19:34.000Z</time>
      </trkpt>
      <trkpt lat="45.16549" lon="5.88526">
        <ele>787.61</ele>
        <time>2020-06-16T08:19:39.000Z</time>
      </trkpt>
      <trkpt lat="45.16565" lon="5.88518">
        <ele>791.64</ele>
        <time>2020-06-16T08:19:44.000Z</time>
      </trkpt>
      <trkpt lat="45.16581" lon="5.8851">
        <ele>794.43</ele>
        <time>2020-06-16T08:19:49.000Z</time>
      </trkpt>
      <trkpt lat="45.16597" lon="5.885">
        <ele>795.3</ele>
        <time>2020-06-16T08:19:54.000Z</time>
      </trkpt>
      <trkpt lat="45.16616" lon="5.88484">
        <ele>796</ele>
        <time>2020-06-16T08:19:59.000Z</time>
      </trkpt>
      <trkpt lat="45.16637" lon="5.88471">
        <ele>799.29</ele>
        <time>2020-06-16T08:20:04.000Z</time>
      </trkpt>
      <trkpt lat="45.16657" lon="5.88464">
        <ele>803.88</ele>
        <time>2020-06-16T08:20:09.000Z</time>
      </trkpt>
      <trkpt lat="45.16679" lon="5.88461">
        <ele>804.1</ele>
        <time>2020-06-16T08:20:14.000Z</time>
      </trkpt>
      <trkpt lat="45.16702" lon="5.88462">
        <ele>805.45</ele>
        <time>2020-06-16T08:20:19.000Z</time>
      </trkpt>
      <trkpt lat="45.16724" lon="5.88463">
        <ele>804.64</ele>
        <time>2020-06-16T08:20:24.000Z</time>
      </trkpt>
      <trkpt lat="45.16749" lon="5.88465">
        <ele>800.9</ele>
        <time>2020-06-16T08:20:29.000Z</time>
      </trkpt>
      <trkpt lat="45.1676" lon="5.88452">
        <ele>799.27</ele>
        <time>2020-06-16T08:20:34.000Z</time>
      </trkpt>
      <trkpt lat="45.16775" lon="5.88411">
        <ele>804.27</ele>
        <time>2020-06-16T08:20:39.000Z</time>
      </trkpt>
      <trkpt lat="45.16789" lon="5.88383">
        <ele>804.02</ele>
        <time>2020-06-16T08:20:44.000Z</time>
      </trkpt>
      <trkpt lat="45.16806" lon="5.88364">
        <ele>802.32</ele>
        <time>2020-06-16T08:20:49.000Z</time>
      </trkpt>
      <trkpt lat="45.16812" lon="5.88344">
        <ele>801.79</ele>
        <time>2020-06-16T08:20:54.000Z</time>
      </trkpt>
      <trkpt lat="45.16821" lon="5.88325">
        <ele>799.5</ele>
        <time>2020-06-16T08:20:59.000Z</time>
      </trkpt>
      <trkpt lat="45.16834" lon="5.88303">
        <ele>800.58</ele>
        <time>2020-06-16T08:21:04.000Z</time>
      </trkpt>
      <trkpt lat="45.16849" lon="5.88285">
        <ele>801.93</ele>
        <time>2020-06-16T08:21:09.000Z</time>
      </trkpt>
      <trkpt lat="45.16864" lon="5.88268">
        <ele>801.54</ele>
        <time>2020-06-16T08:21:14.000Z</time>
      </trkpt>
      <trkpt lat="45.16884" lon="5.88255">
        <ele>801.66</ele>
        <time>2020-06-16T08:21:19.000Z</time>
      </trkpt>
      <trkpt lat="45.16904" lon="5.88245">
        <ele>801.54</ele>
        <time>2020-06-16T08:21:24.000Z</time>
      </trkpt>
      <trkpt lat="45.16924" lon="5.88233">
        <ele>801.14</ele>
        <time>2020-06-16T08:21:29.000Z</time>
      </trkpt>
      <trkpt lat="45.16942" lon="5.88212">
        <ele>799.07</ele>
        <time>2020-06-16T08:21:34.000Z</time>
      </trkpt>
      <trkpt lat="45.16961" lon="5.88195">
        <ele>804.9</ele>
        <time>2020-06-16T08:21:39.000Z</time>
      </trkpt>
      <trkpt lat="45.16978" lon="5.88191">
        <ele>806.2</ele>
        <time>2020-06-16T08:21:44.000Z</time>
      </trkpt>
      <trkpt lat="45.16993" lon="5.8818">
        <ele>809.52</ele>
        <time>2020-06-16T08:21:49.000Z</time>
      </trkpt>
      <trkpt lat="45.17012" lon="5.88168">
        <ele>809.22</ele>
        <time>2020-06-16T08:21:54.000Z</time>
      </trkpt>
      <trkpt lat="45.17031" lon="5.88154">
        <ele>813.23</ele>
        <time>2020-06-16T08:21:59.000Z</time>
      </trkpt>
      <trkpt lat="45.1705" lon="5.88141">
        <ele>814.53</ele>
        <time>2020-06-16T08:22:04.000Z</time>
      </trkpt>
      <trkpt lat="45.1707" lon="5.8813">
        <ele>821.44</ele>
        <time>2020-06-16T08:22:09.000Z</time>
      </trkpt>
      <trkpt lat="45.17088" lon="5.88114">
        <ele>816.76</ele>
        <time>2020-06-16T08:22:14.000Z</time>
      </trkpt>
      <trkpt lat="45.17103" lon="5.88091">
        <ele>819.92</ele>
        <time>2020-06-16T08:22:19.000Z</time>
      </trkpt>
      <trkpt lat="45.17119" lon="5.88076">
        <ele>821.91</ele>
        <time>2020-06-16T08:22:24.000Z</time>
      </trkpt>
      <trkpt lat="45.17131" lon="5.88057">
        <ele>823.13</ele>
        <time>2020-06-16T08:22:29.000Z</time>
      </trkpt>
      <trkpt lat="45.17145" lon="5.88032">
        <ele>822.66</ele>
        <time>2020-06-16T08:22:34.000Z</time>
      </trkpt>
      <trkpt lat="45.17158" lon="5.88011">
        <ele>828.43</ele>
        <time>2020-06-16T08:22:39.000Z</time>
      </trkpt>
      <trkpt lat="45.17172" lon="5.87987">
        <ele>833.12</ele>
        <time>2020-06-16T08:22:44.000Z</time>
      </trkpt>
      <trkpt lat="45.17186" lon="5.87965">
        <ele>836.46</ele>
        <time>2020-06-16T08:22:49.000Z</time>
      </trkpt>
      <trkpt lat="45.17197" lon="5.87942">
        <ele>838.91</ele>
        <time>2020-06-16T08:22:54.000Z</time>
      </trkpt>
      <trkpt lat="45.17212" lon="5.8792">
        <ele>843.07</ele>
        <time>2020-06-16T08:22:59.000Z</time>
      </trkpt>
      <trkpt lat="45.17227" lon="5.87901">
        <ele>846.95</ele>
        <time>2020-06-16T08:23:04.000Z</time>
      </trkpt>
      <trkpt lat="45.17243" lon="5.87881">
        <ele>847.03</ele>
        <time>2020-06-16T08:23:09.000Z</time>
      </trkpt>
      <trkpt lat="45.17259" lon="5.87858">
        <ele>844.42</ele>
        <time>2020-06-16T08:23:14.000Z</time>
      </trkpt>
      <trkpt lat="45.17277" lon="5.87832">
        <ele>842.79</ele>
        <time>2020-06-16T08:23:19.000Z</time>
      </trkpt>
      <trkpt lat="45.17291" lon="5.87803">
        <ele>845.17</ele>
        <time>2020-06-16T08:23:24.000Z</time>
      </trkpt>
      <trkpt lat="45.17305" lon="5.87781">
        <ele>845.45</ele>
        <time>2020-06-16T08:23:29.000Z</time>
      </trkpt>
      <trkpt lat="45.1732" lon="5.87752">
        <ele>850.71</ele>
        <time>2020-06-16T08:23:34.000Z</time>
      </trkpt>
      <trkpt lat="45.17334" lon="5.8773">
        <ele>852.79</ele>
        <time>2020-06-16T08:23:39.000Z</time>
      </trkpt>
      <trkpt lat="45.17345" lon="5.87706">
        <ele>852.8</ele>
        <time>2020-06-16T08:23:44.000Z</time>
      </trkpt>
      <trkpt lat="45.17355" lon="5.8768">
        <ele>850.62</ele>
        <time>2020-06-16T08:23:49.000Z</time>
      </trkpt>
      <trkpt lat="45.17362" lon="5.87657">
        <ele>849.61</ele>
        <time>2020-06-16T08:23:54.000Z</time>
      </trkpt>
      <trkpt lat="45.17368" lon="5.87623">
        <ele>848.51</ele>
        <time>2020-06-16T08:23:59.000Z</time>
      </trkpt>
      <trkpt lat="45.17363" lon="5.87591">
        <ele>849.63</ele>
        <time>2020-06-16T08:24:04.000Z</time>
      </trkpt>
      <trkpt lat="45.17359" lon="5.87549">
        <ele>851.83</ele>
        <time>2020-06-16T08:24:09.000Z</time>
      </trkpt>
      <trkpt lat="45.1735" lon="5.87517">
        <ele>851.46</ele>
        <time>2020-06-16T08:24:14.000Z</time>
      </trkpt>
      <trkpt lat="45.17338" lon="5.87494">
        <ele>849.92</ele>
        <time>2020-06-16T08:24:19.000Z</time>
      </trkpt>
      <trkpt lat="45.17324" lon="5.8747">
        <ele>847.98</ele>
        <time>2020-06-16T08:24:24.000Z</time>
      </trkpt>
      <trkpt lat="45.17312" lon="5.87454">
        <ele>847.9</ele>
        <time>2020-06-16T08:24:29.000Z</time>
      </trkpt>
      <trkpt lat="45.17303" lon="5.87447">
        <ele>842.87</ele>
        <time>2020-06-16T08:24:35.000Z</time>
      </trkpt>
      <trkpt lat="45.17295" lon="5.87441">
        <ele>844.11</ele>
        <time>2020-06-16T08:24:43.000Z</time>
      </trkpt>
      <trkpt lat="45.17285" lon="5.87436">
        <ele>842.63</ele>
        <time>2020-06-16T08:24:49.000Z</time>
      </trkpt>
      <trkpt lat="45.17278" lon="5.87429">
        <ele>840.97</ele>
        <time>2020-06-16T08:24:55.000Z</time>
      </trkpt>
      <trkpt lat="45.17266" lon="5.87421">
        <ele>840.37</ele>
        <time>2020-06-16T08:25:00.000Z</time>
      </trkpt>
      <trkpt lat="45.17248" lon="5.87402">
        <ele>840.06</ele>
        <time>2020-06-16T08:25:05.000Z</time>
      </trkpt>
      <trkpt lat="45.17229" lon="5.87373">
        <ele>839.86</ele>
        <time>2020-06-16T08:25:10.000Z</time>
      </trkpt>
      <trkpt lat="45.17209" lon="5.87335">
        <ele>838.5</ele>
        <time>2020-06-16T08:25:15.000Z</time>
      </trkpt>
      <trkpt lat="45.17203" lon="5.87293">
        <ele>838.04</ele>
        <time>2020-06-16T08:25:20.000Z</time>
      </trkpt>
      <trkpt lat="45.17197" lon="5.8725">
        <ele>835.06</ele>
        <time>2020-06-16T08:25:25.000Z</time>
      </trkpt>
      <trkpt lat="45.17189" lon="5.87205">
        <ele>833.68</ele>
        <time>2020-06-16T08:25:30.000Z</time>
      </trkpt>
      <trkpt lat="45.17173" lon="5.87162">
        <ele>833.67</ele>
        <time>2020-06-16T08:25:35.000Z</time>
      </trkpt>
      <trkpt lat="45.17154" lon="5.87117">
        <ele>830.43</ele>
        <time>2020-06-16T08:25:40.000Z</time>
      </trkpt>
      <trkpt lat="45.17133" lon="5.87061">
        <ele>830.34</ele>
        <time>2020-06-16T08:25:45.000Z</time>
      </trkpt>
      <trkpt lat="45.17113" lon="5.87005">
        <ele>827.39</ele>
        <time>2020-06-16T08:25:50.000Z</time>
      </trkpt>
      <trkpt lat="45.17087" lon="5.86945">
        <ele>822.49</ele>
        <time>2020-06-16T08:25:55.000Z</time>
      </trkpt>
      <trkpt lat="45.17063" lon="5.8689">
        <ele>822.38</ele>
        <time>2020-06-16T08:26:00.000Z</time>
      </trkpt>
      <trkpt lat="45.17034" lon="5.86837">
        <ele>822</ele>
        <time>2020-06-16T08:26:05.000Z</time>
      </trkpt>
      <trkpt lat="45.17006" lon="5.86775">
        <ele>818.99</ele>
        <time>2020-06-16T08:26:10.000Z</time>
      </trkpt>
      <trkpt lat="45.1698" lon="5.86719">
        <ele>815.3</ele>
        <time>2020-06-16T08:26:15.000Z</time>
      </trkpt>
      <trkpt lat="45.16956" lon="5.86664">
        <ele>812.84</ele>
        <time>2020-06-16T08:26:20.000Z</time>
      </trkpt>
      <trkpt lat="45.16931" lon="5.86618">
        <ele>815.28</ele>
        <time>2020-06-16T08:26:25.000Z</time>
      </trkpt>
      <trkpt lat="45.16916" lon="5.86568">
        <ele>814.91</ele>
        <time>2020-06-16T08:26:30.000Z</time>
      </trkpt>
      <trkpt lat="45.169" lon="5.86519">
        <ele>815.67</ele>
        <time>2020-06-16T08:26:35.000Z</time>
      </trkpt>
      <trkpt lat="45.16883" lon="5.86476">
        <ele>815.22</ele>
        <time>2020-06-16T08:26:40.000Z</time>
      </trkpt>
      <trkpt lat="45.16874" lon="5.86429">
        <ele>814.76</ele>
        <time>2020-06-16T08:26:45.000Z</time>
      </trkpt>
      <trkpt lat="45.16859" lon="5.86389">
        <ele>814.24</ele>
        <time>2020-06-16T08:26:50.000Z</time>
      </trkpt>
      <trkpt lat="45.16838" lon="5.86358">
        <ele>813.37</ele>
        <time>2020-06-16T08:26:55.000Z</time>
      </trkpt>
      <trkpt lat="45.16817" lon="5.86325">
        <ele>815.44</ele>
        <time>2020-06-16T08:27:00.000Z</time>
      </trkpt>
      <trkpt lat="45.16794" lon="5.86293">
        <ele>814.17</ele>
        <time>2020-06-16T08:27:05.000Z</time>
      </trkpt>
      <trkpt lat="45.16769" lon="5.86263">
        <ele>813.17</ele>
        <time>2020-06-16T08:27:10.000Z</time>
      </trkpt>
      <trkpt lat="45.16768" lon="5.86215">
        <ele>811.55</ele>
        <time>2020-06-16T08:27:15.000Z</time>
      </trkpt>
      <trkpt lat="45.16772" lon="5.86171">
        <ele>811.87</ele>
        <time>2020-06-16T08:27:20.000Z</time>
      </trkpt>
      <trkpt lat="45.16781" lon="5.86122">
        <ele>809.06</ele>
        <time>2020-06-16T08:27:25.000Z</time>
      </trkpt>
      <trkpt lat="45.16785" lon="5.86075">
        <ele>807.69</ele>
        <time>2020-06-16T08:27:30.000Z</time>
      </trkpt>
      <trkpt lat="45.16791" lon="5.86026">
        <ele>806.34</ele>
        <time>2020-06-16T08:27:35.000Z</time>
      </trkpt>
      <trkpt lat="45.16788" lon="5.85972">
        <ele>803.72</ele>
        <time>2020-06-16T08:27:40.000Z</time>
      </trkpt>
      <trkpt lat="45.16777" lon="5.85922">
        <ele>802.6</ele>
        <time>2020-06-16T08:27:45.000Z</time>
      </trkpt>
      <trkpt lat="45.16763" lon="5.85866">
        <ele>803.15</ele>
        <time>2020-06-16T08:27:50.000Z</time>
      </trkpt>
      <trkpt lat="45.16752" lon="5.85803">
        <ele>802.01</ele>
        <time>2020-06-16T08:27:55.000Z</time>
      </trkpt>
      <trkpt lat="45.16762" lon="5.8573">
        <ele>801.8</ele>
        <time>2020-06-16T08:28:00.000Z</time>
      </trkpt>
      <trkpt lat="45.16764" lon="5.85669">
        <ele>800.67</ele>
        <time>2020-06-16T08:28:05.000Z</time>
      </trkpt>
      <trkpt lat="45.16757" lon="5.85614">
        <ele>799.63</ele>
        <time>2020-06-16T08:28:10.000Z</time>
      </trkpt>
      <trkpt lat="45.16743" lon="5.85564">
        <ele>799.08</ele>
        <time>2020-06-16T08:28:15.000Z</time>
      </trkpt>
      <trkpt lat="45.16729" lon="5.85507">
        <ele>803.06</ele>
        <time>2020-06-16T08:28:20.000Z</time>
      </trkpt>
      <trkpt lat="45.16716" lon="5.85452">
        <ele>796.85</ele>
        <time>2020-06-16T08:28:25.000Z</time>
      </trkpt>
      <trkpt lat="45.16707" lon="5.85407">
        <ele>794.92</ele>
        <time>2020-06-16T08:28:30.000Z</time>
      </trkpt>
      <trkpt lat="45.16697" lon="5.85366">
        <ele>794.02</ele>
        <time>2020-06-16T08:28:35.000Z</time>
      </trkpt>
      <trkpt lat="45.16683" lon="5.85332">
        <ele>795.08</ele>
        <time>2020-06-16T08:28:40.000Z</time>
      </trkpt>
      <trkpt lat="45.16666" lon="5.853">
        <ele>794.91</ele>
        <time>2020-06-16T08:28:45.000Z</time>
      </trkpt>
      <trkpt lat="45.16651" lon="5.85273">
        <ele>794.75</ele>
        <time>2020-06-16T08:28:50.000Z</time>
      </trkpt>
      <trkpt lat="45.16634" lon="5.85245">
        <ele>797.54</ele>
        <time>2020-06-16T08:28:55.000Z</time>
      </trkpt>
      <trkpt lat="45.16618" lon="5.85214">
        <ele>802.29</ele>
        <time>2020-06-16T08:29:00.000Z</time>
      </trkpt>
      <trkpt lat="45.16602" lon="5.8519">
        <ele>798.79</ele>
        <time>2020-06-16T08:29:05.000Z</time>
      </trkpt>
      <trkpt lat="45.16587" lon="5.85163">
        <ele>800.19</ele>
        <time>2020-06-16T08:29:10.000Z</time>
      </trkpt>
      <trkpt lat="45.16572" lon="5.85136">
        <ele>798.83</ele>
        <time>2020-06-16T08:29:15.000Z</time>
      </trkpt>
      <trkpt lat="45.16558" lon="5.85106">
        <ele>801.51</ele>
        <time>2020-06-16T08:29:20.000Z</time>
      </trkpt>
      <trkpt lat="45.1655" lon="5.85073">
        <ele>805.38</ele>
        <time>2020-06-16T08:29:25.000Z</time>
      </trkpt>
      <trkpt lat="45.16546" lon="5.85041">
        <ele>805.77</ele>
        <time>2020-06-16T08:29:30.000Z</time>
      </trkpt>
      <trkpt lat="45.16544" lon="5.85009">
        <ele>805.21</ele>
        <time>2020-06-16T08:29:35.000Z</time>
      </trkpt>
      <trkpt lat="45.16536" lon="5.8498">
        <ele>806.69</ele>
        <time>2020-06-16T08:29:40.000Z</time>
      </trkpt>
      <trkpt lat="45.16531" lon="5.84958">
        <ele>808.22</ele>
        <time>2020-06-16T08:29:45.000Z</time>
      </trkpt>
      <trkpt lat="45.16526" lon="5.84935">
        <ele>808.54</ele>
        <time>2020-06-16T08:29:50.000Z</time>
      </trkpt>
      <trkpt lat="45.16526" lon="5.8491">
        <ele>809.05</ele>
        <time>2020-06-16T08:29:55.000Z</time>
      </trkpt>
      <trkpt lat="45.16526" lon="5.84885">
        <ele>811.16</ele>
        <time>2020-06-16T08:30:00.000Z</time>
      </trkpt>
      <trkpt lat="45.16529" lon="5.84866">
        <ele>810.78</ele>
        <time>2020-06-16T08:30:05.000Z</time>
      </trkpt>
      <trkpt lat="45.16522" lon="5.84857">
        <ele>811.17</ele>
        <time>2020-06-16T08:35:30.000Z</time>
      </trkpt>
      <trkpt lat="45.16507" lon="5.84848">
        <ele>816.53</ele>
        <time>2020-06-16T08:35:35.000Z</time>
      </trkpt>
      <trkpt lat="45.1649" lon="5.8484">
        <ele>812.03</ele>
        <time>2020-06-16T08:35:40.000Z</time>
      </trkpt>
      <trkpt lat="45.16472" lon="5.84843">
        <ele>812.25</ele>
        <time>2020-06-16T08:35:45.000Z</time>
      </trkpt>
      <trkpt lat="45.1646" lon="5.84872">
        <ele>811.05</ele>
        <time>2020-06-16T08:35:50.000Z</time>
      </trkpt>
      <trkpt lat="45.16437" lon="5.84908">
        <ele>810.14</ele>
        <time>2020-06-16T08:35:55.000Z</time>
      </trkpt>
      <trkpt lat="45.16414" lon="5.84947">
        <ele>803.46</ele>
        <time>2020-06-16T08:36:00.000Z</time>
      </trkpt>
      <trkpt lat="45.16384" lon="5.84979">
        <ele>805.37</ele>
        <time>2020-06-16T08:36:05.000Z</time>
      </trkpt>
      <trkpt lat="45.1635" lon="5.85011">
        <ele>802.61</ele>
        <time>2020-06-16T08:36:10.000Z</time>
      </trkpt>
      <trkpt lat="45.16323" lon="5.85045">
        <ele>801.52</ele>
        <time>2020-06-16T08:36:15.000Z</time>
      </trkpt>
      <trkpt lat="45.16308" lon="5.8509">
        <ele>802.71</ele>
        <time>2020-06-16T08:36:20.000Z</time>
      </trkpt>
      <trkpt lat="45.1631" lon="5.85141">
        <ele>798.5</ele>
        <time>2020-06-16T08:36:25.000Z</time>
      </trkpt>
      <trkpt lat="45.16284" lon="5.85172">
        <ele>792.81</ele>
        <time>2020-06-16T08:36:30.000Z</time>
      </trkpt>
      <trkpt lat="45.16254" lon="5.85158">
        <ele>792.03</ele>
        <time>2020-06-16T08:36:35.000Z</time>
      </trkpt>
      <trkpt lat="45.16224" lon="5.85139">
        <ele>785.44</ele>
        <time>2020-06-16T08:36:40.000Z</time>
      </trkpt>
      <trkpt lat="45.16188" lon="5.85118">
        <ele>786.41</ele>
        <time>2020-06-16T08:36:45.000Z</time>
      </trkpt>
      <trkpt lat="45.16156" lon="5.85096">
        <ele>785.71</ele>
        <time>2020-06-16T08:36:50.000Z</time>
      </trkpt>
      <trkpt lat="45.16123" lon="5.85063">
        <ele>780.16</ele>
        <time>2020-06-16T08:36:55.000Z</time>
      </trkpt>
      <trkpt lat="45.161" lon="5.85007">
        <ele>779.67</ele>
        <time>2020-06-16T08:37:00.000Z</time>
      </trkpt>
      <trkpt lat="45.16079" lon="5.84954">
        <ele>776.67</ele>
        <time>2020-06-16T08:37:05.000Z</time>
      </trkpt>
      <trkpt lat="45.16036" lon="5.84935">
        <ele>773.72</ele>
        <time>2020-06-16T08:37:10.000Z</time>
      </trkpt>
      <trkpt lat="45.15986" lon="5.84924">
        <ele>767.16</ele>
        <time>2020-06-16T08:37:15.000Z</time>
      </trkpt>
      <trkpt lat="45.1594" lon="5.84914">
        <ele>755.71</ele>
        <time>2020-06-16T08:37:20.000Z</time>
      </trkpt>
      <trkpt lat="45.15899" lon="5.84903">
        <ele>750.22</ele>
        <time>2020-06-16T08:37:25.000Z</time>
      </trkpt>
      <trkpt lat="45.15874" lon="5.84873">
        <ele>749.27</ele>
        <time>2020-06-16T08:37:30.000Z</time>
      </trkpt>
      <trkpt lat="45.15862" lon="5.84853">
        <ele>747.79</ele>
        <time>2020-06-16T08:37:35.000Z</time>
      </trkpt>
      <trkpt lat="45.15847" lon="5.84863">
        <ele>750.27</ele>
        <time>2020-06-16T08:37:40.000Z</time>
      </trkpt>
      <trkpt lat="45.15833" lon="5.84876">
        <ele>750.77</ele>
        <time>2020-06-16T08:37:45.000Z</time>
      </trkpt>
      <trkpt lat="45.15822" lon="5.84891">
        <ele>750.61</ele>
        <time>2020-06-16T08:37:50.000Z</time>
      </trkpt>
      <trkpt lat="45.1581" lon="5.8491">
        <ele>749.03</ele>
        <time>2020-06-16T08:37:55.000Z</time>
      </trkpt>
      <trkpt lat="45.15793" lon="5.84908">
        <ele>749.26</ele>
        <time>2020-06-16T08:38:00.000Z</time>
      </trkpt>
      <trkpt lat="45.15774" lon="5.84889">
        <ele>748.15</ele>
        <time>2020-06-16T08:38:05.000Z</time>
      </trkpt>
      <trkpt lat="45.15747" lon="5.8488">
        <ele>746.93</ele>
        <time>2020-06-16T08:38:10.000Z</time>
      </trkpt>
      <trkpt lat="45.15713" lon="5.84877">
        <ele>746.17</ele>
        <time>2020-06-16T08:38:15.000Z</time>
      </trkpt>
      <trkpt lat="45.15675" lon="5.84888">
        <ele>741.85</ele>
        <time>2020-06-16T08:38:20.000Z</time>
      </trkpt>
      <trkpt lat="45.15638" lon="5.8489">
        <ele>737.18</ele>
        <time>2020-06-16T08:38:25.000Z</time>
      </trkpt>
      <trkpt lat="45.1561" lon="5.8488">
        <ele>731.99</ele>
        <time>2020-06-16T08:38:30.000Z</time>
      </trkpt>
      <trkpt lat="45.15607" lon="5.84842">
        <ele>727.71</ele>
        <time>2020-06-16T08:38:35.000Z</time>
      </trkpt>
      <trkpt lat="45.15619" lon="5.84801">
        <ele>727.27</ele>
        <time>2020-06-16T08:38:40.000Z</time>
      </trkpt>
      <trkpt lat="45.15636" lon="5.84756">
        <ele>722.24</ele>
        <time>2020-06-16T08:38:45.000Z</time>
      </trkpt>
      <trkpt lat="45.15638" lon="5.8472">
        <ele>718.07</ele>
        <time>2020-06-16T08:38:50.000Z</time>
      </trkpt>
      <trkpt lat="45.15605" lon="5.84734">
        <ele>715.72</ele>
        <time>2020-06-16T08:38:55.000Z</time>
      </trkpt>
      <trkpt lat="45.15574" lon="5.84756">
        <ele>713.62</ele>
        <time>2020-06-16T08:39:00.000Z</time>
      </trkpt>
      <trkpt lat="45.15545" lon="5.8478">
        <ele>710.67</ele>
        <time>2020-06-16T08:39:05.000Z</time>
      </trkpt>
      <trkpt lat="45.1552" lon="5.84815">
        <ele>707.56</ele>
        <time>2020-06-16T08:39:10.000Z</time>
      </trkpt>
      <trkpt lat="45.15506" lon="5.84854">
        <ele>701.91</ele>
        <time>2020-06-16T08:39:15.000Z</time>
      </trkpt>
      <trkpt lat="45.15486" lon="5.84898">
        <ele>704.49</ele>
        <time>2020-06-16T08:39:20.000Z</time>
      </trkpt>
      <trkpt lat="45.15464" lon="5.84936">
        <ele>706.3</ele>
        <time>2020-06-16T08:39:25.000Z</time>
      </trkpt>
      <trkpt lat="45.15436" lon="5.84967">
        <ele>704.72</ele>
        <time>2020-06-16T08:39:30.000Z</time>
      </trkpt>
      <trkpt lat="45.15414" lon="5.84999">
        <ele>702.76</ele>
        <time>2020-06-16T08:39:35.000Z</time>
      </trkpt>
      <trkpt lat="45.15408" lon="5.85031">
        <ele>699.59</ele>
        <time>2020-06-16T08:39:40.000Z</time>
      </trkpt>
      <trkpt lat="45.15392" lon="5.85054">
        <ele>696.22</ele>
        <time>2020-06-16T08:39:45.000Z</time>
      </trkpt>
      <trkpt lat="45.15378" lon="5.85034">
        <ele>696.08</ele>
        <time>2020-06-16T08:39:50.000Z</time>
      </trkpt>
      <trkpt lat="45.1537" lon="5.85005">
        <ele>697.87</ele>
        <time>2020-06-16T08:39:55.000Z</time>
      </trkpt>
      <trkpt lat="45.15366" lon="5.84985">
        <ele>696.9</ele>
        <time>2020-06-16T08:40:00.000Z</time>
      </trkpt>
      <trkpt lat="45.15361" lon="5.84958">
        <ele>692.33</ele>
        <time>2020-06-16T08:40:05.000Z</time>
      </trkpt>
      <trkpt lat="45.15364" lon="5.84928">
        <ele>691.27</ele>
        <time>2020-06-16T08:40:10.000Z</time>
      </trkpt>
      <trkpt lat="45.15369" lon="5.84888">
        <ele>690.89</ele>
        <time>2020-06-16T08:40:15.000Z</time>
      </trkpt>
      <trkpt lat="45.15366" lon="5.84852">
        <ele>690.7</ele>
        <time>2020-06-16T08:40:20.000Z</time>
      </trkpt>
      <trkpt lat="45.1535" lon="5.8482">
        <ele>688.8</ele>
        <time>2020-06-16T08:40:25.000Z</time>
      </trkpt>
      <trkpt lat="45.1533" lon="5.84793">
        <ele>688.56</ele>
        <time>2020-06-16T08:40:30.000Z</time>
      </trkpt>
      <trkpt lat="45.15311" lon="5.84766">
        <ele>690.02</ele>
        <time>2020-06-16T08:40:35.000Z</time>
      </trkpt>
      <trkpt lat="45.1529" lon="5.84738">
        <ele>690.61</ele>
        <time>2020-06-16T08:40:40.000Z</time>
      </trkpt>
      <trkpt lat="45.15273" lon="5.84709">
        <ele>693.03</ele>
        <time>2020-06-16T08:40:45.000Z</time>
      </trkpt>
      <trkpt lat="45.15261" lon="5.84693">
        <ele>697.56</ele>
        <time>2020-06-16T08:40:50.000Z</time>
      </trkpt>
      <trkpt lat="45.15259" lon="5.8466">
        <ele>698.95</ele>
        <time>2020-06-16T08:40:55.000Z</time>
      </trkpt>
      <trkpt lat="45.15252" lon="5.84622">
        <ele>695.97</ele>
        <time>2020-06-16T08:41:00.000Z</time>
      </trkpt>
      <trkpt lat="45.15232" lon="5.84585">
        <ele>694.12</ele>
        <time>2020-06-16T08:41:05.000Z</time>
      </trkpt>
      <trkpt lat="45.15205" lon="5.84556">
        <ele>687.6</ele>
        <time>2020-06-16T08:41:10.000Z</time>
      </trkpt>
      <trkpt lat="45.15172" lon="5.84524">
        <ele>685.61</ele>
        <time>2020-06-16T08:41:15.000Z</time>
      </trkpt>
      <trkpt lat="45.15133" lon="5.84498">
        <ele>683.47</ele>
        <time>2020-06-16T08:41:20.000Z</time>
      </trkpt>
      <trkpt lat="45.1509" lon="5.84481">
        <ele>681.14</ele>
        <time>2020-06-16T08:41:25.000Z</time>
      </trkpt>
      <trkpt lat="45.15048" lon="5.84461">
        <ele>675.4</ele>
        <time>2020-06-16T08:41:30.000Z</time>
      </trkpt>
      <trkpt lat="45.1503" lon="5.84414">
        <ele>670.36</ele>
        <time>2020-06-16T08:41:35.000Z</time>
      </trkpt>
      <trkpt lat="45.15041" lon="5.84362">
        <ele>665.5</ele>
        <time>2020-06-16T08:41:40.000Z</time>
      </trkpt>
      <trkpt lat="45.15078" lon="5.84342">
        <ele>663.44</ele>
        <time>2020-06-16T08:41:45.000Z</time>
      </trkpt>
      <trkpt lat="45.15124" lon="5.84335">
        <ele>655.09</ele>
        <time>2020-06-16T08:41:50.000Z</time>
      </trkpt>
      <trkpt lat="45.15153" lon="5.84285">
        <ele>647.76</ele>
        <time>2020-06-16T08:41:55.000Z</time>
      </trkpt>
      <trkpt lat="45.15179" lon="5.84234">
        <ele>644.57</ele>
        <time>2020-06-16T08:42:00.000Z</time>
      </trkpt>
      <trkpt lat="45.15222" lon="5.84197">
        <ele>640.14</ele>
        <time>2020-06-16T08:42:05.000Z</time>
      </trkpt>
      <trkpt lat="45.15263" lon="5.84161">
        <ele>636.78</ele>
        <time>2020-06-16T08:42:10.000Z</time>
      </trkpt>
      <trkpt lat="45.15318" lon="5.84134">
        <ele>631.86</ele>
        <time>2020-06-16T08:42:15.000Z</time>
      </trkpt>
      <trkpt lat="45.15366" lon="5.84092">
        <ele>630.2</ele>
        <time>2020-06-16T08:42:20.000Z</time>
      </trkpt>
      <trkpt lat="45.15411" lon="5.84044">
        <ele>631.69</ele>
        <time>2020-06-16T08:42:25.000Z</time>
      </trkpt>
      <trkpt lat="45.15457" lon="5.84031">
        <ele>627.51</ele>
        <time>2020-06-16T08:42:30.000Z</time>
      </trkpt>
      <trkpt lat="45.15499" lon="5.84053">
        <ele>618.35</ele>
        <time>2020-06-16T08:42:35.000Z</time>
      </trkpt>
      <trkpt lat="45.15521" lon="5.84034">
        <ele>622.54</ele>
        <time>2020-06-16T08:42:40.000Z</time>
      </trkpt>
      <trkpt lat="45.15497" lon="5.84001">
        <ele>626.33</ele>
        <time>2020-06-16T08:42:45.000Z</time>
      </trkpt>
      <trkpt lat="45.15464" lon="5.83962">
        <ele>621.38</ele>
        <time>2020-06-16T08:42:50.000Z</time>
      </trkpt>
      <trkpt lat="45.1543" lon="5.83939">
        <ele>617.43</ele>
        <time>2020-06-16T08:42:55.000Z</time>
      </trkpt>
      <trkpt lat="45.15396" lon="5.83921">
        <ele>622.26</ele>
        <time>2020-06-16T08:43:00.000Z</time>
      </trkpt>
      <trkpt lat="45.1536" lon="5.83898">
        <ele>618.56</ele>
        <time>2020-06-16T08:43:05.000Z</time>
      </trkpt>
      <trkpt lat="45.1534" lon="5.83859">
        <ele>616.32</ele>
        <time>2020-06-16T08:43:10.000Z</time>
      </trkpt>
      <trkpt lat="45.1531" lon="5.83843">
        <ele>613.37</ele>
        <time>2020-06-16T08:43:15.000Z</time>
      </trkpt>
      <trkpt lat="45.15274" lon="5.83844">
        <ele>608.9</ele>
        <time>2020-06-16T08:43:20.000Z</time>
      </trkpt>
      <trkpt lat="45.15243" lon="5.83842">
        <ele>607.14</ele>
        <time>2020-06-16T08:43:25.000Z</time>
      </trkpt>
      <trkpt lat="45.15219" lon="5.83818">
        <ele>607.07</ele>
        <time>2020-06-16T08:43:30.000Z</time>
      </trkpt>
      <trkpt lat="45.1521" lon="5.83809">
        <ele>603.88</ele>
        <time>2020-06-16T08:43:36.000Z</time>
      </trkpt>
      <trkpt lat="45.15193" lon="5.83797">
        <ele>601.35</ele>
        <time>2020-06-16T08:43:41.000Z</time>
      </trkpt>
      <trkpt lat="45.15179" lon="5.83762">
        <ele>595.77</ele>
        <time>2020-06-16T08:43:46.000Z</time>
      </trkpt>
      <trkpt lat="45.15144" lon="5.83741">
        <ele>596.01</ele>
        <time>2020-06-16T08:43:51.000Z</time>
      </trkpt>
      <trkpt lat="45.15116" lon="5.8372">
        <ele>596.05</ele>
        <time>2020-06-16T08:43:56.000Z</time>
      </trkpt>
      <trkpt lat="45.15093" lon="5.83699">
        <ele>596.06</ele>
        <time>2020-06-16T08:44:01.000Z</time>
      </trkpt>
      <trkpt lat="45.15082" lon="5.83721">
        <ele>595.29</ele>
        <time>2020-06-16T08:44:06.000Z</time>
      </trkpt>
      <trkpt lat="45.15074" lon="5.8374">
        <ele>594.6</ele>
        <time>2020-06-16T08:44:11.000Z</time>
      </trkpt>
      <trkpt lat="45.15064" lon="5.83758">
        <ele>595.24</ele>
        <time>2020-06-16T08:44:16.000Z</time>
      </trkpt>
      <trkpt lat="45.15049" lon="5.83775">
        <ele>597.06</ele>
        <time>2020-06-16T08:44:21.000Z</time>
      </trkpt>
      <trkpt lat="45.15033" lon="5.8379">
        <ele>593.82</ele>
        <time>2020-06-16T08:44:26.000Z</time>
      </trkpt>
      <trkpt lat="45.15014" lon="5.83804">
        <ele>596.04</ele>
        <time>2020-06-16T08:44:31.000Z</time>
      </trkpt>
      <trkpt lat="45.14996" lon="5.83817">
        <ele>594.3</ele>
        <time>2020-06-16T08:44:36.000Z</time>
      </trkpt>
      <trkpt lat="45.14976" lon="5.83824">
        <ele>596.01</ele>
        <time>2020-06-16T08:44:41.000Z</time>
      </trkpt>
      <trkpt lat="45.14955" lon="5.83829">
        <ele>596.23</ele>
        <time>2020-06-16T08:44:46.000Z</time>
      </trkpt>
      <trkpt lat="45.14936" lon="5.83837">
        <ele>596.28</ele>
        <time>2020-06-16T08:44:51.000Z</time>
      </trkpt>
      <trkpt lat="45.14918" lon="5.83845">
        <ele>594.99</ele>
        <time>2020-06-16T08:44:56.000Z</time>
      </trkpt>
      <trkpt lat="45.14898" lon="5.83851">
        <ele>596.34</ele>
        <time>2020-06-16T08:45:01.000Z</time>
      </trkpt>
      <trkpt lat="45.14878" lon="5.83857">
        <ele>598.6</ele>
        <time>2020-06-16T08:45:06.000Z</time>
      </trkpt>
      <trkpt lat="45.14856" lon="5.83864">
        <ele>601</ele>
        <time>2020-06-16T08:45:11.000Z</time>
      </trkpt>
      <trkpt lat="45.14836" lon="5.83871">
        <ele>599.87</ele>
        <time>2020-06-16T08:45:16.000Z</time>
      </trkpt>
      <trkpt lat="45.14816" lon="5.83879">
        <ele>602.85</ele>
        <time>2020-06-16T08:45:21.000Z</time>
      </trkpt>
      <trkpt lat="45.14796" lon="5.83884">
        <ele>604.12</ele>
        <time>2020-06-16T08:45:26.000Z</time>
      </trkpt>
      <trkpt lat="45.14777" lon="5.83889">
        <ele>607.81</ele>
        <time>2020-06-16T08:45:31.000Z</time>
      </trkpt>
      <trkpt lat="45.14757" lon="5.83893">
        <ele>603.98</ele>
        <time>2020-06-16T08:45:36.000Z</time>
      </trkpt>
      <trkpt lat="45.14733" lon="5.83898">
        <ele>606.79</ele>
        <time>2020-06-16T08:45:41.000Z</time>
      </trkpt>
      <trkpt lat="45.14709" lon="5.839">
        <ele>605.22</ele>
        <time>2020-06-16T08:45:46.000Z</time>
      </trkpt>
      <trkpt lat="45.14686" lon="5.83901">
        <ele>602.31</ele>
        <time>2020-06-16T08:45:51.000Z</time>
      </trkpt>
      <trkpt lat="45.14662" lon="5.83901">
        <ele>598.16</ele>
        <time>2020-06-16T08:45:56.000Z</time>
      </trkpt>
      <trkpt lat="45.14633" lon="5.83898">
        <ele>595.59</ele>
        <time>2020-06-16T08:46:01.000Z</time>
      </trkpt>
      <trkpt lat="45.14609" lon="5.83893">
        <ele>598.18</ele>
        <time>2020-06-16T08:46:06.000Z</time>
      </trkpt>
      <trkpt lat="45.14585" lon="5.83899">
        <ele>597.43</ele>
        <time>2020-06-16T08:46:11.000Z</time>
      </trkpt>
      <trkpt lat="45.1456" lon="5.83917">
        <ele>598.1</ele>
        <time>2020-06-16T08:46:16.000Z</time>
      </trkpt>
      <trkpt lat="45.14533" lon="5.83922">
        <ele>601.35</ele>
        <time>2020-06-16T08:46:21.000Z</time>
      </trkpt>
      <trkpt lat="45.14513" lon="5.83932">
        <ele>605.24</ele>
        <time>2020-06-16T08:46:26.000Z</time>
      </trkpt>
      <trkpt lat="45.14493" lon="5.83942">
        <ele>605.86</ele>
        <time>2020-06-16T08:46:31.000Z</time>
      </trkpt>
      <trkpt lat="45.14464" lon="5.8395">
        <ele>607.43</ele>
        <time>2020-06-16T08:46:36.000Z</time>
      </trkpt>
      <trkpt lat="45.14437" lon="5.83956">
        <ele>605.93</ele>
        <time>2020-06-16T08:46:41.000Z</time>
      </trkpt>
      <trkpt lat="45.14412" lon="5.83959">
        <ele>606.75</ele>
        <time>2020-06-16T08:46:46.000Z</time>
      </trkpt>
      <trkpt lat="45.14398" lon="5.83984">
        <ele>610.56</ele>
        <time>2020-06-16T08:46:51.000Z</time>
      </trkpt>
      <trkpt lat="45.14386" lon="5.84014">
        <ele>611.89</ele>
        <time>2020-06-16T08:46:56.000Z</time>
      </trkpt>
      <trkpt lat="45.14372" lon="5.84039">
        <ele>613.53</ele>
        <time>2020-06-16T08:47:01.000Z</time>
      </trkpt>
      <trkpt lat="45.14353" lon="5.84063">
        <ele>607.51</ele>
        <time>2020-06-16T08:47:06.000Z</time>
      </trkpt>
      <trkpt lat="45.14326" lon="5.84095">
        <ele>604.75</ele>
        <time>2020-06-16T08:47:11.000Z</time>
      </trkpt>
      <trkpt lat="45.14295" lon="5.84122">
        <ele>600.01</ele>
        <time>2020-06-16T08:47:16.000Z</time>
      </trkpt>
      <trkpt lat="45.14264" lon="5.84119">
        <ele>601.33</ele>
        <time>2020-06-16T08:47:21.000Z</time>
      </trkpt>
      <trkpt lat="45.14248" lon="5.84079">
        <ele>598.74</ele>
        <time>2020-06-16T08:47:26.000Z</time>
      </trkpt>
      <trkpt lat="45.1423" lon="5.8404">
        <ele>596.56</ele>
        <time>2020-06-16T08:47:31.000Z</time>
      </trkpt>
      <trkpt lat="45.14193" lon="5.84028">
        <ele>597.38</ele>
        <time>2020-06-16T08:47:36.000Z</time>
      </trkpt>
      <trkpt lat="45.14163" lon="5.8403">
        <ele>596.02</ele>
        <time>2020-06-16T08:47:41.000Z</time>
      </trkpt>
      <trkpt lat="45.14135" lon="5.84045">
        <ele>596.63</ele>
        <time>2020-06-16T08:47:46.000Z</time>
      </trkpt>
      <trkpt lat="45.1411" lon="5.84059">
        <ele>597.53</ele>
        <time>2020-06-16T08:47:51.000Z</time>
      </trkpt>
      <trkpt lat="45.14086" lon="5.84075">
        <ele>596.33</ele>
        <time>2020-06-16T08:47:56.000Z</time>
      </trkpt>
      <trkpt lat="45.14061" lon="5.84077">
        <ele>596.46</ele>
        <time>2020-06-16T08:48:01.000Z</time>
      </trkpt>
      <trkpt lat="45.14032" lon="5.84063">
        <ele>600.99</ele>
        <time>2020-06-16T08:48:06.000Z</time>
      </trkpt>
      <trkpt lat="45.14004" lon="5.84058">
        <ele>603.44</ele>
        <time>2020-06-16T08:48:11.000Z</time>
      </trkpt>
      <trkpt lat="45.13976" lon="5.8405">
        <ele>598.73</ele>
        <time>2020-06-16T08:48:16.000Z</time>
      </trkpt>
      <trkpt lat="45.13939" lon="5.84028">
        <ele>593.95</ele>
        <time>2020-06-16T08:48:21.000Z</time>
      </trkpt>
      <trkpt lat="45.13902" lon="5.84003">
        <ele>595.12</ele>
        <time>2020-06-16T08:48:26.000Z</time>
      </trkpt>
      <trkpt lat="45.13859" lon="5.83992">
        <ele>597.88</ele>
        <time>2020-06-16T08:48:31.000Z</time>
      </trkpt>
      <trkpt lat="45.13831" lon="5.83976">
        <ele>594.96</ele>
        <time>2020-06-16T08:48:36.000Z</time>
      </trkpt>
      <trkpt lat="45.13804" lon="5.83958">
        <ele>589.22</ele>
        <time>2020-06-16T08:48:41.000Z</time>
      </trkpt>
      <trkpt lat="45.13776" lon="5.83939">
        <ele>584.51</ele>
        <time>2020-06-16T08:48:46.000Z</time>
      </trkpt>
      <trkpt lat="45.13753" lon="5.83921">
        <ele>586.04</ele>
        <time>2020-06-16T08:48:51.000Z</time>
      </trkpt>
      <trkpt lat="45.13722" lon="5.83894">
        <ele>581.79</ele>
        <time>2020-06-16T08:48:56.000Z</time>
      </trkpt>
      <trkpt lat="45.13693" lon="5.8387">
        <ele>579.84</ele>
        <time>2020-06-16T08:49:01.000Z</time>
      </trkpt>
      <trkpt lat="45.1367" lon="5.83841">
        <ele>578.81</ele>
        <time>2020-06-16T08:49:06.000Z</time>
      </trkpt>
      <trkpt lat="45.13649" lon="5.83802">
        <ele>578.88</ele>
        <time>2020-06-16T08:49:11.000Z</time>
      </trkpt>
      <trkpt lat="45.1362" lon="5.83767">
        <ele>573.69</ele>
        <time>2020-06-16T08:49:16.000Z</time>
      </trkpt>
      <trkpt lat="45.13603" lon="5.83728">
        <ele>566.39</ele>
        <time>2020-06-16T08:49:21.000Z</time>
      </trkpt>
      <trkpt lat="45.13585" lon="5.8369">
        <ele>563.52</ele>
        <time>2020-06-16T08:49:26.000Z</time>
      </trkpt>
      <trkpt lat="45.13567" lon="5.83648">
        <ele>563.64</ele>
        <time>2020-06-16T08:49:31.000Z</time>
      </trkpt>
      <trkpt lat="45.13559" lon="5.83639">
        <ele>560.61</ele>
        <time>2020-06-16T08:49:40.000Z</time>
      </trkpt>
      <trkpt lat="45.13547" lon="5.83638">
        <ele>562.69</ele>
        <time>2020-06-16T08:49:45.000Z</time>
      </trkpt>
      <trkpt lat="45.13533" lon="5.83631">
        <ele>562.36</ele>
        <time>2020-06-16T08:49:50.000Z</time>
      </trkpt>
      <trkpt lat="45.13519" lon="5.83622">
        <ele>562.04</ele>
        <time>2020-06-16T08:49:55.000Z</time>
      </trkpt>
      <trkpt lat="45.13502" lon="5.8361">
        <ele>558.64</ele>
        <time>2020-06-16T08:50:00.000Z</time>
      </trkpt>
      <trkpt lat="45.13483" lon="5.836">
        <ele>558.82</ele>
        <time>2020-06-16T08:50:05.000Z</time>
      </trkpt>
      <trkpt lat="45.13465" lon="5.83593">
        <ele>559.95</ele>
        <time>2020-06-16T08:50:10.000Z</time>
      </trkpt>
      <trkpt lat="45.13448" lon="5.8359">
        <ele>561.39</ele>
        <time>2020-06-16T08:50:15.000Z</time>
      </trkpt>
      <trkpt lat="45.13422" lon="5.83583">
        <ele>563.5</ele>
        <time>2020-06-16T08:50:20.000Z</time>
      </trkpt>
      <trkpt lat="45.13413" lon="5.83578">
        <ele>559.19</ele>
        <time>2020-06-16T08:50:25.000Z</time>
      </trkpt>
      <trkpt lat="45.13396" lon="5.83572">
        <ele>557.16</ele>
        <time>2020-06-16T08:50:30.000Z</time>
      </trkpt>
      <trkpt lat="45.13357" lon="5.83574">
        <ele>552.88</ele>
        <time>2020-06-16T08:50:35.000Z</time>
      </trkpt>
      <trkpt lat="45.13333" lon="5.83563">
        <ele>554.29</ele>
        <time>2020-06-16T08:50:40.000Z</time>
      </trkpt>
      <trkpt lat="45.13347" lon="5.83542">
        <ele>552.39</ele>
        <time>2020-06-16T08:50:45.000Z</time>
      </trkpt>
      <trkpt lat="45.13372" lon="5.83539">
        <ele>548.53</ele>
        <time>2020-06-16T08:50:50.000Z</time>
      </trkpt>
      <trkpt lat="45.13401" lon="5.83521">
        <ele>547.57</ele>
        <time>2020-06-16T08:50:55.000Z</time>
      </trkpt>
      <trkpt lat="45.1342" lon="5.83502">
        <ele>546.15</ele>
        <time>2020-06-16T08:51:00.000Z</time>
      </trkpt>
      <trkpt lat="45.13438" lon="5.8348">
        <ele>542.95</ele>
        <time>2020-06-16T08:51:05.000Z</time>
      </trkpt>
      <trkpt lat="45.13458" lon="5.83454">
        <ele>542.26</ele>
        <time>2020-06-16T08:51:10.000Z</time>
      </trkpt>
      <trkpt lat="45.13475" lon="5.83425">
        <ele>545.61</ele>
        <time>2020-06-16T08:51:15.000Z</time>
      </trkpt>
      <trkpt lat="45.13503" lon="5.83405">
        <ele>543.53</ele>
        <time>2020-06-16T08:51:20.000Z</time>
      </trkpt>
      <trkpt lat="45.13522" lon="5.83384">
        <ele>544.58</ele>
        <time>2020-06-16T08:51:25.000Z</time>
      </trkpt>
      <trkpt lat="45.13545" lon="5.83369">
        <ele>538.42</ele>
        <time>2020-06-16T08:51:30.000Z</time>
      </trkpt>
      <trkpt lat="45.13554" lon="5.83356">
        <ele>533.62</ele>
        <time>2020-06-16T08:51:35.000Z</time>
      </trkpt>
      <trkpt lat="45.13552" lon="5.83338">
        <ele>530.46</ele>
        <time>2020-06-16T08:51:40.000Z</time>
      </trkpt>
      <trkpt lat="45.13534" lon="5.83333">
        <ele>528.97</ele>
        <time>2020-06-16T08:51:45.000Z</time>
      </trkpt>
      <trkpt lat="45.13513" lon="5.83338">
        <ele>527.62</ele>
        <time>2020-06-16T08:51:50.000Z</time>
      </trkpt>
      <trkpt lat="45.13496" lon="5.8334">
        <ele>526.84</ele>
        <time>2020-06-16T08:51:55.000Z</time>
      </trkpt>
      <trkpt lat="45.13473" lon="5.83325">
        <ele>520.73</ele>
        <time>2020-06-16T08:52:00.000Z</time>
      </trkpt>
      <trkpt lat="45.13446" lon="5.83311">
        <ele>519.98</ele>
        <time>2020-06-16T08:52:05.000Z</time>
      </trkpt>
      <trkpt lat="45.13431" lon="5.83282">
        <ele>518.91</ele>
        <time>2020-06-16T08:52:10.000Z</time>
      </trkpt>
      <trkpt lat="45.1343" lon="5.83255">
        <ele>517.4</ele>
        <time>2020-06-16T08:52:15.000Z</time>
      </trkpt>
      <trkpt lat="45.13418" lon="5.83228">
        <ele>514.99</ele>
        <time>2020-06-16T08:52:20.000Z</time>
      </trkpt>
      <trkpt lat="45.13395" lon="5.83218">
        <ele>513</ele>
        <time>2020-06-16T08:52:25.000Z</time>
      </trkpt>
      <trkpt lat="45.1338" lon="5.83207">
        <ele>510.71</ele>
        <time>2020-06-16T08:52:30.000Z</time>
      </trkpt>
      <trkpt lat="45.13363" lon="5.83192">
        <ele>511.79</ele>
        <time>2020-06-16T08:52:35.000Z</time>
      </trkpt>
      <trkpt lat="45.13348" lon="5.83185">
        <ele>516.77</ele>
        <time>2020-06-16T08:52:40.000Z</time>
      </trkpt>
      <trkpt lat="45.13326" lon="5.83196">
        <ele>520.91</ele>
        <time>2020-06-16T08:52:45.000Z</time>
      </trkpt>
      <trkpt lat="45.13305" lon="5.83206">
        <ele>523.15</ele>
        <time>2020-06-16T08:52:50.000Z</time>
      </trkpt>
      <trkpt lat="45.13282" lon="5.83223">
        <ele>524.7</ele>
        <time>2020-06-16T08:52:55.000Z</time>
      </trkpt>
      <trkpt lat="45.13264" lon="5.83229">
        <ele>523.92</ele>
        <time>2020-06-16T08:53:00.000Z</time>
      </trkpt>
      <trkpt lat="45.13248" lon="5.83232">
        <ele>524.39</ele>
        <time>2020-06-16T08:53:05.000Z</time>
      </trkpt>
      <trkpt lat="45.13237" lon="5.8323">
        <ele>528.91</ele>
        <time>2020-06-16T08:53:10.000Z</time>
      </trkpt>
      <trkpt lat="45.13229" lon="5.83221">
        <ele>521.46</ele>
        <time>2020-06-16T08:53:32.000Z</time>
      </trkpt>
      <trkpt lat="45.13215" lon="5.8319">
        <ele>519.83</ele>
        <time>2020-06-16T08:53:37.000Z</time>
      </trkpt>
      <trkpt lat="45.13205" lon="5.83166">
        <ele>514.41</ele>
        <time>2020-06-16T08:53:42.000Z</time>
      </trkpt>
      <trkpt lat="45.13194" lon="5.83152">
        <ele>513.7</ele>
        <time>2020-06-16T08:53:47.000Z</time>
      </trkpt>
      <trkpt lat="45.13172" lon="5.83121">
        <ele>510.12</ele>
        <time>2020-06-16T08:53:52.000Z</time>
      </trkpt>
      <trkpt lat="45.13153" lon="5.83094">
        <ele>516.44</ele>
        <time>2020-06-16T08:53:57.000Z</time>
      </trkpt>
      <trkpt lat="45.13139" lon="5.83068">
        <ele>516.89</ele>
        <time>2020-06-16T08:54:02.000Z</time>
      </trkpt>
      <trkpt lat="45.1312" lon="5.83046">
        <ele>518.98</ele>
        <time>2020-06-16T08:54:07.000Z</time>
      </trkpt>
      <trkpt lat="45.13103" lon="5.83028">
        <ele>520.03</ele>
        <time>2020-06-16T08:54:12.000Z</time>
      </trkpt>
      <trkpt lat="45.13096" lon="5.83015">
        <ele>516.43</ele>
        <time>2020-06-16T08:54:19.000Z</time>
      </trkpt>
      <trkpt lat="45.13092" lon="5.82993">
        <ele>510.71</ele>
        <time>2020-06-16T08:54:24.000Z</time>
      </trkpt>
      <trkpt lat="45.1309" lon="5.82979">
        <ele>509.97</ele>
        <time>2020-06-16T08:54:29.000Z</time>
      </trkpt>
      <trkpt lat="45.13086" lon="5.82963">
        <ele>509.43</ele>
        <time>2020-06-16T08:54:41.000Z</time>
      </trkpt>
      <trkpt lat="45.1307" lon="5.82946">
        <ele>510.65</ele>
        <time>2020-06-16T08:54:46.000Z</time>
      </trkpt>
      <trkpt lat="45.13047" lon="5.82939">
        <ele>505.28</ele>
        <time>2020-06-16T08:54:51.000Z</time>
      </trkpt>
      <trkpt lat="45.13022" lon="5.82915">
        <ele>504.18</ele>
        <time>2020-06-16T08:54:56.000Z</time>
      </trkpt>
      <trkpt lat="45.1299" lon="5.82889">
        <ele>501.48</ele>
        <time>2020-06-16T08:55:01.000Z</time>
      </trkpt>
      <trkpt lat="45.12971" lon="5.82864">
        <ele>497.12</ele>
        <time>2020-06-16T08:55:06.000Z</time>
      </trkpt>
      <trkpt lat="45.12957" lon="5.82839">
        <ele>495.64</ele>
        <time>2020-06-16T08:55:11.000Z</time>
      </trkpt>
      <trkpt lat="45.12953" lon="5.82825">
        <ele>492.36</ele>
        <time>2020-06-16T08:55:16.000Z</time>
      </trkpt>
      <trkpt lat="45.12969" lon="5.82816">
        <ele>487.65</ele>
        <time>2020-06-16T08:55:21.000Z</time>
      </trkpt>
      <trkpt lat="45.12989" lon="5.82803">
        <ele>487.58</ele>
        <time>2020-06-16T08:55:26.000Z</time>
      </trkpt>
      <trkpt lat="45.13011" lon="5.82784">
        <ele>485.12</ele>
        <time>2020-06-16T08:55:31.000Z</time>
      </trkpt>
      <trkpt lat="45.13028" lon="5.8276">
        <ele>482.12</ele>
        <time>2020-06-16T08:55:36.000Z</time>
      </trkpt>
      <trkpt lat="45.13044" lon="5.82739">
        <ele>479.71</ele>
        <time>2020-06-16T08:55:41.000Z</time>
      </trkpt>
      <trkpt lat="45.13069" lon="5.8272">
        <ele>477.91</ele>
        <time>2020-06-16T08:55:46.000Z</time>
      </trkpt>
      <trkpt lat="45.13094" lon="5.82696">
        <ele>472.85</ele>
        <time>2020-06-16T08:55:51.000Z</time>
      </trkpt>
      <trkpt lat="45.13112" lon="5.82679">
        <ele>469.4</ele>
        <time>2020-06-16T08:55:56.000Z</time>
      </trkpt>
      <trkpt lat="45.13135" lon="5.82651">
        <ele>465.08</ele>
        <time>2020-06-16T08:56:01.000Z</time>
      </trkpt>
      <trkpt lat="45.1315" lon="5.82627">
        <ele>462.43</ele>
        <time>2020-06-16T08:56:06.000Z</time>
      </trkpt>
      <trkpt lat="45.13159" lon="5.82618">
        <ele>460.73</ele>
        <time>2020-06-16T08:56:11.000Z</time>
      </trkpt>
      <trkpt lat="45.13168" lon="5.82625">
        <ele>459.13</ele>
        <time>2020-06-16T08:56:32.000Z</time>
      </trkpt>
      <trkpt lat="45.13187" lon="5.82639">
        <ele>454.33</ele>
        <time>2020-06-16T08:56:37.000Z</time>
      </trkpt>
      <trkpt lat="45.13208" lon="5.82655">
        <ele>450</ele>
        <time>2020-06-16T08:56:42.000Z</time>
      </trkpt>
      <trkpt lat="45.13226" lon="5.82673">
        <ele>448.75</ele>
        <time>2020-06-16T08:56:47.000Z</time>
      </trkpt>
      <trkpt lat="45.13244" lon="5.82698">
        <ele>449.69</ele>
        <time>2020-06-16T08:56:52.000Z</time>
      </trkpt>
      <trkpt lat="45.13264" lon="5.82713">
        <ele>453.63</ele>
        <time>2020-06-16T08:56:57.000Z</time>
      </trkpt>
      <trkpt lat="45.13277" lon="5.82711">
        <ele>453.34</ele>
        <time>2020-06-16T08:57:02.000Z</time>
      </trkpt>
      <trkpt lat="45.13293" lon="5.82701">
        <ele>454.38</ele>
        <time>2020-06-16T08:57:07.000Z</time>
      </trkpt>
      <trkpt lat="45.13306" lon="5.82691">
        <ele>455.51</ele>
        <time>2020-06-16T08:57:12.000Z</time>
      </trkpt>
      <trkpt lat="45.13321" lon="5.82679">
        <ele>452.98</ele>
        <time>2020-06-16T08:57:17.000Z</time>
      </trkpt>
      <trkpt lat="45.13342" lon="5.8266">
        <ele>448</ele>
        <time>2020-06-16T08:57:22.000Z</time>
      </trkpt>
      <trkpt lat="45.1336" lon="5.82643">
        <ele>443.73</ele>
        <time>2020-06-16T08:57:27.000Z</time>
      </trkpt>
      <trkpt lat="45.13369" lon="5.82634">
        <ele>444.52</ele>
        <time>2020-06-16T08:57:32.000Z</time>
      </trkpt>
      <trkpt lat="45.13389" lon="5.82619">
        <ele>439.26</ele>
        <time>2020-06-16T08:57:37.000Z</time>
      </trkpt>
      <trkpt lat="45.13407" lon="5.82601">
        <ele>438.09</ele>
        <time>2020-06-16T08:57:42.000Z</time>
      </trkpt>
      <trkpt lat="45.1342" lon="5.82597">
        <ele>439.99</ele>
        <time>2020-06-16T08:57:47.000Z</time>
      </trkpt>
      <trkpt lat="45.13439" lon="5.82593">
        <ele>439.88</ele>
        <time>2020-06-16T08:57:52.000Z</time>
      </trkpt>
      <trkpt lat="45.13465" lon="5.82577">
        <ele>438.75</ele>
        <time>2020-06-16T08:57:57.000Z</time>
      </trkpt>
      <trkpt lat="45.13481" lon="5.82566">
        <ele>437.39</ele>
        <time>2020-06-16T08:58:02.000Z</time>
      </trkpt>
      <trkpt lat="45.13497" lon="5.82555">
        <ele>434.07</ele>
        <time>2020-06-16T08:58:07.000Z</time>
      </trkpt>
      <trkpt lat="45.1351" lon="5.82547">
        <ele>432.14</ele>
        <time>2020-06-16T08:58:12.000Z</time>
      </trkpt>
      <trkpt lat="45.13524" lon="5.82542">
        <ele>432.99</ele>
        <time>2020-06-16T08:58:17.000Z</time>
      </trkpt>
      <trkpt lat="45.13537" lon="5.82534">
        <ele>432.2</ele>
        <time>2020-06-16T08:58:22.000Z</time>
      </trkpt>
      <trkpt lat="45.13552" lon="5.82523">
        <ele>431.38</ele>
        <time>2020-06-16T08:58:27.000Z</time>
      </trkpt>
      <trkpt lat="45.13569" lon="5.8251">
        <ele>429.14</ele>
        <time>2020-06-16T08:58:32.000Z</time>
      </trkpt>
      <trkpt lat="45.13581" lon="5.82497">
        <ele>432.87</ele>
        <time>2020-06-16T08:58:37.000Z</time>
      </trkpt>
      <trkpt lat="45.13596" lon="5.82497">
        <ele>431.36</ele>
        <time>2020-06-16T08:58:42.000Z</time>
      </trkpt>
      <trkpt lat="45.13611" lon="5.8248">
        <ele>429.18</ele>
        <time>2020-06-16T08:58:47.000Z</time>
      </trkpt>
      <trkpt lat="45.13637" lon="5.82467">
        <ele>429.6</ele>
        <time>2020-06-16T08:58:52.000Z</time>
      </trkpt>
      <trkpt lat="45.13654" lon="5.82468">
        <ele>431.25</ele>
        <time>2020-06-16T08:58:57.000Z</time>
      </trkpt>
      <trkpt lat="45.13662" lon="5.82473">
        <ele>427.44</ele>
        <time>2020-06-16T08:59:06.000Z</time>
      </trkpt>
      <trkpt lat="45.13667" lon="5.82487">
        <ele>416.48</ele>
        <time>2020-06-16T09:02:50.000Z</time>
      </trkpt>
      <trkpt lat="45.13685" lon="5.82503">
        <ele>413.75</ele>
        <time>2020-06-16T09:02:55.000Z</time>
      </trkpt>
      <trkpt lat="45.13703" lon="5.82518">
        <ele>415.26</ele>
        <time>2020-06-16T09:03:00.000Z</time>
      </trkpt>
      <trkpt lat="45.13721" lon="5.82535">
        <ele>412.36</ele>
        <time>2020-06-16T09:03:05.000Z</time>
      </trkpt>
      <trkpt lat="45.13737" lon="5.82551">
        <ele>415.22</ele>
        <time>2020-06-16T09:03:10.000Z</time>
      </trkpt>
      <trkpt lat="45.13751" lon="5.82568">
        <ele>414.96</ele>
        <time>2020-06-16T09:03:15.000Z</time>
      </trkpt>
      <trkpt lat="45.13768" lon="5.82584">
        <ele>413.53</ele>
        <time>2020-06-16T09:03:20.000Z</time>
      </trkpt>
      <trkpt lat="45.13786" lon="5.82599">
        <ele>416.23</ele>
        <time>2020-06-16T09:03:25.000Z</time>
      </trkpt>
      <trkpt lat="45.13804" lon="5.82612">
        <ele>415.46</ele>
        <time>2020-06-16T09:03:30.000Z</time>
      </trkpt>
      <trkpt lat="45.13823" lon="5.82628">
        <ele>413.26</ele>
        <time>2020-06-16T09:03:35.000Z</time>
      </trkpt>
      <trkpt lat="45.1384" lon="5.82647">
        <ele>410.33</ele>
        <time>2020-06-16T09:03:40.000Z</time>
      </trkpt>
      <trkpt lat="45.13857" lon="5.82664">
        <ele>410.78</ele>
        <time>2020-06-16T09:03:45.000Z</time>
      </trkpt>
      <trkpt lat="45.13875" lon="5.82685">
        <ele>411.41</ele>
        <time>2020-06-16T09:03:50.000Z</time>
      </trkpt>
      <trkpt lat="45.13896" lon="5.827">
        <ele>413.35</ele>
        <time>2020-06-16T09:03:55.000Z</time>
      </trkpt>
      <trkpt lat="45.13912" lon="5.82715">
        <ele>410.46</ele>
        <time>2020-06-16T09:04:00.000Z</time>
      </trkpt>
      <trkpt lat="45.13924" lon="5.82726">
        <ele>411.1</ele>
        <time>2020-06-16T09:04:05.000Z</time>
      </trkpt>
      <trkpt lat="45.13933" lon="5.82728">
        <ele>411.58</ele>
        <time>2020-06-16T09:04:10.000Z</time>
      </trkpt>
      <trkpt lat="45.13945" lon="5.82744">
        <ele>413.06</ele>
        <time>2020-06-16T09:04:15.000Z</time>
      </trkpt>
      <trkpt lat="45.13949" lon="5.82772">
        <ele>417.11</ele>
        <time>2020-06-16T09:04:20.000Z</time>
      </trkpt>
      <trkpt lat="45.13966" lon="5.82781">
        <ele>417.14</ele>
        <time>2020-06-16T09:04:25.000Z</time>
      </trkpt>
      <trkpt lat="45.13976" lon="5.8274">
        <ele>415.85</ele>
        <time>2020-06-16T09:04:30.000Z</time>
      </trkpt>
      <trkpt lat="45.13984" lon="5.82719">
        <ele>415.56</ele>
        <time>2020-06-16T09:04:35.000Z</time>
      </trkpt>
      <trkpt lat="45.13991" lon="5.82702">
        <ele>413.89</ele>
        <time>2020-06-16T09:04:40.000Z</time>
      </trkpt>
      <trkpt lat="45.14001" lon="5.82684">
        <ele>413.26</ele>
        <time>2020-06-16T09:04:45.000Z</time>
      </trkpt>
      <trkpt lat="45.14012" lon="5.82669">
        <ele>415.43</ele>
        <time>2020-06-16T09:04:50.000Z</time>
      </trkpt>
      <trkpt lat="45.14025" lon="5.82656">
        <ele>420.15</ele>
        <time>2020-06-16T09:04:55.000Z</time>
      </trkpt>
      <trkpt lat="45.14039" lon="5.82656">
        <ele>420.53</ele>
        <time>2020-06-16T09:05:00.000Z</time>
      </trkpt>
      <trkpt lat="45.14054" lon="5.82659">
        <ele>420.69</ele>
        <time>2020-06-16T09:05:05.000Z</time>
      </trkpt>
      <trkpt lat="45.14064" lon="5.82669">
        <ele>424.22</ele>
        <time>2020-06-16T09:05:10.000Z</time>
      </trkpt>
      <trkpt lat="45.14071" lon="5.82687">
        <ele>426.68</ele>
        <time>2020-06-16T09:05:15.000Z</time>
      </trkpt>
      <trkpt lat="45.14082" lon="5.82704">
        <ele>429.08</ele>
        <time>2020-06-16T09:05:20.000Z</time>
      </trkpt>
      <trkpt lat="45.1409" lon="5.82724">
        <ele>432.23</ele>
        <time>2020-06-16T09:05:25.000Z</time>
      </trkpt>
      <trkpt lat="45.14095" lon="5.82747">
        <ele>435.64</ele>
        <time>2020-06-16T09:05:30.000Z</time>
      </trkpt>
      <trkpt lat="45.14104" lon="5.82766">
        <ele>436.18</ele>
        <time>2020-06-16T09:05:35.000Z</time>
      </trkpt>
      <trkpt lat="45.14112" lon="5.82783">
        <ele>442.54</ele>
        <time>2020-06-16T09:05:40.000Z</time>
      </trkpt>
      <trkpt lat="45.14124" lon="5.82786">
        <ele>442.79</ele>
        <time>2020-06-16T09:05:45.000Z</time>
      </trkpt>
      <trkpt lat="45.14126" lon="5.82768">
        <ele>442.34</ele>
        <time>2020-06-16T09:05:50.000Z</time>
      </trkpt>
      <trkpt lat="45.14116" lon="5.82753">
        <ele>441.45</ele>
        <time>2020-06-16T09:05:55.000Z</time>
      </trkpt>
      <trkpt lat="45.14105" lon="5.82739">
        <ele>442.51</ele>
        <time>2020-06-16T09:06:00.000Z</time>
      </trkpt>
      <trkpt lat="45.14112" lon="5.82719">
        <ele>445.68</ele>
        <time>2020-06-16T09:06:05.000Z</time>
      </trkpt>
      <trkpt lat="45.14129" lon="5.8272">
        <ele>447.09</ele>
        <time>2020-06-16T09:06:10.000Z</time>
      </trkpt>
      <trkpt lat="45.14142" lon="5.82729">
        <ele>451.25</ele>
        <time>2020-06-16T09:06:15.000Z</time>
      </trkpt>
      <trkpt lat="45.14152" lon="5.82739">
        <ele>457.28</ele>
        <time>2020-06-16T09:06:20.000Z</time>
      </trkpt>
      <trkpt lat="45.14166" lon="5.82749">
        <ele>455.61</ele>
        <time>2020-06-16T09:06:25.000Z</time>
      </trkpt>
      <trkpt lat="45.14181" lon="5.82758">
        <ele>455.09</ele>
        <time>2020-06-16T09:06:30.000Z</time>
      </trkpt>
      <trkpt lat="45.14197" lon="5.82765">
        <ele>453.19</ele>
        <time>2020-06-16T09:06:35.000Z</time>
      </trkpt>
      <trkpt lat="45.14211" lon="5.82772">
        <ele>455.44</ele>
        <time>2020-06-16T09:06:40.000Z</time>
      </trkpt>
      <trkpt lat="45.14222" lon="5.82779">
        <ele>456.54</ele>
        <time>2020-06-16T09:06:45.000Z</time>
      </trkpt>
      <trkpt lat="45.14233" lon="5.82791">
        <ele>462.05</ele>
        <time>2020-06-16T09:06:50.000Z</time>
      </trkpt>
      <trkpt lat="45.14247" lon="5.82798">
        <ele>463.63</ele>
        <time>2020-06-16T09:06:55.000Z</time>
      </trkpt>
      <trkpt lat="45.14264" lon="5.82801">
        <ele>464.72</ele>
        <time>2020-06-16T09:07:00.000Z</time>
      </trkpt>
      <trkpt lat="45.14283" lon="5.82799">
        <ele>466.99</ele>
        <time>2020-06-16T09:07:05.000Z</time>
      </trkpt>
      <trkpt lat="45.14298" lon="5.82794">
        <ele>465.57</ele>
        <time>2020-06-16T09:07:10.000Z</time>
      </trkpt>
      <trkpt lat="45.14314" lon="5.8279">
        <ele>465.36</ele>
        <time>2020-06-16T09:07:15.000Z</time>
      </trkpt>
      <trkpt lat="45.14326" lon="5.82785">
        <ele>468.39</ele>
        <time>2020-06-16T09:07:20.000Z</time>
      </trkpt>
      <trkpt lat="45.14339" lon="5.8278">
        <ele>472.72</ele>
        <time>2020-06-16T09:07:25.000Z</time>
      </trkpt>
      <trkpt lat="45.14355" lon="5.82773">
        <ele>475.19</ele>
        <time>2020-06-16T09:07:30.000Z</time>
      </trkpt>
      <trkpt lat="45.14371" lon="5.82765">
        <ele>475.04</ele>
        <time>2020-06-16T09:07:35.000Z</time>
      </trkpt>
      <trkpt lat="45.14387" lon="5.82755">
        <ele>476.4</ele>
        <time>2020-06-16T09:07:40.000Z</time>
      </trkpt>
      <trkpt lat="45.14405" lon="5.82748">
        <ele>475.65</ele>
        <time>2020-06-16T09:07:45.000Z</time>
      </trkpt>
      <trkpt lat="45.14423" lon="5.82741">
        <ele>477.01</ele>
        <time>2020-06-16T09:07:50.000Z</time>
      </trkpt>
      <trkpt lat="45.14441" lon="5.82727">
        <ele>480.26</ele>
        <time>2020-06-16T09:07:55.000Z</time>
      </trkpt>
      <trkpt lat="45.14455" lon="5.82716">
        <ele>481.64</ele>
        <time>2020-06-16T09:08:00.000Z</time>
      </trkpt>
      <trkpt lat="45.14468" lon="5.82703">
        <ele>486.08</ele>
        <time>2020-06-16T09:08:05.000Z</time>
      </trkpt>
      <trkpt lat="45.14475" lon="5.82693">
        <ele>491.69</ele>
        <time>2020-06-16T09:08:10.000Z</time>
      </trkpt>
      <trkpt lat="45.14484" lon="5.82678">
        <ele>491.54</ele>
        <time>2020-06-16T09:08:15.000Z</time>
      </trkpt>
      <trkpt lat="45.14497" lon="5.82659">
        <ele>493.16</ele>
        <time>2020-06-16T09:08:20.000Z</time>
      </trkpt>
      <trkpt lat="45.14512" lon="5.82644">
        <ele>494.85</ele>
        <time>2020-06-16T09:08:25.000Z</time>
      </trkpt>
      <trkpt lat="45.14525" lon="5.82632">
        <ele>498.53</ele>
        <time>2020-06-16T09:08:30.000Z</time>
      </trkpt>
      <trkpt lat="45.14542" lon="5.8262">
        <ele>500.31</ele>
        <time>2020-06-16T09:08:35.000Z</time>
      </trkpt>
      <trkpt lat="45.14556" lon="5.82602">
        <ele>505.97</ele>
        <time>2020-06-16T09:08:40.000Z</time>
      </trkpt>
      <trkpt lat="45.14566" lon="5.82583">
        <ele>510.66</ele>
        <time>2020-06-16T09:08:45.000Z</time>
      </trkpt>
      <trkpt lat="45.14576" lon="5.82567">
        <ele>512.9</ele>
        <time>2020-06-16T09:08:50.000Z</time>
      </trkpt>
      <trkpt lat="45.14587" lon="5.82547">
        <ele>513.72</ele>
        <time>2020-06-16T09:08:55.000Z</time>
      </trkpt>
      <trkpt lat="45.14594" lon="5.82526">
        <ele>514.16</ele>
        <time>2020-06-16T09:09:00.000Z</time>
      </trkpt>
      <trkpt lat="45.14602" lon="5.82503">
        <ele>515.7</ele>
        <time>2020-06-16T09:09:05.000Z</time>
      </trkpt>
      <trkpt lat="45.14609" lon="5.82478">
        <ele>516.31</ele>
        <time>2020-06-16T09:09:10.000Z</time>
      </trkpt>
      <trkpt lat="45.1461" lon="5.82452">
        <ele>517.72</ele>
        <time>2020-06-16T09:09:15.000Z</time>
      </trkpt>
      <trkpt lat="45.14606" lon="5.82426">
        <ele>519.14</ele>
        <time>2020-06-16T09:09:20.000Z</time>
      </trkpt>
      <trkpt lat="45.14596" lon="5.82399">
        <ele>517.82</ele>
        <time>2020-06-16T09:09:25.000Z</time>
      </trkpt>
      <trkpt lat="45.14583" lon="5.82378">
        <ele>519.25</ele>
        <time>2020-06-16T09:09:30.000Z</time>
      </trkpt>
      <trkpt lat="45.14578" lon="5.82352">
        <ele>519.61</ele>
        <time>2020-06-16T09:09:35.000Z</time>
      </trkpt>
      <trkpt lat="45.14588" lon="5.8233">
        <ele>521.14</ele>
        <time>2020-06-16T09:09:40.000Z</time>
      </trkpt>
      <trkpt lat="45.14605" lon="5.82322">
        <ele>521.17</ele>
        <time>2020-06-16T09:09:45.000Z</time>
      </trkpt>
      <trkpt lat="45.14597" lon="5.82328">
        <ele>524.66</ele>
        <time>2020-06-16T09:10:06.000Z</time>
      </trkpt>
      <trkpt lat="45.14588" lon="5.82333">
        <ele>524.01</ele>
        <time>2020-06-16T09:10:11.000Z</time>
      </trkpt>
      <trkpt lat="45.14581" lon="5.82344">
        <ele>526.03</ele>
        <time>2020-06-16T09:10:17.000Z</time>
      </trkpt>
      <trkpt lat="45.14588" lon="5.82334">
        <ele>526.46</ele>
        <time>2020-06-16T09:10:32.000Z</time>
      </trkpt>
      <trkpt lat="45.14598" lon="5.82327">
        <ele>524.4</ele>
        <time>2020-06-16T09:10:37.000Z</time>
      </trkpt>
      <trkpt lat="45.14612" lon="5.8232">
        <ele>525.71</ele>
        <time>2020-06-16T09:10:42.000Z</time>
      </trkpt>
      <trkpt lat="45.14624" lon="5.82302">
        <ele>521.48</ele>
        <time>2020-06-16T09:10:47.000Z</time>
      </trkpt>
      <trkpt lat="45.14627" lon="5.82276">
        <ele>519.97</ele>
        <time>2020-06-16T09:10:52.000Z</time>
      </trkpt>
      <trkpt lat="45.14632" lon="5.82251">
        <ele>522.45</ele>
        <time>2020-06-16T09:10:57.000Z</time>
      </trkpt>
      <trkpt lat="45.14638" lon="5.82227">
        <ele>523.99</ele>
        <time>2020-06-16T09:11:02.000Z</time>
      </trkpt>
      <trkpt lat="45.14644" lon="5.82202">
        <ele>525.51</ele>
        <time>2020-06-16T09:11:07.000Z</time>
      </trkpt>
      <trkpt lat="45.1465" lon="5.82177">
        <ele>526.43</ele>
        <time>2020-06-16T09:11:12.000Z</time>
      </trkpt>
      <trkpt lat="45.14655" lon="5.82155">
        <ele>526.89</ele>
        <time>2020-06-16T09:11:17.000Z</time>
      </trkpt>
      <trkpt lat="45.14662" lon="5.82129">
        <ele>528.95</ele>
        <time>2020-06-16T09:11:22.000Z</time>
      </trkpt>
      <trkpt lat="45.14668" lon="5.82101">
        <ele>528.75</ele>
        <time>2020-06-16T09:11:27.000Z</time>
      </trkpt>
      <trkpt lat="45.14674" lon="5.82073">
        <ele>526.62</ele>
        <time>2020-06-16T09:11:32.000Z</time>
      </trkpt>
      <trkpt lat="45.14683" lon="5.82047">
        <ele>530.12</ele>
        <time>2020-06-16T09:11:37.000Z</time>
      </trkpt>
      <trkpt lat="45.14691" lon="5.82028">
        <ele>531.63</ele>
        <time>2020-06-16T09:11:42.000Z</time>
      </trkpt>
      <trkpt lat="45.14701" lon="5.82004">
        <ele>533.68</ele>
        <time>2020-06-16T09:11:47.000Z</time>
      </trkpt>
      <trkpt lat="45.14715" lon="5.81986">
        <ele>535.93</ele>
        <time>2020-06-16T09:11:52.000Z</time>
      </trkpt>
      <trkpt lat="45.14732" lon="5.81968">
        <ele>534.75</ele>
        <time>2020-06-16T09:11:57.000Z</time>
      </trkpt>
      <trkpt lat="45.14751" lon="5.81954">
        <ele>538.04</ele>
        <time>2020-06-16T09:12:02.000Z</time>
      </trkpt>
      <trkpt lat="45.14772" lon="5.81948">
        <ele>538.42</ele>
        <time>2020-06-16T09:12:07.000Z</time>
      </trkpt>
      <trkpt lat="45.14788" lon="5.81937">
        <ele>543.29</ele>
        <time>2020-06-16T09:12:12.000Z</time>
      </trkpt>
      <trkpt lat="45.14774" lon="5.81921">
        <ele>544.55</ele>
        <time>2020-06-16T09:12:17.000Z</time>
      </trkpt>
      <trkpt lat="45.14756" lon="5.81911">
        <ele>543.69</ele>
        <time>2020-06-16T09:12:22.000Z</time>
      </trkpt>
      <trkpt lat="45.14738" lon="5.81903">
        <ele>546.2</ele>
        <time>2020-06-16T09:12:27.000Z</time>
      </trkpt>
      <trkpt lat="45.14723" lon="5.81889">
        <ele>550.24</ele>
        <time>2020-06-16T09:12:32.000Z</time>
      </trkpt>
      <trkpt lat="45.14722" lon="5.81867">
        <ele>553.08</ele>
        <time>2020-06-16T09:12:37.000Z</time>
      </trkpt>
      <trkpt lat="45.14735" lon="5.81844">
        <ele>557.97</ele>
        <time>2020-06-16T09:12:42.000Z</time>
      </trkpt>
      <trkpt lat="45.14747" lon="5.8182">
        <ele>558.86</ele>
        <time>2020-06-16T09:12:47.000Z</time>
      </trkpt>
      <trkpt lat="45.14762" lon="5.81798">
        <ele>558.83</ele>
        <time>2020-06-16T09:12:52.000Z</time>
      </trkpt>
      <trkpt lat="45.14777" lon="5.81776">
        <ele>557.28</ele>
        <time>2020-06-16T09:12:57.000Z</time>
      </trkpt>
      <trkpt lat="45.14795" lon="5.8176">
        <ele>560.52</ele>
        <time>2020-06-16T09:13:02.000Z</time>
      </trkpt>
      <trkpt lat="45.14816" lon="5.81753">
        <ele>562.57</ele>
        <time>2020-06-16T09:13:07.000Z</time>
      </trkpt>
      <trkpt lat="45.14839" lon="5.81753">
        <ele>566.79</ele>
        <time>2020-06-16T09:13:12.000Z</time>
      </trkpt>
      <trkpt lat="45.14861" lon="5.8176">
        <ele>568.62</ele>
        <time>2020-06-16T09:13:17.000Z</time>
      </trkpt>
      <trkpt lat="45.14884" lon="5.81768">
        <ele>569.37</ele>
        <time>2020-06-16T09:13:22.000Z</time>
      </trkpt>
      <trkpt lat="45.14904" lon="5.81777">
        <ele>568.68</ele>
        <time>2020-06-16T09:13:27.000Z</time>
      </trkpt>
      <trkpt lat="45.14925" lon="5.81779">
        <ele>566.7</ele>
        <time>2020-06-16T09:13:32.000Z</time>
      </trkpt>
      <trkpt lat="45.14944" lon="5.81772">
        <ele>567.47</ele>
        <time>2020-06-16T09:13:37.000Z</time>
      </trkpt>
      <trkpt lat="45.14968" lon="5.81763">
        <ele>570.16</ele>
        <time>2020-06-16T09:13:42.000Z</time>
      </trkpt>
      <trkpt lat="45.1499" lon="5.81754">
        <ele>569.75</ele>
        <time>2020-06-16T09:13:47.000Z</time>
      </trkpt>
      <trkpt lat="45.15003" lon="5.8173">
        <ele>571.85</ele>
        <time>2020-06-16T09:13:52.000Z</time>
      </trkpt>
      <trkpt lat="45.15005" lon="5.81707">
        <ele>571.53</ele>
        <time>2020-06-16T09:13:57.000Z</time>
      </trkpt>
      <trkpt lat="45.1501" lon="5.8169">
        <ele>572.43</ele>
        <time>2020-06-16T09:14:02.000Z</time>
      </trkpt>
      <trkpt lat="45.15004" lon="5.81679">
        <ele>569.14</ele>
        <time>2020-06-16T09:14:09.000Z</time>
      </trkpt>
      <trkpt lat="45.1499" lon="5.81677">
        <ele>571.34</ele>
        <time>2020-06-16T09:14:14.000Z</time>
      </trkpt>
      <trkpt lat="45.14971" lon="5.81681">
        <ele>576.94</ele>
        <time>2020-06-16T09:14:19.000Z</time>
      </trkpt>
      <trkpt lat="45.14956" lon="5.81686">
        <ele>578.22</ele>
        <time>2020-06-16T09:14:24.000Z</time>
      </trkpt>
      <trkpt lat="45.14953" lon="5.81674">
        <ele>578.72</ele>
        <time>2020-06-16T09:14:30.000Z</time>
      </trkpt>
      <trkpt lat="45.1495" lon="5.81655">
        <ele>578.39</ele>
        <time>2020-06-16T09:14:35.000Z</time>
      </trkpt>
      <trkpt lat="45.14945" lon="5.8164">
        <ele>583.62</ele>
        <time>2020-06-16T09:15:32.000Z</time>
      </trkpt>
      <trkpt lat="45.14944" lon="5.81612">
        <ele>584.28</ele>
        <time>2020-06-16T09:15:37.000Z</time>
      </trkpt>
      <trkpt lat="45.14942" lon="5.81578">
        <ele>586.14</ele>
        <time>2020-06-16T09:15:42.000Z</time>
      </trkpt>
      <trkpt lat="45.14939" lon="5.81546">
        <ele>585.9</ele>
        <time>2020-06-16T09:15:47.000Z</time>
      </trkpt>
      <trkpt lat="45.1493" lon="5.81521">
        <ele>587.95</ele>
        <time>2020-06-16T09:15:52.000Z</time>
      </trkpt>
      <trkpt lat="45.1492" lon="5.81495">
        <ele>587.3</ele>
        <time>2020-06-16T09:15:57.000Z</time>
      </trkpt>
      <trkpt lat="45.14908" lon="5.81474">
        <ele>591.31</ele>
        <time>2020-06-16T09:16:02.000Z</time>
      </trkpt>
      <trkpt lat="45.14892" lon="5.81454">
        <ele>590.36</ele>
        <time>2020-06-16T09:16:07.000Z</time>
      </trkpt>
      <trkpt lat="45.14885" lon="5.81429">
        <ele>592.67</ele>
        <time>2020-06-16T09:16:12.000Z</time>
      </trkpt>
      <trkpt lat="45.14883" lon="5.81399">
        <ele>590.27</ele>
        <time>2020-06-16T09:16:17.000Z</time>
      </trkpt>
      <trkpt lat="45.14884" lon="5.81371">
        <ele>589.99</ele>
        <time>2020-06-16T09:16:22.000Z</time>
      </trkpt>
      <trkpt lat="45.14881" lon="5.81344">
        <ele>591.62</ele>
        <time>2020-06-16T09:16:27.000Z</time>
      </trkpt>
      <trkpt lat="45.14873" lon="5.81321">
        <ele>592.86</ele>
        <time>2020-06-16T09:16:32.000Z</time>
      </trkpt>
      <trkpt lat="45.14861" lon="5.81296">
        <ele>592.19</ele>
        <time>2020-06-16T09:16:37.000Z</time>
      </trkpt>
      <trkpt lat="45.14846" lon="5.81275">
        <ele>591.23</ele>
        <time>2020-06-16T09:16:42.000Z</time>
      </trkpt>
      <trkpt lat="45.14828" lon="5.81245">
        <ele>591.44</ele>
        <time>2020-06-16T09:16:47.000Z</time>
      </trkpt>
      <trkpt lat="45.14815" lon="5.81218">
        <ele>592.17</ele>
        <time>2020-06-16T09:16:52.000Z</time>
      </trkpt>
      <trkpt lat="45.14796" lon="5.81197">
        <ele>590.22</ele>
        <time>2020-06-16T09:16:57.000Z</time>
      </trkpt>
      <trkpt lat="45.14779" lon="5.8118">
        <ele>595.96</ele>
        <time>2020-06-16T09:17:02.000Z</time>
      </trkpt>
      <trkpt lat="45.14764" lon="5.81154">
        <ele>602.06</ele>
        <time>2020-06-16T09:17:07.000Z</time>
      </trkpt>
      <trkpt lat="45.14746" lon="5.81132">
        <ele>606.07</ele>
        <time>2020-06-16T09:17:12.000Z</time>
      </trkpt>
      <trkpt lat="45.14723" lon="5.81104">
        <ele>605.33</ele>
        <time>2020-06-16T09:17:17.000Z</time>
      </trkpt>
      <trkpt lat="45.14703" lon="5.81075">
        <ele>604.74</ele>
        <time>2020-06-16T09:17:22.000Z</time>
      </trkpt>
      <trkpt lat="45.14685" lon="5.81049">
        <ele>603.91</ele>
        <time>2020-06-16T09:17:27.000Z</time>
      </trkpt>
      <trkpt lat="45.14674" lon="5.81027">
        <ele>604.61</ele>
        <time>2020-06-16T09:17:32.000Z</time>
      </trkpt>
      <trkpt lat="45.14667" lon="5.81018">
        <ele>601.52</ele>
        <time>2020-06-16T09:17:37.000Z</time>
      </trkpt>
      <trkpt lat="45.1466" lon="5.81005">
        <ele>603.01</ele>
        <time>2020-06-16T09:17:42.000Z</time>
      </trkpt>
      <trkpt lat="45.1465" lon="5.80987">
        <ele>603.22</ele>
        <time>2020-06-16T09:17:47.000Z</time>
      </trkpt>
      <trkpt lat="45.14641" lon="5.80969">
        <ele>601.04</ele>
        <time>2020-06-16T09:17:52.000Z</time>
      </trkpt>
      <trkpt lat="45.1463" lon="5.80954">
        <ele>601.12</ele>
        <time>2020-06-16T09:17:57.000Z</time>
      </trkpt>
      <trkpt lat="45.14618" lon="5.80936">
        <ele>600.42</ele>
        <time>2020-06-16T09:18:02.000Z</time>
      </trkpt>
      <trkpt lat="45.14605" lon="5.80921">
        <ele>598.36</ele>
        <time>2020-06-16T09:18:07.000Z</time>
      </trkpt>
      <trkpt lat="45.1459" lon="5.80905">
        <ele>596.51</ele>
        <time>2020-06-16T09:18:12.000Z</time>
      </trkpt>
      <trkpt lat="45.14576" lon="5.80877">
        <ele>594.22</ele>
        <time>2020-06-16T09:18:17.000Z</time>
      </trkpt>
      <trkpt lat="45.14566" lon="5.80854">
        <ele>596.08</ele>
        <time>2020-06-16T09:18:22.000Z</time>
      </trkpt>
      <trkpt lat="45.14556" lon="5.80828">
        <ele>598.49</ele>
        <time>2020-06-16T09:18:27.000Z</time>
      </trkpt>
      <trkpt lat="45.14543" lon="5.80796">
        <ele>593.97</ele>
        <time>2020-06-16T09:18:32.000Z</time>
      </trkpt>
      <trkpt lat="45.14525" lon="5.80764">
        <ele>597.29</ele>
        <time>2020-06-16T09:18:37.000Z</time>
      </trkpt>
      <trkpt lat="45.14512" lon="5.80725">
        <ele>596.01</ele>
        <time>2020-06-16T09:18:42.000Z</time>
      </trkpt>
      <trkpt lat="45.14492" lon="5.80689">
        <ele>596.48</ele>
        <time>2020-06-16T09:18:47.000Z</time>
      </trkpt>
      <trkpt lat="45.14476" lon="5.80657">
        <ele>597.44</ele>
        <time>2020-06-16T09:18:52.000Z</time>
      </trkpt>
      <trkpt lat="45.14464" lon="5.80628">
        <ele>596.09</ele>
        <time>2020-06-16T09:18:57.000Z</time>
      </trkpt>
      <trkpt lat="45.14448" lon="5.80603">
        <ele>592.13</ele>
        <time>2020-06-16T09:19:02.000Z</time>
      </trkpt>
      <trkpt lat="45.14429" lon="5.8057">
        <ele>588.98</ele>
        <time>2020-06-16T09:19:07.000Z</time>
      </trkpt>
      <trkpt lat="45.14402" lon="5.80539">
        <ele>589.05</ele>
        <time>2020-06-16T09:19:12.000Z</time>
      </trkpt>
      <trkpt lat="45.1438" lon="5.805">
        <ele>590.12</ele>
        <time>2020-06-16T09:19:17.000Z</time>
      </trkpt>
      <trkpt lat="45.14353" lon="5.80468">
        <ele>591.38</ele>
        <time>2020-06-16T09:19:22.000Z</time>
      </trkpt>
      <trkpt lat="45.14327" lon="5.80431">
        <ele>587.32</ele>
        <time>2020-06-16T09:19:27.000Z</time>
      </trkpt>
      <trkpt lat="45.14302" lon="5.80394">
        <ele>588.48</ele>
        <time>2020-06-16T09:19:32.000Z</time>
      </trkpt>
      <trkpt lat="45.14287" lon="5.8036">
        <ele>590.5</ele>
        <time>2020-06-16T09:19:37.000Z</time>
      </trkpt>
      <trkpt lat="45.14275" lon="5.80339">
        <ele>588.91</ele>
        <time>2020-06-16T09:19:42.000Z</time>
      </trkpt>
      <trkpt lat="45.14271" lon="5.80307">
        <ele>590.21</ele>
        <time>2020-06-16T09:19:47.000Z</time>
      </trkpt>
      <trkpt lat="45.14262" lon="5.80267">
        <ele>593.21</ele>
        <time>2020-06-16T09:19:52.000Z</time>
      </trkpt>
      <trkpt lat="45.14251" lon="5.80217">
        <ele>593.42</ele>
        <time>2020-06-16T09:19:57.000Z</time>
      </trkpt>
      <trkpt lat="45.14241" lon="5.80165">
        <ele>594.22</ele>
        <time>2020-06-16T09:20:02.000Z</time>
      </trkpt>
      <trkpt lat="45.14223" lon="5.80111">
        <ele>592.93</ele>
        <time>2020-06-16T09:20:07.000Z</time>
      </trkpt>
      <trkpt lat="45.14195" lon="5.80062">
        <ele>584.92</ele>
        <time>2020-06-16T09:20:12.000Z</time>
      </trkpt>
      <trkpt lat="45.14165" lon="5.80007">
        <ele>581.13</ele>
        <time>2020-06-16T09:20:17.000Z</time>
      </trkpt>
      <trkpt lat="45.14139" lon="5.7996">
        <ele>575.47</ele>
        <time>2020-06-16T09:20:22.000Z</time>
      </trkpt>
      <trkpt lat="45.14123" lon="5.79913">
        <ele>575.11</ele>
        <time>2020-06-16T09:20:27.000Z</time>
      </trkpt>
      <trkpt lat="45.1412" lon="5.7989">
        <ele>570.77</ele>
        <time>2020-06-16T09:20:32.000Z</time>
      </trkpt>
      <trkpt lat="45.14116" lon="5.79865">
        <ele>569.36</ele>
        <time>2020-06-16T09:20:37.000Z</time>
      </trkpt>
      <trkpt lat="45.14113" lon="5.79824">
        <ele>568.44</ele>
        <time>2020-06-16T09:20:42.000Z</time>
      </trkpt>
      <trkpt lat="45.14107" lon="5.79769">
        <ele>561.37</ele>
        <time>2020-06-16T09:20:47.000Z</time>
      </trkpt>
      <trkpt lat="45.14102" lon="5.79715">
        <ele>555.07</ele>
        <time>2020-06-16T09:20:52.000Z</time>
      </trkpt>
      <trkpt lat="45.141" lon="5.79663">
        <ele>551.98</ele>
        <time>2020-06-16T09:20:57.000Z</time>
      </trkpt>
      <trkpt lat="45.1409" lon="5.79612">
        <ele>548.29</ele>
        <time>2020-06-16T09:21:02.000Z</time>
      </trkpt>
      <trkpt lat="45.14077" lon="5.79581">
        <ele>545.9</ele>
        <time>2020-06-16T09:21:07.000Z</time>
      </trkpt>
      <trkpt lat="45.14058" lon="5.7956">
        <ele>541.51</ele>
        <time>2020-06-16T09:21:12.000Z</time>
      </trkpt>
      <trkpt lat="45.14035" lon="5.79541">
        <ele>542.29</ele>
        <time>2020-06-16T09:21:17.000Z</time>
      </trkpt>
      <trkpt lat="45.14004" lon="5.79512">
        <ele>540.07</ele>
        <time>2020-06-16T09:21:22.000Z</time>
      </trkpt>
      <trkpt lat="45.13976" lon="5.79478">
        <ele>539.57</ele>
        <time>2020-06-16T09:21:27.000Z</time>
      </trkpt>
      <trkpt lat="45.13954" lon="5.79446">
        <ele>534.92</ele>
        <time>2020-06-16T09:21:32.000Z</time>
      </trkpt>
      <trkpt lat="45.13943" lon="5.79407">
        <ele>535.82</ele>
        <time>2020-06-16T09:21:37.000Z</time>
      </trkpt>
      <trkpt lat="45.13939" lon="5.79368">
        <ele>533.68</ele>
        <time>2020-06-16T09:21:42.000Z</time>
      </trkpt>
      <trkpt lat="45.13941" lon="5.79334">
        <ele>530.41</ele>
        <time>2020-06-16T09:21:47.000Z</time>
      </trkpt>
      <trkpt lat="45.13938" lon="5.79299">
        <ele>527.51</ele>
        <time>2020-06-16T09:21:52.000Z</time>
      </trkpt>
      <trkpt lat="45.13936" lon="5.79273">
        <ele>528.27</ele>
        <time>2020-06-16T09:21:57.000Z</time>
      </trkpt>
      <trkpt lat="45.13951" lon="5.7926">
        <ele>527.77</ele>
        <time>2020-06-16T09:22:02.000Z</time>
      </trkpt>
      <trkpt lat="45.13968" lon="5.79251">
        <ele>528.31</ele>
        <time>2020-06-16T09:22:07.000Z</time>
      </trkpt>
      <trkpt lat="45.13979" lon="5.79238">
        <ele>526.96</ele>
        <time>2020-06-16T09:22:12.000Z</time>
      </trkpt>
      <trkpt lat="45.13982" lon="5.79219">
        <ele>524.31</ele>
        <time>2020-06-16T09:22:17.000Z</time>
      </trkpt>
      <trkpt lat="45.1398" lon="5.79201">
        <ele>525.78</ele>
        <time>2020-06-16T09:22:22.000Z</time>
      </trkpt>
      <trkpt lat="45.13979" lon="5.79179">
        <ele>525.23</ele>
        <time>2020-06-16T09:22:27.000Z</time>
      </trkpt>
      <trkpt lat="45.13979" lon="5.79149">
        <ele>521.63</ele>
        <time>2020-06-16T09:22:32.000Z</time>
      </trkpt>
      <trkpt lat="45.13987" lon="5.7912">
        <ele>520.09</ele>
        <time>2020-06-16T09:22:37.000Z</time>
      </trkpt>
      <trkpt lat="45.14018" lon="5.79096">
        <ele>516.87</ele>
        <time>2020-06-16T09:22:42.000Z</time>
      </trkpt>
      <trkpt lat="45.14038" lon="5.79075">
        <ele>516.31</ele>
        <time>2020-06-16T09:22:47.000Z</time>
      </trkpt>
      <trkpt lat="45.1404" lon="5.7903">
        <ele>514.43</ele>
        <time>2020-06-16T09:22:52.000Z</time>
      </trkpt>
      <trkpt lat="45.14034" lon="5.78984">
        <ele>511.82</ele>
        <time>2020-06-16T09:22:57.000Z</time>
      </trkpt>
      <trkpt lat="45.14028" lon="5.78941">
        <ele>509.64</ele>
        <time>2020-06-16T09:23:02.000Z</time>
      </trkpt>
      <trkpt lat="45.14025" lon="5.78893">
        <ele>509.64</ele>
        <time>2020-06-16T09:23:07.000Z</time>
      </trkpt>
      <trkpt lat="45.14022" lon="5.78849">
        <ele>505.26</ele>
        <time>2020-06-16T09:23:12.000Z</time>
      </trkpt>
      <trkpt lat="45.13988" lon="5.78813">
        <ele>506.81</ele>
        <time>2020-06-16T09:23:20.000Z</time>
      </trkpt>
      <trkpt lat="45.13952" lon="5.78802">
        <ele>506.47</ele>
        <time>2020-06-16T09:23:25.000Z</time>
      </trkpt>
      <trkpt lat="45.13942" lon="5.78758">
        <ele>503.55</ele>
        <time>2020-06-16T09:23:30.000Z</time>
      </trkpt>
      <trkpt lat="45.13953" lon="5.78704">
        <ele>500.44</ele>
        <time>2020-06-16T09:23:35.000Z</time>
      </trkpt>
      <trkpt lat="45.13962" lon="5.78641">
        <ele>495.58</ele>
        <time>2020-06-16T09:23:40.000Z</time>
      </trkpt>
      <trkpt lat="45.13967" lon="5.78585">
        <ele>489.84</ele>
        <time>2020-06-16T09:23:45.000Z</time>
      </trkpt>
      <trkpt lat="45.13978" lon="5.7853">
        <ele>487.43</ele>
        <time>2020-06-16T09:23:50.000Z</time>
      </trkpt>
      <trkpt lat="45.13983" lon="5.78508">
        <ele>483.32</ele>
        <time>2020-06-16T09:23:55.000Z</time>
      </trkpt>
      <trkpt lat="45.13991" lon="5.78483">
        <ele>479.85</ele>
        <time>2020-06-16T09:24:00.000Z</time>
      </trkpt>
      <trkpt lat="45.13999" lon="5.78448">
        <ele>479.06</ele>
        <time>2020-06-16T09:24:05.000Z</time>
      </trkpt>
      <trkpt lat="45.14007" lon="5.78416">
        <ele>474.9</ele>
        <time>2020-06-16T09:24:10.000Z</time>
      </trkpt>
      <trkpt lat="45.13992" lon="5.78395">
        <ele>470.91</ele>
        <time>2020-06-16T09:24:15.000Z</time>
      </trkpt>
      <trkpt lat="45.13976" lon="5.7838">
        <ele>470.46</ele>
        <time>2020-06-16T09:24:20.000Z</time>
      </trkpt>
      <trkpt lat="45.13952" lon="5.78372">
        <ele>469.7</ele>
        <time>2020-06-16T09:24:25.000Z</time>
      </trkpt>
      <trkpt lat="45.13925" lon="5.7836">
        <ele>466.77</ele>
        <time>2020-06-16T09:24:30.000Z</time>
      </trkpt>
      <trkpt lat="45.13899" lon="5.7834">
        <ele>467.83</ele>
        <time>2020-06-16T09:24:35.000Z</time>
      </trkpt>
      <trkpt lat="45.13876" lon="5.78338">
        <ele>467.93</ele>
        <time>2020-06-16T09:24:40.000Z</time>
      </trkpt>
      <trkpt lat="45.13851" lon="5.78336">
        <ele>468.26</ele>
        <time>2020-06-16T09:24:45.000Z</time>
      </trkpt>
      <trkpt lat="45.13823" lon="5.78328">
        <ele>466.24</ele>
        <time>2020-06-16T09:24:50.000Z</time>
      </trkpt>
      <trkpt lat="45.13804" lon="5.78316">
        <ele>465.82</ele>
        <time>2020-06-16T09:24:55.000Z</time>
      </trkpt>
      <trkpt lat="45.13788" lon="5.78306">
        <ele>460.98</ele>
        <time>2020-06-16T09:25:00.000Z</time>
      </trkpt>
      <trkpt lat="45.13771" lon="5.78307">
        <ele>459.3</ele>
        <time>2020-06-16T09:25:05.000Z</time>
      </trkpt>
      <trkpt lat="45.13756" lon="5.78311">
        <ele>465.37</ele>
        <time>2020-06-16T09:25:10.000Z</time>
      </trkpt>
      <trkpt lat="45.13744" lon="5.783">
        <ele>462.51</ele>
        <time>2020-06-16T09:25:15.000Z</time>
      </trkpt>
      <trkpt lat="45.13756" lon="5.78261">
        <ele>461.18</ele>
        <time>2020-06-16T09:25:20.000Z</time>
      </trkpt>
      <trkpt lat="45.13763" lon="5.78231">
        <ele>454.87</ele>
        <time>2020-06-16T09:25:25.000Z</time>
      </trkpt>
      <trkpt lat="45.13751" lon="5.78208">
        <ele>453.71</ele>
        <time>2020-06-16T09:25:30.000Z</time>
      </trkpt>
      <trkpt lat="45.13731" lon="5.78185">
        <ele>449.6</ele>
        <time>2020-06-16T09:25:35.000Z</time>
      </trkpt>
      <trkpt lat="45.13728" lon="5.78173">
        <ele>449.05</ele>
        <time>2020-06-16T09:25:40.000Z</time>
      </trkpt>
      <trkpt lat="45.13727" lon="5.78156">
        <ele>447.88</ele>
        <time>2020-06-16T09:25:45.000Z</time>
      </trkpt>
      <trkpt lat="45.13728" lon="5.78138">
        <ele>448.88</ele>
        <time>2020-06-16T09:25:50.000Z</time>
      </trkpt>
      <trkpt lat="45.13724" lon="5.7811">
        <ele>445.96</ele>
        <time>2020-06-16T09:25:55.000Z</time>
      </trkpt>
      <trkpt lat="45.13717" lon="5.78071">
        <ele>451.58</ele>
        <time>2020-06-16T09:26:00.000Z</time>
      </trkpt>
      <trkpt lat="45.13713" lon="5.78026">
        <ele>448.39</ele>
        <time>2020-06-16T09:26:05.000Z</time>
      </trkpt>
      <trkpt lat="45.13711" lon="5.7798">
        <ele>447.04</ele>
        <time>2020-06-16T09:26:10.000Z</time>
      </trkpt>
      <trkpt lat="45.1371" lon="5.77935">
        <ele>445.51</ele>
        <time>2020-06-16T09:26:15.000Z</time>
      </trkpt>
      <trkpt lat="45.1371" lon="5.77897">
        <ele>444.84</ele>
        <time>2020-06-16T09:26:20.000Z</time>
      </trkpt>
      <trkpt lat="45.1371" lon="5.77866">
        <ele>444.19</ele>
        <time>2020-06-16T09:26:25.000Z</time>
      </trkpt>
      <trkpt lat="45.137" lon="5.77856">
        <ele>444.96</ele>
        <time>2020-06-16T09:26:30.000Z</time>
      </trkpt>
      <trkpt lat="45.13688" lon="5.77852">
        <ele>441.82</ele>
        <time>2020-06-16T09:26:35.000Z</time>
      </trkpt>
      <trkpt lat="45.13663" lon="5.77849">
        <ele>437.61</ele>
        <time>2020-06-16T09:26:40.000Z</time>
      </trkpt>
      <trkpt lat="45.13632" lon="5.77846">
        <ele>433.17</ele>
        <time>2020-06-16T09:26:45.000Z</time>
      </trkpt>
      <trkpt lat="45.13616" lon="5.77838">
        <ele>426.73</ele>
        <time>2020-06-16T09:26:50.000Z</time>
      </trkpt>
      <trkpt lat="45.13605" lon="5.77848">
        <ele>424.64</ele>
        <time>2020-06-16T09:26:55.000Z</time>
      </trkpt>
      <trkpt lat="45.13596" lon="5.7785">
        <ele>423.98</ele>
        <time>2020-06-16T09:27:00.000Z</time>
      </trkpt>
      <trkpt lat="45.13586" lon="5.77852">
        <ele>422.48</ele>
        <time>2020-06-16T09:27:05.000Z</time>
      </trkpt>
      <trkpt lat="45.13575" lon="5.77858">
        <ele>417.62</ele>
        <time>2020-06-16T09:27:10.000Z</time>
      </trkpt>
      <trkpt lat="45.13559" lon="5.77868">
        <ele>414.13</ele>
        <time>2020-06-16T09:27:15.000Z</time>
      </trkpt>
      <trkpt lat="45.13543" lon="5.77883">
        <ele>413.63</ele>
        <time>2020-06-16T09:27:20.000Z</time>
      </trkpt>
      <trkpt lat="45.13531" lon="5.77895">
        <ele>416.05</ele>
        <time>2020-06-16T09:27:25.000Z</time>
      </trkpt>
      <trkpt lat="45.13512" lon="5.77906">
        <ele>417.17</ele>
        <time>2020-06-16T09:27:30.000Z</time>
      </trkpt>
      <trkpt lat="45.13488" lon="5.77926">
        <ele>416.2</ele>
        <time>2020-06-16T09:27:35.000Z</time>
      </trkpt>
      <trkpt lat="45.13458" lon="5.77943">
        <ele>410.37</ele>
        <time>2020-06-16T09:27:40.000Z</time>
      </trkpt>
      <trkpt lat="45.13442" lon="5.77983">
        <ele>409.89</ele>
        <time>2020-06-16T09:27:45.000Z</time>
      </trkpt>
      <trkpt lat="45.13432" lon="5.78018">
        <ele>401.88</ele>
        <time>2020-06-16T09:27:50.000Z</time>
      </trkpt>
      <trkpt lat="45.13409" lon="5.78036">
        <ele>402.43</ele>
        <time>2020-06-16T09:27:55.000Z</time>
      </trkpt>
      <trkpt lat="45.13395" lon="5.78046">
        <ele>403.6</ele>
        <time>2020-06-16T09:28:00.000Z</time>
      </trkpt>
      <trkpt lat="45.13384" lon="5.78048">
        <ele>405.14</ele>
        <time>2020-06-16T09:28:05.000Z</time>
      </trkpt>
      <trkpt lat="45.13371" lon="5.78045">
        <ele>406.38</ele>
        <time>2020-06-16T09:28:10.000Z</time>
      </trkpt>
      <trkpt lat="45.13356" lon="5.78035">
        <ele>407.9</ele>
        <time>2020-06-16T09:28:15.000Z</time>
      </trkpt>
      <trkpt lat="45.13343" lon="5.78014">
        <ele>409.06</ele>
        <time>2020-06-16T09:28:20.000Z</time>
      </trkpt>
      <trkpt lat="45.13329" lon="5.77998">
        <ele>405.94</ele>
        <time>2020-06-16T09:28:25.000Z</time>
      </trkpt>
      <trkpt lat="45.13318" lon="5.77986">
        <ele>404.53</ele>
        <time>2020-06-16T09:28:30.000Z</time>
      </trkpt>
      <trkpt lat="45.13305" lon="5.77966">
        <ele>403.47</ele>
        <time>2020-06-16T09:28:35.000Z</time>
      </trkpt>
      <trkpt lat="45.13295" lon="5.77947">
        <ele>407.48</ele>
        <time>2020-06-16T09:28:40.000Z</time>
      </trkpt>
      <trkpt lat="45.13284" lon="5.77933">
        <ele>411.11</ele>
        <time>2020-06-16T09:28:45.000Z</time>
      </trkpt>
      <trkpt lat="45.13274" lon="5.77916">
        <ele>420.16</ele>
        <time>2020-06-16T09:28:50.000Z</time>
      </trkpt>
      <trkpt lat="45.13264" lon="5.77894">
        <ele>422.67</ele>
        <time>2020-06-16T09:28:55.000Z</time>
      </trkpt>
      <trkpt lat="45.13251" lon="5.7788">
        <ele>427.88</ele>
        <time>2020-06-16T09:29:00.000Z</time>
      </trkpt>
      <trkpt lat="45.13232" lon="5.77868">
        <ele>426.76</ele>
        <time>2020-06-16T09:29:05.000Z</time>
      </trkpt>
      <trkpt lat="45.13214" lon="5.77858">
        <ele>424.71</ele>
        <time>2020-06-16T09:29:10.000Z</time>
      </trkpt>
      <trkpt lat="45.13196" lon="5.77855">
        <ele>423.57</ele>
        <time>2020-06-16T09:29:15.000Z</time>
      </trkpt>
      <trkpt lat="45.13177" lon="5.77859">
        <ele>422.38</ele>
        <time>2020-06-16T09:29:20.000Z</time>
      </trkpt>
      <trkpt lat="45.1316" lon="5.77856">
        <ele>425.84</ele>
        <time>2020-06-16T09:29:25.000Z</time>
      </trkpt>
      <trkpt lat="45.13142" lon="5.77844">
        <ele>427.55</ele>
        <time>2020-06-16T09:29:30.000Z</time>
      </trkpt>
      <trkpt lat="45.13127" lon="5.77831">
        <ele>429.06</ele>
        <time>2020-06-16T09:29:35.000Z</time>
      </trkpt>
      <trkpt lat="45.13114" lon="5.77816">
        <ele>426.66</ele>
        <time>2020-06-16T09:29:40.000Z</time>
      </trkpt>
      <trkpt lat="45.13098" lon="5.77806">
        <ele>427.46</ele>
        <time>2020-06-16T09:29:45.000Z</time>
      </trkpt>
      <trkpt lat="45.13084" lon="5.77805">
        <ele>427.72</ele>
        <time>2020-06-16T09:29:50.000Z</time>
      </trkpt>
      <trkpt lat="45.13074" lon="5.77804">
        <ele>429.02</ele>
        <time>2020-06-16T09:29:55.000Z</time>
      </trkpt>
      <trkpt lat="45.13063" lon="5.77797">
        <ele>425.45</ele>
        <time>2020-06-16T09:30:21.000Z</time>
      </trkpt>
      <trkpt lat="45.13044" lon="5.7779">
        <ele>425.05</ele>
        <time>2020-06-16T09:30:26.000Z</time>
      </trkpt>
      <trkpt lat="45.13026" lon="5.77779">
        <ele>423.13</ele>
        <time>2020-06-16T09:30:31.000Z</time>
      </trkpt>
      <trkpt lat="45.13006" lon="5.77775">
        <ele>422.46</ele>
        <time>2020-06-16T09:30:36.000Z</time>
      </trkpt>
      <trkpt lat="45.1299" lon="5.77764">
        <ele>421.38</ele>
        <time>2020-06-16T09:30:41.000Z</time>
      </trkpt>
      <trkpt lat="45.12978" lon="5.77752">
        <ele>424.2</ele>
        <time>2020-06-16T09:30:46.000Z</time>
      </trkpt>
      <trkpt lat="45.12969" lon="5.77744">
        <ele>425.37</ele>
        <time>2020-06-16T09:30:53.000Z</time>
      </trkpt>
      <trkpt lat="45.12959" lon="5.77735">
        <ele>425.98</ele>
        <time>2020-06-16T09:30:58.000Z</time>
      </trkpt>
      <trkpt lat="45.12956" lon="5.77719">
        <ele>427.25</ele>
        <time>2020-06-16T09:31:52.000Z</time>
      </trkpt>
      <trkpt lat="45.1295" lon="5.777">
        <ele>427.9</ele>
        <time>2020-06-16T09:31:57.000Z</time>
      </trkpt>
      <trkpt lat="45.12937" lon="5.77683">
        <ele>427.12</ele>
        <time>2020-06-16T09:32:02.000Z</time>
      </trkpt>
      <trkpt lat="45.12923" lon="5.77666">
        <ele>429.75</ele>
        <time>2020-06-16T09:32:07.000Z</time>
      </trkpt>
      <trkpt lat="45.12909" lon="5.77652">
        <ele>430.05</ele>
        <time>2020-06-16T09:32:12.000Z</time>
      </trkpt>
      <trkpt lat="45.12893" lon="5.77637">
        <ele>431.16</ele>
        <time>2020-06-16T09:32:17.000Z</time>
      </trkpt>
      <trkpt lat="45.12877" lon="5.7762">
        <ele>427.82</ele>
        <time>2020-06-16T09:32:22.000Z</time>
      </trkpt>
      <trkpt lat="45.12862" lon="5.77602">
        <ele>426.32</ele>
        <time>2020-06-16T09:32:27.000Z</time>
      </trkpt>
      <trkpt lat="45.1285" lon="5.7759">
        <ele>431.21</ele>
        <time>2020-06-16T09:32:32.000Z</time>
      </trkpt>
      <trkpt lat="45.1284" lon="5.77579">
        <ele>432.54</ele>
        <time>2020-06-16T09:32:37.000Z</time>
      </trkpt>
      <trkpt lat="45.1283" lon="5.7756">
        <ele>431.56</ele>
        <time>2020-06-16T09:32:42.000Z</time>
      </trkpt>
      <trkpt lat="45.12823" lon="5.77541">
        <ele>426.79</ele>
        <time>2020-06-16T09:32:47.000Z</time>
      </trkpt>
      <trkpt lat="45.12815" lon="5.7752">
        <ele>425.08</ele>
        <time>2020-06-16T09:32:52.000Z</time>
      </trkpt>
      <trkpt lat="45.12793" lon="5.77506">
        <ele>426.49</ele>
        <time>2020-06-16T09:32:57.000Z</time>
      </trkpt>
      <trkpt lat="45.12769" lon="5.77498">
        <ele>425.73</ele>
        <time>2020-06-16T09:33:02.000Z</time>
      </trkpt>
      <trkpt lat="45.12748" lon="5.77479">
        <ele>427.15</ele>
        <time>2020-06-16T09:33:07.000Z</time>
      </trkpt>
      <trkpt lat="45.12726" lon="5.77455">
        <ele>432.66</ele>
        <time>2020-06-16T09:33:12.000Z</time>
      </trkpt>
      <trkpt lat="45.12713" lon="5.77421">
        <ele>433</ele>
        <time>2020-06-16T09:33:17.000Z</time>
      </trkpt>
      <trkpt lat="45.12693" lon="5.77388">
        <ele>430.14</ele>
        <time>2020-06-16T09:33:22.000Z</time>
      </trkpt>
      <trkpt lat="45.12679" lon="5.77342">
        <ele>428.59</ele>
        <time>2020-06-16T09:33:27.000Z</time>
      </trkpt>
      <trkpt lat="45.12671" lon="5.77293">
        <ele>428.45</ele>
        <time>2020-06-16T09:33:32.000Z</time>
      </trkpt>
      <trkpt lat="45.12639" lon="5.77258">
        <ele>430.13</ele>
        <time>2020-06-16T09:33:37.000Z</time>
      </trkpt>
      <trkpt lat="45.12617" lon="5.77243">
        <ele>428.2</ele>
        <time>2020-06-16T09:33:42.000Z</time>
      </trkpt>
      <trkpt lat="45.12597" lon="5.77216">
        <ele>425.48</ele>
        <time>2020-06-16T09:33:47.000Z</time>
      </trkpt>
      <trkpt lat="45.12583" lon="5.77199">
        <ele>424.38</ele>
        <time>2020-06-16T09:33:52.000Z</time>
      </trkpt>
      <trkpt lat="45.12571" lon="5.77184">
        <ele>427.55</ele>
        <time>2020-06-16T09:33:57.000Z</time>
      </trkpt>
      <trkpt lat="45.12573" lon="5.77156">
        <ele>428.11</ele>
        <time>2020-06-16T09:34:02.000Z</time>
      </trkpt>
      <trkpt lat="45.12569" lon="5.77132">
        <ele>429.93</ele>
        <time>2020-06-16T09:34:07.000Z</time>
      </trkpt>
      <trkpt lat="45.12566" lon="5.77108">
        <ele>432.27</ele>
        <time>2020-06-16T09:34:12.000Z</time>
      </trkpt>
      <trkpt lat="45.12563" lon="5.77085">
        <ele>434.98</ele>
        <time>2020-06-16T09:34:17.000Z</time>
      </trkpt>
      <trkpt lat="45.12561" lon="5.7706">
        <ele>431.11</ele>
        <time>2020-06-16T09:34:22.000Z</time>
      </trkpt>
      <trkpt lat="45.12556" lon="5.77035">
        <ele>432.77</ele>
        <time>2020-06-16T09:34:27.000Z</time>
      </trkpt>
      <trkpt lat="45.12543" lon="5.77001">
        <ele>436.28</ele>
        <time>2020-06-16T09:34:32.000Z</time>
      </trkpt>
      <trkpt lat="45.12536" lon="5.76974">
        <ele>444.01</ele>
        <time>2020-06-16T09:34:37.000Z</time>
      </trkpt>
      <trkpt lat="45.12537" lon="5.76953">
        <ele>447.98</ele>
        <time>2020-06-16T09:34:42.000Z</time>
      </trkpt>
      <trkpt lat="45.12538" lon="5.76931">
        <ele>447.37</ele>
        <time>2020-06-16T09:34:47.000Z</time>
      </trkpt>
      <trkpt lat="45.12535" lon="5.7692">
        <ele>436.82</ele>
        <time>2020-06-16T09:35:42.000Z</time>
      </trkpt>
      <trkpt lat="45.12527" lon="5.76912">
        <ele>434.75</ele>
        <time>2020-06-16T09:37:00.000Z</time>
      </trkpt>
      <trkpt lat="45.12535" lon="5.76903">
        <ele>432</ele>
        <time>2020-06-16T09:46:56.000Z</time>
      </trkpt>
      <trkpt lat="45.12546" lon="5.76907">
        <ele>429.4</ele>
        <time>2020-06-16T09:47:10.000Z</time>
      </trkpt>
      <trkpt lat="45.12567" lon="5.7693">
        <ele>430.5</ele>
        <time>2020-06-16T09:47:15.000Z</time>
      </trkpt>
      <trkpt lat="45.1259" lon="5.76952">
        <ele>425.23</ele>
        <time>2020-06-16T09:47:20.000Z</time>
      </trkpt>
      <trkpt lat="45.12618" lon="5.76968">
        <ele>427.09</ele>
        <time>2020-06-16T09:47:25.000Z</time>
      </trkpt>
      <trkpt lat="45.12647" lon="5.76957">
        <ele>420.68</ele>
        <time>2020-06-16T09:47:30.000Z</time>
      </trkpt>
      <trkpt lat="45.12681" lon="5.76918">
        <ele>414.96</ele>
        <time>2020-06-16T09:47:35.000Z</time>
      </trkpt>
      <trkpt lat="45.12715" lon="5.76882">
        <ele>413.8</ele>
        <time>2020-06-16T09:47:40.000Z</time>
      </trkpt>
      <trkpt lat="45.1275" lon="5.76847">
        <ele>412.16</ele>
        <time>2020-06-16T09:47:45.000Z</time>
      </trkpt>
      <trkpt lat="45.12779" lon="5.76801">
        <ele>406.95</ele>
        <time>2020-06-16T09:47:50.000Z</time>
      </trkpt>
      <trkpt lat="45.128" lon="5.76776">
        <ele>405.13</ele>
        <time>2020-06-16T09:47:55.000Z</time>
      </trkpt>
      <trkpt lat="45.12813" lon="5.7675">
        <ele>404.58</ele>
        <time>2020-06-16T09:48:00.000Z</time>
      </trkpt>
      <trkpt lat="45.12841" lon="5.76726">
        <ele>402.69</ele>
        <time>2020-06-16T09:48:05.000Z</time>
      </trkpt>
      <trkpt lat="45.1287" lon="5.767">
        <ele>405.26</ele>
        <time>2020-06-16T09:48:10.000Z</time>
      </trkpt>
      <trkpt lat="45.12888" lon="5.76678">
        <ele>404.97</ele>
        <time>2020-06-16T09:48:15.000Z</time>
      </trkpt>
      <trkpt lat="45.12906" lon="5.76644">
        <ele>402.42</ele>
        <time>2020-06-16T09:48:20.000Z</time>
      </trkpt>
      <trkpt lat="45.12924" lon="5.76611">
        <ele>400.55</ele>
        <time>2020-06-16T09:48:25.000Z</time>
      </trkpt>
      <trkpt lat="45.1295" lon="5.76597">
        <ele>396.44</ele>
        <time>2020-06-16T09:48:30.000Z</time>
      </trkpt>
      <trkpt lat="45.12985" lon="5.7659">
        <ele>393.5</ele>
        <time>2020-06-16T09:48:35.000Z</time>
      </trkpt>
      <trkpt lat="45.13038" lon="5.76582">
        <ele>391.93</ele>
        <time>2020-06-16T09:48:40.000Z</time>
      </trkpt>
      <trkpt lat="45.13079" lon="5.76575">
        <ele>388.59</ele>
        <time>2020-06-16T09:48:45.000Z</time>
      </trkpt>
      <trkpt lat="45.13103" lon="5.7657">
        <ele>388.68</ele>
        <time>2020-06-16T09:48:50.000Z</time>
      </trkpt>
      <trkpt lat="45.131" lon="5.76554">
        <ele>388.8</ele>
        <time>2020-06-16T09:48:57.000Z</time>
      </trkpt>
      <trkpt lat="45.13084" lon="5.76542">
        <ele>385.93</ele>
        <time>2020-06-16T09:49:02.000Z</time>
      </trkpt>
      <trkpt lat="45.13066" lon="5.76529">
        <ele>383.47</ele>
        <time>2020-06-16T09:49:07.000Z</time>
      </trkpt>
      <trkpt lat="45.13045" lon="5.76514">
        <ele>377.03</ele>
        <time>2020-06-16T09:49:12.000Z</time>
      </trkpt>
      <trkpt lat="45.13026" lon="5.76503">
        <ele>375.64</ele>
        <time>2020-06-16T09:49:17.000Z</time>
      </trkpt>
      <trkpt lat="45.13007" lon="5.7649">
        <ele>373.7</ele>
        <time>2020-06-16T09:49:22.000Z</time>
      </trkpt>
      <trkpt lat="45.12989" lon="5.76476">
        <ele>372.37</ele>
        <time>2020-06-16T09:49:27.000Z</time>
      </trkpt>
      <trkpt lat="45.12972" lon="5.76461">
        <ele>371.2</ele>
        <time>2020-06-16T09:49:32.000Z</time>
      </trkpt>
      <trkpt lat="45.12956" lon="5.76444">
        <ele>374.82</ele>
        <time>2020-06-16T09:49:37.000Z</time>
      </trkpt>
      <trkpt lat="45.12935" lon="5.76419">
        <ele>372.94</ele>
        <time>2020-06-16T09:49:42.000Z</time>
      </trkpt>
      <trkpt lat="45.12915" lon="5.76398">
        <ele>372.19</ele>
        <time>2020-06-16T09:49:47.000Z</time>
      </trkpt>
      <trkpt lat="45.12894" lon="5.76382">
        <ele>371.67</ele>
        <time>2020-06-16T09:49:52.000Z</time>
      </trkpt>
      <trkpt lat="45.12869" lon="5.76361">
        <ele>376.58</ele>
        <time>2020-06-16T09:49:57.000Z</time>
      </trkpt>
      <trkpt lat="45.12864" lon="5.76333">
        <ele>378.74</ele>
        <time>2020-06-16T09:50:02.000Z</time>
      </trkpt>
      <trkpt lat="45.1288" lon="5.76303">
        <ele>377.6</ele>
        <time>2020-06-16T09:50:07.000Z</time>
      </trkpt>
      <trkpt lat="45.12878" lon="5.76274">
        <ele>375.08</ele>
        <time>2020-06-16T09:50:12.000Z</time>
      </trkpt>
      <trkpt lat="45.1287" lon="5.7625">
        <ele>372.15</ele>
        <time>2020-06-16T09:50:17.000Z</time>
      </trkpt>
      <trkpt lat="45.12862" lon="5.76222">
        <ele>370.95</ele>
        <time>2020-06-16T09:50:22.000Z</time>
      </trkpt>
      <trkpt lat="45.12853" lon="5.76195">
        <ele>369.43</ele>
        <time>2020-06-16T09:50:27.000Z</time>
      </trkpt>
      <trkpt lat="45.12847" lon="5.76171">
        <ele>372.59</ele>
        <time>2020-06-16T09:50:32.000Z</time>
      </trkpt>
      <trkpt lat="45.12842" lon="5.7613">
        <ele>369.46</ele>
        <time>2020-06-16T09:50:37.000Z</time>
      </trkpt>
      <trkpt lat="45.12838" lon="5.76097">
        <ele>364.24</ele>
        <time>2020-06-16T09:50:42.000Z</time>
      </trkpt>
      <trkpt lat="45.12841" lon="5.76062">
        <ele>359.09</ele>
        <time>2020-06-16T09:50:47.000Z</time>
      </trkpt>
      <trkpt lat="45.12839" lon="5.7603">
        <ele>361.29</ele>
        <time>2020-06-16T09:50:52.000Z</time>
      </trkpt>
      <trkpt lat="45.12846" lon="5.76">
        <ele>361.96</ele>
        <time>2020-06-16T09:50:57.000Z</time>
      </trkpt>
      <trkpt lat="45.12855" lon="5.75968">
        <ele>361.25</ele>
        <time>2020-06-16T09:51:02.000Z</time>
      </trkpt>
      <trkpt lat="45.12861" lon="5.75926">
        <ele>360.14</ele>
        <time>2020-06-16T09:51:07.000Z</time>
      </trkpt>
      <trkpt lat="45.12866" lon="5.75878">
        <ele>363.18</ele>
        <time>2020-06-16T09:51:12.000Z</time>
      </trkpt>
      <trkpt lat="45.1286" lon="5.75845">
        <ele>364.38</ele>
        <time>2020-06-16T09:51:17.000Z</time>
      </trkpt>
      <trkpt lat="45.12843" lon="5.75809">
        <ele>364.91</ele>
        <time>2020-06-16T09:51:22.000Z</time>
      </trkpt>
      <trkpt lat="45.12817" lon="5.75777">
        <ele>361.83</ele>
        <time>2020-06-16T09:51:27.000Z</time>
      </trkpt>
      <trkpt lat="45.12799" lon="5.75745">
        <ele>359.93</ele>
        <time>2020-06-16T09:51:32.000Z</time>
      </trkpt>
      <trkpt lat="45.12801" lon="5.75705">
        <ele>359.47</ele>
        <time>2020-06-16T09:51:37.000Z</time>
      </trkpt>
      <trkpt lat="45.12819" lon="5.75667">
        <ele>358.73</ele>
        <time>2020-06-16T09:51:42.000Z</time>
      </trkpt>
      <trkpt lat="45.12827" lon="5.75637">
        <ele>361.28</ele>
        <time>2020-06-16T09:51:47.000Z</time>
      </trkpt>
      <trkpt lat="45.1281" lon="5.75613">
        <ele>364.15</ele>
        <time>2020-06-16T09:51:52.000Z</time>
      </trkpt>
      <trkpt lat="45.12787" lon="5.75591">
        <ele>361.54</ele>
        <time>2020-06-16T09:51:57.000Z</time>
      </trkpt>
      <trkpt lat="45.1277" lon="5.75567">
        <ele>359.02</ele>
        <time>2020-06-16T09:52:02.000Z</time>
      </trkpt>
      <trkpt lat="45.12757" lon="5.75544">
        <ele>359.07</ele>
        <time>2020-06-16T09:52:07.000Z</time>
      </trkpt>
      <trkpt lat="45.1274" lon="5.75526">
        <ele>360.81</ele>
        <time>2020-06-16T09:52:12.000Z</time>
      </trkpt>
      <trkpt lat="45.12722" lon="5.75509">
        <ele>360.39</ele>
        <time>2020-06-16T09:52:17.000Z</time>
      </trkpt>
      <trkpt lat="45.12714" lon="5.75485">
        <ele>357.75</ele>
        <time>2020-06-16T09:52:22.000Z</time>
      </trkpt>
      <trkpt lat="45.12711" lon="5.75457">
        <ele>354.23</ele>
        <time>2020-06-16T09:52:27.000Z</time>
      </trkpt>
      <trkpt lat="45.12713" lon="5.75429">
        <ele>354.9</ele>
        <time>2020-06-16T09:52:32.000Z</time>
      </trkpt>
      <trkpt lat="45.12727" lon="5.75403">
        <ele>358.3</ele>
        <time>2020-06-16T09:52:37.000Z</time>
      </trkpt>
      <trkpt lat="45.1274" lon="5.75388">
        <ele>358.67</ele>
        <time>2020-06-16T09:52:42.000Z</time>
      </trkpt>
      <trkpt lat="45.1275" lon="5.75377">
        <ele>362.4</ele>
        <time>2020-06-16T09:52:47.000Z</time>
      </trkpt>
      <trkpt lat="45.12761" lon="5.75366">
        <ele>362.82</ele>
        <time>2020-06-16T09:52:52.000Z</time>
      </trkpt>
      <trkpt lat="45.12774" lon="5.75354">
        <ele>361.72</ele>
        <time>2020-06-16T09:52:57.000Z</time>
      </trkpt>
      <trkpt lat="45.12786" lon="5.75346">
        <ele>365.45</ele>
        <time>2020-06-16T09:53:02.000Z</time>
      </trkpt>
      <trkpt lat="45.128" lon="5.75339">
        <ele>366.81</ele>
        <time>2020-06-16T09:53:07.000Z</time>
      </trkpt>
      <trkpt lat="45.12815" lon="5.7533">
        <ele>367.98</ele>
        <time>2020-06-16T09:53:12.000Z</time>
      </trkpt>
      <trkpt lat="45.12826" lon="5.75321">
        <ele>365.77</ele>
        <time>2020-06-16T09:53:17.000Z</time>
      </trkpt>
      <trkpt lat="45.12838" lon="5.75307">
        <ele>361.94</ele>
        <time>2020-06-16T09:53:22.000Z</time>
      </trkpt>
      <trkpt lat="45.12853" lon="5.75295">
        <ele>358.1</ele>
        <time>2020-06-16T09:53:27.000Z</time>
      </trkpt>
      <trkpt lat="45.12872" lon="5.75279">
        <ele>360.13</ele>
        <time>2020-06-16T09:53:32.000Z</time>
      </trkpt>
      <trkpt lat="45.12894" lon="5.75258">
        <ele>359.91</ele>
        <time>2020-06-16T09:53:37.000Z</time>
      </trkpt>
      <trkpt lat="45.12916" lon="5.75248">
        <ele>365.22</ele>
        <time>2020-06-16T09:53:42.000Z</time>
      </trkpt>
      <trkpt lat="45.1294" lon="5.75236">
        <ele>366.19</ele>
        <time>2020-06-16T09:53:47.000Z</time>
      </trkpt>
      <trkpt lat="45.12965" lon="5.75218">
        <ele>364.1</ele>
        <time>2020-06-16T09:53:52.000Z</time>
      </trkpt>
      <trkpt lat="45.12985" lon="5.75201">
        <ele>367.62</ele>
        <time>2020-06-16T09:53:57.000Z</time>
      </trkpt>
      <trkpt lat="45.13006" lon="5.75192">
        <ele>370.86</ele>
        <time>2020-06-16T09:54:02.000Z</time>
      </trkpt>
      <trkpt lat="45.13028" lon="5.75183">
        <ele>370.88</ele>
        <time>2020-06-16T09:54:07.000Z</time>
      </trkpt>
      <trkpt lat="45.13048" lon="5.75179">
        <ele>373.78</ele>
        <time>2020-06-16T09:54:12.000Z</time>
      </trkpt>
      <trkpt lat="45.13064" lon="5.7517">
        <ele>372.81</ele>
        <time>2020-06-16T09:54:17.000Z</time>
      </trkpt>
      <trkpt lat="45.13083" lon="5.75161">
        <ele>370.69</ele>
        <time>2020-06-16T09:54:22.000Z</time>
      </trkpt>
      <trkpt lat="45.13108" lon="5.75154">
        <ele>369.2</ele>
        <time>2020-06-16T09:54:27.000Z</time>
      </trkpt>
      <trkpt lat="45.13132" lon="5.75139">
        <ele>369.72</ele>
        <time>2020-06-16T09:54:32.000Z</time>
      </trkpt>
      <trkpt lat="45.13155" lon="5.7513">
        <ele>369.16</ele>
        <time>2020-06-16T09:54:37.000Z</time>
      </trkpt>
      <trkpt lat="45.1318" lon="5.75112">
        <ele>367.26</ele>
        <time>2020-06-16T09:54:42.000Z</time>
      </trkpt>
      <trkpt lat="45.13209" lon="5.75098">
        <ele>372.44</ele>
        <time>2020-06-16T09:54:47.000Z</time>
      </trkpt>
      <trkpt lat="45.13236" lon="5.75085">
        <ele>373.25</ele>
        <time>2020-06-16T09:54:52.000Z</time>
      </trkpt>
      <trkpt lat="45.13261" lon="5.75073">
        <ele>371.54</ele>
        <time>2020-06-16T09:54:57.000Z</time>
      </trkpt>
      <trkpt lat="45.13283" lon="5.75058">
        <ele>376.81</ele>
        <time>2020-06-16T09:55:02.000Z</time>
      </trkpt>
      <trkpt lat="45.13305" lon="5.75041">
        <ele>373.98</ele>
        <time>2020-06-16T09:55:07.000Z</time>
      </trkpt>
      <trkpt lat="45.13315" lon="5.75031">
        <ele>372.93</ele>
        <time>2020-06-16T09:55:12.000Z</time>
      </trkpt>
      <trkpt lat="45.13321" lon="5.75021">
        <ele>369.9</ele>
        <time>2020-06-16T09:55:20.000Z</time>
      </trkpt>
      <trkpt lat="45.13329" lon="5.75014">
        <ele>369.31</ele>
        <time>2020-06-16T09:55:33.000Z</time>
      </trkpt>
      <trkpt lat="45.13351" lon="5.74998">
        <ele>367.18</ele>
        <time>2020-06-16T09:55:38.000Z</time>
      </trkpt>
      <trkpt lat="45.13374" lon="5.74996">
        <ele>366.73</ele>
        <time>2020-06-16T09:55:43.000Z</time>
      </trkpt>
      <trkpt lat="45.13401" lon="5.74989">
        <ele>357.47</ele>
        <time>2020-06-16T09:55:48.000Z</time>
      </trkpt>
      <trkpt lat="45.13419" lon="5.74972">
        <ele>349.94</ele>
        <time>2020-06-16T09:55:53.000Z</time>
      </trkpt>
      <trkpt lat="45.13414" lon="5.7499">
        <ele>344.45</ele>
        <time>2020-06-16T09:55:58.000Z</time>
      </trkpt>
      <trkpt lat="45.13407" lon="5.7501">
        <ele>348.64</ele>
        <time>2020-06-16T09:56:03.000Z</time>
      </trkpt>
      <trkpt lat="45.13419" lon="5.75051">
        <ele>344.22</ele>
        <time>2020-06-16T09:56:08.000Z</time>
      </trkpt>
      <trkpt lat="45.13428" lon="5.75082">
        <ele>340.42</ele>
        <time>2020-06-16T09:56:13.000Z</time>
      </trkpt>
      <trkpt lat="45.13447" lon="5.75066">
        <ele>340.65</ele>
        <time>2020-06-16T09:56:18.000Z</time>
      </trkpt>
      <trkpt lat="45.13472" lon="5.75041">
        <ele>335.55</ele>
        <time>2020-06-16T09:56:23.000Z</time>
      </trkpt>
      <trkpt lat="45.13486" lon="5.7501">
        <ele>328.97</ele>
        <time>2020-06-16T09:56:28.000Z</time>
      </trkpt>
      <trkpt lat="45.13494" lon="5.74988">
        <ele>324.75</ele>
        <time>2020-06-16T09:56:33.000Z</time>
      </trkpt>
      <trkpt lat="45.13501" lon="5.74961">
        <ele>319.51</ele>
        <time>2020-06-16T09:56:38.000Z</time>
      </trkpt>
      <trkpt lat="45.13511" lon="5.74937">
        <ele>322.02</ele>
        <time>2020-06-16T09:56:43.000Z</time>
      </trkpt>
      <trkpt lat="45.13528" lon="5.74931">
        <ele>321.26</ele>
        <time>2020-06-16T09:56:48.000Z</time>
      </trkpt>
      <trkpt lat="45.13555" lon="5.74928">
        <ele>322.12</ele>
        <time>2020-06-16T09:56:53.000Z</time>
      </trkpt>
      <trkpt lat="45.13581" lon="5.74924">
        <ele>321.59</ele>
        <time>2020-06-16T09:56:58.000Z</time>
      </trkpt>
      <trkpt lat="45.1361" lon="5.74913">
        <ele>319.84</ele>
        <time>2020-06-16T09:57:03.000Z</time>
      </trkpt>
      <trkpt lat="45.13634" lon="5.74885">
        <ele>311.57</ele>
        <time>2020-06-16T09:57:08.000Z</time>
      </trkpt>
      <trkpt lat="45.13644" lon="5.74875">
        <ele>310.07</ele>
        <time>2020-06-16T09:57:13.000Z</time>
      </trkpt>
      <trkpt lat="45.13664" lon="5.74872">
        <ele>310.25</ele>
        <time>2020-06-16T09:57:18.000Z</time>
      </trkpt>
      <trkpt lat="45.13679" lon="5.74867">
        <ele>309.4</ele>
        <time>2020-06-16T09:57:23.000Z</time>
      </trkpt>
      <trkpt lat="45.13698" lon="5.74872">
        <ele>310.22</ele>
        <time>2020-06-16T09:57:28.000Z</time>
      </trkpt>
      <trkpt lat="45.13716" lon="5.74872">
        <ele>309.46</ele>
        <time>2020-06-16T09:57:33.000Z</time>
      </trkpt>
      <trkpt lat="45.13737" lon="5.74866">
        <ele>301.75</ele>
        <time>2020-06-16T09:57:38.000Z</time>
      </trkpt>
      <trkpt lat="45.13746" lon="5.74875">
        <ele>289.41</ele>
        <time>2020-06-16T09:57:45.000Z</time>
      </trkpt>
      <trkpt lat="45.13768" lon="5.74903">
        <ele>285.21</ele>
        <time>2020-06-16T09:57:50.000Z</time>
      </trkpt>
      <trkpt lat="45.13784" lon="5.74924">
        <ele>281.03</ele>
        <time>2020-06-16T09:57:55.000Z</time>
      </trkpt>
      <trkpt lat="45.13794" lon="5.74956">
        <ele>280.37</ele>
        <time>2020-06-16T09:58:00.000Z</time>
      </trkpt>
      <trkpt lat="45.13808" lon="5.74981">
        <ele>280.77</ele>
        <time>2020-06-16T09:58:05.000Z</time>
      </trkpt>
      <trkpt lat="45.13818" lon="5.75002">
        <ele>280.81</ele>
        <time>2020-06-16T09:58:10.000Z</time>
      </trkpt>
      <trkpt lat="45.1381" lon="5.7501">
        <ele>278.94</ele>
        <time>2020-06-16T09:58:26.000Z</time>
      </trkpt>
      <trkpt lat="45.13819" lon="5.75008">
        <ele>275.7</ele>
        <time>2020-06-16T09:59:13.000Z</time>
      </trkpt>
      <trkpt lat="45.13828" lon="5.75008">
        <ele>274.17</ele>
        <time>2020-06-16T09:59:32.000Z</time>
      </trkpt>
      <trkpt lat="45.13838" lon="5.75021">
        <ele>275.45</ele>
        <time>2020-06-16T09:59:37.000Z</time>
      </trkpt>
      <trkpt lat="45.13854" lon="5.75033">
        <ele>275.79</ele>
        <time>2020-06-16T09:59:42.000Z</time>
      </trkpt>
      <trkpt lat="45.13873" lon="5.75045">
        <ele>274.57</ele>
        <time>2020-06-16T09:59:47.000Z</time>
      </trkpt>
      <trkpt lat="45.13903" lon="5.75053">
        <ele>276.71</ele>
        <time>2020-06-16T09:59:52.000Z</time>
      </trkpt>
      <trkpt lat="45.13928" lon="5.75057">
        <ele>272.51</ele>
        <time>2020-06-16T09:59:57.000Z</time>
      </trkpt>
      <trkpt lat="45.13953" lon="5.75055">
        <ele>271.78</ele>
        <time>2020-06-16T10:00:02.000Z</time>
      </trkpt>
      <trkpt lat="45.1398" lon="5.75049">
        <ele>270.11</ele>
        <time>2020-06-16T10:00:07.000Z</time>
      </trkpt>
      <trkpt lat="45.14007" lon="5.75036">
        <ele>268.21</ele>
        <time>2020-06-16T10:00:12.000Z</time>
      </trkpt>
      <trkpt lat="45.14037" lon="5.75027">
        <ele>265.53</ele>
        <time>2020-06-16T10:00:17.000Z</time>
      </trkpt>
      <trkpt lat="45.1406" lon="5.75008">
        <ele>265.04</ele>
        <time>2020-06-16T10:00:22.000Z</time>
      </trkpt>
      <trkpt lat="45.14083" lon="5.74997">
        <ele>264.35</ele>
        <time>2020-06-16T10:00:27.000Z</time>
      </trkpt>
      <trkpt lat="45.1411" lon="5.74983">
        <ele>262.74</ele>
        <time>2020-06-16T10:00:32.000Z</time>
      </trkpt>
      <trkpt lat="45.14135" lon="5.74969">
        <ele>263.59</ele>
        <time>2020-06-16T10:00:37.000Z</time>
      </trkpt>
      <trkpt lat="45.14158" lon="5.74963">
        <ele>262.08</ele>
        <time>2020-06-16T10:00:42.000Z</time>
      </trkpt>
      <trkpt lat="45.14179" lon="5.74946">
        <ele>264.2</ele>
        <time>2020-06-16T10:00:47.000Z</time>
      </trkpt>
      <trkpt lat="45.14203" lon="5.74935">
        <ele>261.31</ele>
        <time>2020-06-16T10:00:52.000Z</time>
      </trkpt>
      <trkpt lat="45.14226" lon="5.74923">
        <ele>258.06</ele>
        <time>2020-06-16T10:00:57.000Z</time>
      </trkpt>
      <trkpt lat="45.14247" lon="5.74914">
        <ele>255.59</ele>
        <time>2020-06-16T10:01:02.000Z</time>
      </trkpt>
      <trkpt lat="45.1427" lon="5.74913">
        <ele>252.76</ele>
        <time>2020-06-16T10:01:07.000Z</time>
      </trkpt>
      <trkpt lat="45.14292" lon="5.74906">
        <ele>255.48</ele>
        <time>2020-06-16T10:01:12.000Z</time>
      </trkpt>
      <trkpt lat="45.14312" lon="5.749">
        <ele>258.47</ele>
        <time>2020-06-16T10:01:17.000Z</time>
      </trkpt>
      <trkpt lat="45.14332" lon="5.74883">
        <ele>265.5</ele>
        <time>2020-06-16T10:01:22.000Z</time>
      </trkpt>
      <trkpt lat="45.14352" lon="5.74874">
        <ele>265.4</ele>
        <time>2020-06-16T10:01:27.000Z</time>
      </trkpt>
      <trkpt lat="45.14369" lon="5.74872">
        <ele>266.13</ele>
        <time>2020-06-16T10:01:32.000Z</time>
      </trkpt>
      <trkpt lat="45.1439" lon="5.74859">
        <ele>263.39</ele>
        <time>2020-06-16T10:01:37.000Z</time>
      </trkpt>
      <trkpt lat="45.14416" lon="5.74856">
        <ele>257.93</ele>
        <time>2020-06-16T10:01:42.000Z</time>
      </trkpt>
      <trkpt lat="45.1444" lon="5.74856">
        <ele>256.42</ele>
        <time>2020-06-16T10:01:47.000Z</time>
      </trkpt>
      <trkpt lat="45.1446" lon="5.74851">
        <ele>256.5</ele>
        <time>2020-06-16T10:01:52.000Z</time>
      </trkpt>
      <trkpt lat="45.14485" lon="5.74849">
        <ele>257.45</ele>
        <time>2020-06-16T10:01:57.000Z</time>
      </trkpt>
      <trkpt lat="45.14513" lon="5.74841">
        <ele>260.1</ele>
        <time>2020-06-16T10:02:02.000Z</time>
      </trkpt>
      <trkpt lat="45.1454" lon="5.74835">
        <ele>261.92</ele>
        <time>2020-06-16T10:02:07.000Z</time>
      </trkpt>
      <trkpt lat="45.14565" lon="5.74825">
        <ele>261.98</ele>
        <time>2020-06-16T10:02:12.000Z</time>
      </trkpt>
      <trkpt lat="45.1459" lon="5.74816">
        <ele>261.35</ele>
        <time>2020-06-16T10:02:17.000Z</time>
      </trkpt>
      <trkpt lat="45.14619" lon="5.74801">
        <ele>262.58</ele>
        <time>2020-06-16T10:02:22.000Z</time>
      </trkpt>
      <trkpt lat="45.14655" lon="5.74778">
        <ele>261.38</ele>
        <time>2020-06-16T10:02:27.000Z</time>
      </trkpt>
      <trkpt lat="45.14704" lon="5.74782">
        <ele>251.1</ele>
        <time>2020-06-16T10:02:32.000Z</time>
      </trkpt>
      <trkpt lat="45.14742" lon="5.74812">
        <ele>248.28</ele>
        <time>2020-06-16T10:02:37.000Z</time>
      </trkpt>
      <trkpt lat="45.14722" lon="5.74878">
        <ele>252.44</ele>
        <time>2020-06-16T10:02:42.000Z</time>
      </trkpt>
      <trkpt lat="45.14704" lon="5.74911">
        <ele>250.54</ele>
        <time>2020-06-16T10:02:47.000Z</time>
      </trkpt>
      <trkpt lat="45.14706" lon="5.74933">
        <ele>252.81</ele>
        <time>2020-06-16T10:02:52.000Z</time>
      </trkpt>
      <trkpt lat="45.14717" lon="5.74951">
        <ele>253.89</ele>
        <time>2020-06-16T10:02:57.000Z</time>
      </trkpt>
      <trkpt lat="45.14729" lon="5.74972">
        <ele>256.16</ele>
        <time>2020-06-16T10:03:02.000Z</time>
      </trkpt>
      <trkpt lat="45.14734" lon="5.75003">
        <ele>259.09</ele>
        <time>2020-06-16T10:03:07.000Z</time>
      </trkpt>
      <trkpt lat="45.14735" lon="5.7504">
        <ele>257.7</ele>
        <time>2020-06-16T10:03:12.000Z</time>
      </trkpt>
      <trkpt lat="45.14741" lon="5.75067">
        <ele>261.29</ele>
        <time>2020-06-16T10:03:17.000Z</time>
      </trkpt>
      <trkpt lat="45.14753" lon="5.75093">
        <ele>261.42</ele>
        <time>2020-06-16T10:03:22.000Z</time>
      </trkpt>
      <trkpt lat="45.14749" lon="5.75115">
        <ele>259.83</ele>
        <time>2020-06-16T10:03:27.000Z</time>
      </trkpt>
      <trkpt lat="45.14755" lon="5.75127">
        <ele>260.25</ele>
        <time>2020-06-16T10:03:34.000Z</time>
      </trkpt>
      <trkpt lat="45.14766" lon="5.75125">
        <ele>257.03</ele>
        <time>2020-06-16T10:03:39.000Z</time>
      </trkpt>
      <trkpt lat="45.14784" lon="5.75118">
        <ele>257.62</ele>
        <time>2020-06-16T10:03:44.000Z</time>
      </trkpt>
      <trkpt lat="45.14804" lon="5.75113">
        <ele>258.07</ele>
        <time>2020-06-16T10:03:49.000Z</time>
      </trkpt>
      <trkpt lat="45.14824" lon="5.75105">
        <ele>252.06</ele>
        <time>2020-06-16T10:03:54.000Z</time>
      </trkpt>
      <trkpt lat="45.14844" lon="5.75097">
        <ele>253</ele>
        <time>2020-06-16T10:03:59.000Z</time>
      </trkpt>
      <trkpt lat="45.1487" lon="5.75082">
        <ele>250.46</ele>
        <time>2020-06-16T10:04:04.000Z</time>
      </trkpt>
      <trkpt lat="45.14901" lon="5.75067">
        <ele>247.88</ele>
        <time>2020-06-16T10:04:09.000Z</time>
      </trkpt>
      <trkpt lat="45.14936" lon="5.7505">
        <ele>248.89</ele>
        <time>2020-06-16T10:04:14.000Z</time>
      </trkpt>
      <trkpt lat="45.14958" lon="5.75032">
        <ele>248.56</ele>
        <time>2020-06-16T10:04:19.000Z</time>
      </trkpt>
      <trkpt lat="45.14968" lon="5.75026">
        <ele>247.88</ele>
        <time>2020-06-16T10:04:24.000Z</time>
      </trkpt>
      <trkpt lat="45.14975" lon="5.75013">
        <ele>251.42</ele>
        <time>2020-06-16T10:04:43.000Z</time>
      </trkpt>
      <trkpt lat="45.14994" lon="5.7501">
        <ele>250.91</ele>
        <time>2020-06-16T10:04:48.000Z</time>
      </trkpt>
      <trkpt lat="45.15021" lon="5.75019">
        <ele>252.28</ele>
        <time>2020-06-16T10:04:53.000Z</time>
      </trkpt>
      <trkpt lat="45.15046" lon="5.75024">
        <ele>248.71</ele>
        <time>2020-06-16T10:04:58.000Z</time>
      </trkpt>
      <trkpt lat="45.15067" lon="5.75037">
        <ele>245.41</ele>
        <time>2020-06-16T10:05:03.000Z</time>
      </trkpt>
      <trkpt lat="45.1509" lon="5.75045">
        <ele>246.02</ele>
        <time>2020-06-16T10:05:08.000Z</time>
      </trkpt>
      <trkpt lat="45.15112" lon="5.75055">
        <ele>247.37</ele>
        <time>2020-06-16T10:05:13.000Z</time>
      </trkpt>
      <trkpt lat="45.15134" lon="5.75072">
        <ele>236.33</ele>
        <time>2020-06-16T10:05:18.000Z</time>
      </trkpt>
      <trkpt lat="45.15158" lon="5.75065">
        <ele>234.8</ele>
        <time>2020-06-16T10:05:23.000Z</time>
      </trkpt>
      <trkpt lat="45.15182" lon="5.7506">
        <ele>235.05</ele>
        <time>2020-06-16T10:05:28.000Z</time>
      </trkpt>
      <trkpt lat="45.15206" lon="5.75068">
        <ele>234.78</ele>
        <time>2020-06-16T10:05:33.000Z</time>
      </trkpt>
      <trkpt lat="45.1523" lon="5.75075">
        <ele>234.73</ele>
        <time>2020-06-16T10:05:38.000Z</time>
      </trkpt>
      <trkpt lat="45.15241" lon="5.75076">
        <ele>233.37</ele>
        <time>2020-06-16T10:05:53.000Z</time>
      </trkpt>
      <trkpt lat="45.15253" lon="5.75077">
        <ele>233.43</ele>
        <time>2020-06-16T10:05:58.000Z</time>
      </trkpt>
      <trkpt lat="45.15266" lon="5.75087">
        <ele>232.43</ele>
        <time>2020-06-16T10:06:03.000Z</time>
      </trkpt>
      <trkpt lat="45.15276" lon="5.75091">
        <ele>235.31</ele>
        <time>2020-06-16T10:06:09.000Z</time>
      </trkpt>
      <trkpt lat="45.1529" lon="5.75101">
        <ele>234.11</ele>
        <time>2020-06-16T10:06:14.000Z</time>
      </trkpt>
      <trkpt lat="45.15316" lon="5.75115">
        <ele>231.27</ele>
        <time>2020-06-16T10:06:19.000Z</time>
      </trkpt>
      <trkpt lat="45.15337" lon="5.75122">
        <ele>228.26</ele>
        <time>2020-06-16T10:06:24.000Z</time>
      </trkpt>
      <trkpt lat="45.15353" lon="5.75136">
        <ele>233.68</ele>
        <time>2020-06-16T10:06:29.000Z</time>
      </trkpt>
      <trkpt lat="45.15374" lon="5.7515">
        <ele>234.23</ele>
        <time>2020-06-16T10:06:34.000Z</time>
      </trkpt>
      <trkpt lat="45.15387" lon="5.75147">
        <ele>233.82</ele>
        <time>2020-06-16T10:06:39.000Z</time>
      </trkpt>
      <trkpt lat="45.15396" lon="5.75151">
        <ele>234.94</ele>
        <time>2020-06-16T10:06:46.000Z</time>
      </trkpt>
      <trkpt lat="45.15408" lon="5.75172">
        <ele>233.9</ele>
        <time>2020-06-16T10:06:51.000Z</time>
      </trkpt>
      <trkpt lat="45.15417" lon="5.75182">
        <ele>230.27</ele>
        <time>2020-06-16T10:06:56.000Z</time>
      </trkpt>
      <trkpt lat="45.15424" lon="5.75192">
        <ele>227.81</ele>
        <time>2020-06-16T10:07:01.000Z</time>
      </trkpt>
      <trkpt lat="45.15437" lon="5.7521">
        <ele>224.82</ele>
        <time>2020-06-16T10:07:06.000Z</time>
      </trkpt>
      <trkpt lat="45.15454" lon="5.75228">
        <ele>226.44</ele>
        <time>2020-06-16T10:07:11.000Z</time>
      </trkpt>
      <trkpt lat="45.15467" lon="5.75248">
        <ele>229.03</ele>
        <time>2020-06-16T10:07:16.000Z</time>
      </trkpt>
      <trkpt lat="45.15481" lon="5.75268">
        <ele>233.8</ele>
        <time>2020-06-16T10:07:21.000Z</time>
      </trkpt>
      <trkpt lat="45.15496" lon="5.75287">
        <ele>232.55</ele>
        <time>2020-06-16T10:07:26.000Z</time>
      </trkpt>
      <trkpt lat="45.15506" lon="5.75302">
        <ele>235.19</ele>
        <time>2020-06-16T10:07:31.000Z</time>
      </trkpt>
      <trkpt lat="45.15519" lon="5.75323">
        <ele>235.16</ele>
        <time>2020-06-16T10:07:36.000Z</time>
      </trkpt>
      <trkpt lat="45.15535" lon="5.75345">
        <ele>235.95</ele>
        <time>2020-06-16T10:07:41.000Z</time>
      </trkpt>
      <trkpt lat="45.15552" lon="5.75366">
        <ele>234.07</ele>
        <time>2020-06-16T10:07:46.000Z</time>
      </trkpt>
      <trkpt lat="45.15569" lon="5.7539">
        <ele>231.94</ele>
        <time>2020-06-16T10:07:51.000Z</time>
      </trkpt>
      <trkpt lat="45.15584" lon="5.75413">
        <ele>230.55</ele>
        <time>2020-06-16T10:07:56.000Z</time>
      </trkpt>
      <trkpt lat="45.15597" lon="5.75432">
        <ele>228.77</ele>
        <time>2020-06-16T10:08:01.000Z</time>
      </trkpt>
      <trkpt lat="45.15611" lon="5.75454">
        <ele>224.49</ele>
        <time>2020-06-16T10:08:06.000Z</time>
      </trkpt>
      <trkpt lat="45.15623" lon="5.75474">
        <ele>222.26</ele>
        <time>2020-06-16T10:08:11.000Z</time>
      </trkpt>
      <trkpt lat="45.15638" lon="5.75499">
        <ele>224.25</ele>
        <time>2020-06-16T10:08:16.000Z</time>
      </trkpt>
      <trkpt lat="45.15652" lon="5.75519">
        <ele>225.8</ele>
        <time>2020-06-16T10:08:21.000Z</time>
      </trkpt>
      <trkpt lat="45.15664" lon="5.75547">
        <ele>224.85</ele>
        <time>2020-06-16T10:08:26.000Z</time>
      </trkpt>
      <trkpt lat="45.15677" lon="5.75571">
        <ele>223.46</ele>
        <time>2020-06-16T10:08:31.000Z</time>
      </trkpt>
      <trkpt lat="45.15691" lon="5.75594">
        <ele>224.18</ele>
        <time>2020-06-16T10:08:36.000Z</time>
      </trkpt>
      <trkpt lat="45.15702" lon="5.75617">
        <ele>221.49</ele>
        <time>2020-06-16T10:08:41.000Z</time>
      </trkpt>
      <trkpt lat="45.15717" lon="5.75643">
        <ele>224.12</ele>
        <time>2020-06-16T10:08:46.000Z</time>
      </trkpt>
      <trkpt lat="45.15733" lon="5.7567">
        <ele>224.79</ele>
        <time>2020-06-16T10:08:51.000Z</time>
      </trkpt>
      <trkpt lat="45.15747" lon="5.75694">
        <ele>220.95</ele>
        <time>2020-06-16T10:08:56.000Z</time>
      </trkpt>
      <trkpt lat="45.15762" lon="5.75715">
        <ele>223.42</ele>
        <time>2020-06-16T10:09:01.000Z</time>
      </trkpt>
      <trkpt lat="45.15775" lon="5.7574">
        <ele>222.85</ele>
        <time>2020-06-16T10:09:06.000Z</time>
      </trkpt>
      <trkpt lat="45.15788" lon="5.75765">
        <ele>225</ele>
        <time>2020-06-16T10:09:11.000Z</time>
      </trkpt>
      <trkpt lat="45.15801" lon="5.75791">
        <ele>223.45</ele>
        <time>2020-06-16T10:09:16.000Z</time>
      </trkpt>
      <trkpt lat="45.15815" lon="5.75801">
        <ele>222.49</ele>
        <time>2020-06-16T10:09:21.000Z</time>
      </trkpt>
      <trkpt lat="45.15819" lon="5.75814">
        <ele>225.76</ele>
        <time>2020-06-16T10:09:26.000Z</time>
      </trkpt>
      <trkpt lat="45.15824" lon="5.75829">
        <ele>224.15</ele>
        <time>2020-06-16T10:09:31.000Z</time>
      </trkpt>
      <trkpt lat="45.15827" lon="5.75842">
        <ele>224.85</ele>
        <time>2020-06-16T10:15:40.000Z</time>
      </trkpt>
      <trkpt lat="45.15835" lon="5.75857">
        <ele>221.1</ele>
        <time>2020-06-16T10:15:45.000Z</time>
      </trkpt>
      <trkpt lat="45.15844" lon="5.75873">
        <ele>222.61</ele>
        <time>2020-06-16T10:15:50.000Z</time>
      </trkpt>
      <trkpt lat="45.15854" lon="5.75886">
        <ele>222.46</ele>
        <time>2020-06-16T10:15:55.000Z</time>
      </trkpt>
      <trkpt lat="45.15864" lon="5.75895">
        <ele>225.57</ele>
        <time>2020-06-16T10:16:00.000Z</time>
      </trkpt>
      <trkpt lat="45.15874" lon="5.75895">
        <ele>224.84</ele>
        <time>2020-06-16T10:16:05.000Z</time>
      </trkpt>
      <trkpt lat="45.15879" lon="5.75907">
        <ele>224.43</ele>
        <time>2020-06-16T10:16:12.000Z</time>
      </trkpt>
      <trkpt lat="45.15878" lon="5.75921">
        <ele>224.38</ele>
        <time>2020-06-16T10:16:17.000Z</time>
      </trkpt>
      <trkpt lat="45.15886" lon="5.75926">
        <ele>218.2</ele>
        <time>2020-06-16T10:16:39.000Z</time>
      </trkpt>
      <trkpt lat="45.15899" lon="5.75939">
        <ele>217.66</ele>
        <time>2020-06-16T10:16:44.000Z</time>
      </trkpt>
      <trkpt lat="45.15908" lon="5.75946">
        <ele>216.22</ele>
        <time>2020-06-16T10:16:49.000Z</time>
      </trkpt>
      <trkpt lat="45.15921" lon="5.7596">
        <ele>216.9</ele>
        <time>2020-06-16T10:16:54.000Z</time>
      </trkpt>
      <trkpt lat="45.15934" lon="5.75976">
        <ele>217.48</ele>
        <time>2020-06-16T10:16:59.000Z</time>
      </trkpt>
      <trkpt lat="45.15942" lon="5.7599">
        <ele>222.93</ele>
        <time>2020-06-16T10:17:04.000Z</time>
      </trkpt>
      <trkpt lat="45.15952" lon="5.76005">
        <ele>222.52</ele>
        <time>2020-06-16T10:17:09.000Z</time>
      </trkpt>
      <trkpt lat="45.15964" lon="5.76021">
        <ele>220.02</ele>
        <time>2020-06-16T10:17:14.000Z</time>
      </trkpt>
      <trkpt lat="45.15977" lon="5.76038">
        <ele>221.86</ele>
        <time>2020-06-16T10:17:19.000Z</time>
      </trkpt>
      <trkpt lat="45.15991" lon="5.76053">
        <ele>220.12</ele>
        <time>2020-06-16T10:17:24.000Z</time>
      </trkpt>
      <trkpt lat="45.16007" lon="5.7607">
        <ele>220.88</ele>
        <time>2020-06-16T10:17:29.000Z</time>
      </trkpt>
      <trkpt lat="45.16019" lon="5.76084">
        <ele>219.91</ele>
        <time>2020-06-16T10:17:34.000Z</time>
      </trkpt>
      <trkpt lat="45.16033" lon="5.76098">
        <ele>219.29</ele>
        <time>2020-06-16T10:17:39.000Z</time>
      </trkpt>
      <trkpt lat="45.16046" lon="5.76105">
        <ele>216.32</ele>
        <time>2020-06-16T10:17:44.000Z</time>
      </trkpt>
      <trkpt lat="45.16055" lon="5.76113">
        <ele>218.59</ele>
        <time>2020-06-16T10:17:49.000Z</time>
      </trkpt>
      <trkpt lat="45.16059" lon="5.76125">
        <ele>218.73</ele>
        <time>2020-06-16T10:17:54.000Z</time>
      </trkpt>
      <trkpt lat="45.16067" lon="5.76133">
        <ele>216.34</ele>
        <time>2020-06-16T10:17:59.000Z</time>
      </trkpt>
      <trkpt lat="45.16077" lon="5.76141">
        <ele>216.05</ele>
        <time>2020-06-16T10:18:04.000Z</time>
      </trkpt>
      <trkpt lat="45.16087" lon="5.7615">
        <ele>215.81</ele>
        <time>2020-06-16T10:18:09.000Z</time>
      </trkpt>
      <trkpt lat="45.16098" lon="5.76162">
        <ele>218.23</ele>
        <time>2020-06-16T10:18:14.000Z</time>
      </trkpt>
      <trkpt lat="45.16112" lon="5.76179">
        <ele>223</ele>
        <time>2020-06-16T10:18:19.000Z</time>
      </trkpt>
      <trkpt lat="45.16128" lon="5.76197">
        <ele>224.26</ele>
        <time>2020-06-16T10:18:24.000Z</time>
      </trkpt>
      <trkpt lat="45.16146" lon="5.76213">
        <ele>227.89</ele>
        <time>2020-06-16T10:18:29.000Z</time>
      </trkpt>
      <trkpt lat="45.16166" lon="5.76215">
        <ele>228.08</ele>
        <time>2020-06-16T10:18:34.000Z</time>
      </trkpt>
      <trkpt lat="45.16181" lon="5.76224">
        <ele>228.4</ele>
        <time>2020-06-16T10:18:39.000Z</time>
      </trkpt>
      <trkpt lat="45.16194" lon="5.76239">
        <ele>228.85</ele>
        <time>2020-06-16T10:18:44.000Z</time>
      </trkpt>
      <trkpt lat="45.16204" lon="5.7624">
        <ele>228.37</ele>
        <time>2020-06-16T10:18:49.000Z</time>
      </trkpt>
      <trkpt lat="45.16214" lon="5.76244">
        <ele>226.28</ele>
        <time>2020-06-16T10:18:54.000Z</time>
      </trkpt>
      <trkpt lat="45.16224" lon="5.7626">
        <ele>229.89</ele>
        <time>2020-06-16T10:18:59.000Z</time>
      </trkpt>
      <trkpt lat="45.16234" lon="5.76282">
        <ele>228</ele>
        <time>2020-06-16T10:19:04.000Z</time>
      </trkpt>
      <trkpt lat="45.16247" lon="5.76298">
        <ele>228.04</ele>
        <time>2020-06-16T10:19:09.000Z</time>
      </trkpt>
      <trkpt lat="45.16265" lon="5.76308">
        <ele>227.45</ele>
        <time>2020-06-16T10:19:14.000Z</time>
      </trkpt>
      <trkpt lat="45.16284" lon="5.76322">
        <ele>223.31</ele>
        <time>2020-06-16T10:19:19.000Z</time>
      </trkpt>
      <trkpt lat="45.16304" lon="5.76338">
        <ele>224.33</ele>
        <time>2020-06-16T10:19:24.000Z</time>
      </trkpt>
      <trkpt lat="45.16323" lon="5.76357">
        <ele>224.96</ele>
        <time>2020-06-16T10:19:29.000Z</time>
      </trkpt>
      <trkpt lat="45.16341" lon="5.76373">
        <ele>226.37</ele>
        <time>2020-06-16T10:19:34.000Z</time>
      </trkpt>
      <trkpt lat="45.16358" lon="5.76388">
        <ele>229.71</ele>
        <time>2020-06-16T10:19:39.000Z</time>
      </trkpt>
      <trkpt lat="45.16377" lon="5.76404">
        <ele>231.67</ele>
        <time>2020-06-16T10:19:44.000Z</time>
      </trkpt>
      <trkpt lat="45.16395" lon="5.76422">
        <ele>229.81</ele>
        <time>2020-06-16T10:19:49.000Z</time>
      </trkpt>
      <trkpt lat="45.1641" lon="5.76436">
        <ele>228.27</ele>
        <time>2020-06-16T10:19:54.000Z</time>
      </trkpt>
      <trkpt lat="45.1642" lon="5.76437">
        <ele>225.69</ele>
        <time>2020-06-16T10:20:00.000Z</time>
      </trkpt>
      <trkpt lat="45.16429" lon="5.76443">
        <ele>224.62</ele>
        <time>2020-06-16T10:20:06.000Z</time>
      </trkpt>
      <trkpt lat="45.1644" lon="5.76461">
        <ele>224.21</ele>
        <time>2020-06-16T10:20:11.000Z</time>
      </trkpt>
      <trkpt lat="45.16458" lon="5.76474">
        <ele>223.77</ele>
        <time>2020-06-16T10:20:16.000Z</time>
      </trkpt>
      <trkpt lat="45.16474" lon="5.76495">
        <ele>225.59</ele>
        <time>2020-06-16T10:20:21.000Z</time>
      </trkpt>
      <trkpt lat="45.16491" lon="5.76514">
        <ele>227.71</ele>
        <time>2020-06-16T10:20:26.000Z</time>
      </trkpt>
      <trkpt lat="45.16507" lon="5.7653">
        <ele>224.08</ele>
        <time>2020-06-16T10:20:31.000Z</time>
      </trkpt>
      <trkpt lat="45.16523" lon="5.76547">
        <ele>226.7</ele>
        <time>2020-06-16T10:20:36.000Z</time>
      </trkpt>
      <trkpt lat="45.1654" lon="5.76563">
        <ele>228.37</ele>
        <time>2020-06-16T10:20:41.000Z</time>
      </trkpt>
      <trkpt lat="45.16554" lon="5.76576">
        <ele>228.67</ele>
        <time>2020-06-16T10:20:46.000Z</time>
      </trkpt>
      <trkpt lat="45.16558" lon="5.7659">
        <ele>225.59</ele>
        <time>2020-06-16T10:20:51.000Z</time>
      </trkpt>
      <trkpt lat="45.16563" lon="5.76611">
        <ele>224.39</ele>
        <time>2020-06-16T10:20:56.000Z</time>
      </trkpt>
      <trkpt lat="45.16575" lon="5.76623">
        <ele>223.94</ele>
        <time>2020-06-16T10:21:01.000Z</time>
      </trkpt>
      <trkpt lat="45.16586" lon="5.76634">
        <ele>225.19</ele>
        <time>2020-06-16T10:21:06.000Z</time>
      </trkpt>
      <trkpt lat="45.166" lon="5.76647">
        <ele>224.9</ele>
        <time>2020-06-16T10:21:11.000Z</time>
      </trkpt>
      <trkpt lat="45.16624" lon="5.76672">
        <ele>225.67</ele>
        <time>2020-06-16T10:21:16.000Z</time>
      </trkpt>
      <trkpt lat="45.16638" lon="5.76686">
        <ele>224.92</ele>
        <time>2020-06-16T10:21:21.000Z</time>
      </trkpt>
      <trkpt lat="45.16658" lon="5.76697">
        <ele>223</ele>
        <time>2020-06-16T10:21:26.000Z</time>
      </trkpt>
      <trkpt lat="45.16675" lon="5.76712">
        <ele>220.69</ele>
        <time>2020-06-16T10:21:31.000Z</time>
      </trkpt>
      <trkpt lat="45.16692" lon="5.76726">
        <ele>219.15</ele>
        <time>2020-06-16T10:21:36.000Z</time>
      </trkpt>
      <trkpt lat="45.16712" lon="5.76749">
        <ele>216.92</ele>
        <time>2020-06-16T10:21:41.000Z</time>
      </trkpt>
      <trkpt lat="45.16735" lon="5.76762">
        <ele>217.5</ele>
        <time>2020-06-16T10:21:46.000Z</time>
      </trkpt>
      <trkpt lat="45.16753" lon="5.76778">
        <ele>219.61</ele>
        <time>2020-06-16T10:21:51.000Z</time>
      </trkpt>
      <trkpt lat="45.16774" lon="5.76793">
        <ele>220.03</ele>
        <time>2020-06-16T10:21:56.000Z</time>
      </trkpt>
      <trkpt lat="45.16791" lon="5.76803">
        <ele>220.65</ele>
        <time>2020-06-16T10:22:01.000Z</time>
      </trkpt>
      <trkpt lat="45.1681" lon="5.7681">
        <ele>218.81</ele>
        <time>2020-06-16T10:22:06.000Z</time>
      </trkpt>
      <trkpt lat="45.1683" lon="5.76818">
        <ele>218.64</ele>
        <time>2020-06-16T10:22:11.000Z</time>
      </trkpt>
      <trkpt lat="45.16852" lon="5.76829">
        <ele>215.8</ele>
        <time>2020-06-16T10:22:16.000Z</time>
      </trkpt>
      <trkpt lat="45.16873" lon="5.7684">
        <ele>215.82</ele>
        <time>2020-06-16T10:22:21.000Z</time>
      </trkpt>
      <trkpt lat="45.16896" lon="5.7685">
        <ele>215.84</ele>
        <time>2020-06-16T10:22:26.000Z</time>
      </trkpt>
      <trkpt lat="45.16919" lon="5.76856">
        <ele>216.6</ele>
        <time>2020-06-16T10:22:31.000Z</time>
      </trkpt>
      <trkpt lat="45.16945" lon="5.76859">
        <ele>218.2</ele>
        <time>2020-06-16T10:22:36.000Z</time>
      </trkpt>
      <trkpt lat="45.1697" lon="5.7686">
        <ele>216.3</ele>
        <time>2020-06-16T10:22:41.000Z</time>
      </trkpt>
      <trkpt lat="45.16998" lon="5.76864">
        <ele>217.65</ele>
        <time>2020-06-16T10:22:46.000Z</time>
      </trkpt>
      <trkpt lat="45.17025" lon="5.76868">
        <ele>216.06</ele>
        <time>2020-06-16T10:22:51.000Z</time>
      </trkpt>
      <trkpt lat="45.17051" lon="5.76868">
        <ele>216.16</ele>
        <time>2020-06-16T10:22:56.000Z</time>
      </trkpt>
      <trkpt lat="45.17077" lon="5.76869">
        <ele>217.78</ele>
        <time>2020-06-16T10:23:01.000Z</time>
      </trkpt>
      <trkpt lat="45.17101" lon="5.7687">
        <ele>216.55</ele>
        <time>2020-06-16T10:23:06.000Z</time>
      </trkpt>
      <trkpt lat="45.17125" lon="5.76868">
        <ele>216.77</ele>
        <time>2020-06-16T10:23:11.000Z</time>
      </trkpt>
      <trkpt lat="45.1715" lon="5.76872">
        <ele>213.25</ele>
        <time>2020-06-16T10:23:16.000Z</time>
      </trkpt>
      <trkpt lat="45.17172" lon="5.76877">
        <ele>212.61</ele>
        <time>2020-06-16T10:23:21.000Z</time>
      </trkpt>
      <trkpt lat="45.1719" lon="5.76879">
        <ele>213.62</ele>
        <time>2020-06-16T10:23:26.000Z</time>
      </trkpt>
      <trkpt lat="45.17206" lon="5.76885">
        <ele>211.27</ele>
        <time>2020-06-16T10:23:31.000Z</time>
      </trkpt>
      <trkpt lat="45.17229" lon="5.76893">
        <ele>214.66</ele>
        <time>2020-06-16T10:23:36.000Z</time>
      </trkpt>
      <trkpt lat="45.17252" lon="5.76897">
        <ele>210.88</ele>
        <time>2020-06-16T10:23:41.000Z</time>
      </trkpt>
      <trkpt lat="45.17272" lon="5.76911">
        <ele>211.45</ele>
        <time>2020-06-16T10:23:46.000Z</time>
      </trkpt>
      <trkpt lat="45.17293" lon="5.76931">
        <ele>212.91</ele>
        <time>2020-06-16T10:23:51.000Z</time>
      </trkpt>
      <trkpt lat="45.17308" lon="5.76955">
        <ele>213.58</ele>
        <time>2020-06-16T10:23:56.000Z</time>
      </trkpt>
      <trkpt lat="45.17327" lon="5.76978">
        <ele>212.49</ele>
        <time>2020-06-16T10:24:01.000Z</time>
      </trkpt>
      <trkpt lat="45.17352" lon="5.77007">
        <ele>212.79</ele>
        <time>2020-06-16T10:24:06.000Z</time>
      </trkpt>
      <trkpt lat="45.17381" lon="5.7704">
        <ele>216.74</ele>
        <time>2020-06-16T10:24:11.000Z</time>
      </trkpt>
      <trkpt lat="45.17409" lon="5.77075">
        <ele>220.72</ele>
        <time>2020-06-16T10:24:16.000Z</time>
      </trkpt>
      <trkpt lat="45.17429" lon="5.77102">
        <ele>220.03</ele>
        <time>2020-06-16T10:24:21.000Z</time>
      </trkpt>
      <trkpt lat="45.17453" lon="5.77134">
        <ele>223.15</ele>
        <time>2020-06-16T10:24:26.000Z</time>
      </trkpt>
      <trkpt lat="45.17471" lon="5.77162">
        <ele>225.93</ele>
        <time>2020-06-16T10:24:31.000Z</time>
      </trkpt>
      <trkpt lat="45.17488" lon="5.77182">
        <ele>228.34</ele>
        <time>2020-06-16T10:24:36.000Z</time>
      </trkpt>
      <trkpt lat="45.17496" lon="5.77205">
        <ele>228.22</ele>
        <time>2020-06-16T10:24:41.000Z</time>
      </trkpt>
      <trkpt lat="45.17505" lon="5.77235">
        <ele>227.33</ele>
        <time>2020-06-16T10:24:46.000Z</time>
      </trkpt>
      <trkpt lat="45.17518" lon="5.77263">
        <ele>228.9</ele>
        <time>2020-06-16T10:24:51.000Z</time>
      </trkpt>
      <trkpt lat="45.17535" lon="5.77289">
        <ele>227.31</ele>
        <time>2020-06-16T10:24:56.000Z</time>
      </trkpt>
      <trkpt lat="45.17563" lon="5.77313">
        <ele>234.52</ele>
        <time>2020-06-16T10:25:01.000Z</time>
      </trkpt>
      <trkpt lat="45.17585" lon="5.77333">
        <ele>235.3</ele>
        <time>2020-06-16T10:25:06.000Z</time>
      </trkpt>
      <trkpt lat="45.17608" lon="5.77355">
        <ele>236.87</ele>
        <time>2020-06-16T10:25:11.000Z</time>
      </trkpt>
      <trkpt lat="45.17617" lon="5.77383">
        <ele>233.56</ele>
        <time>2020-06-16T10:25:16.000Z</time>
      </trkpt>
      <trkpt lat="45.17627" lon="5.77418">
        <ele>230.76</ele>
        <time>2020-06-16T10:25:21.000Z</time>
      </trkpt>
      <trkpt lat="45.17638" lon="5.77445">
        <ele>231.69</ele>
        <time>2020-06-16T10:25:26.000Z</time>
      </trkpt>
      <trkpt lat="45.17647" lon="5.77478">
        <ele>230.32</ele>
        <time>2020-06-16T10:25:31.000Z</time>
      </trkpt>
      <trkpt lat="45.17649" lon="5.77506">
        <ele>226.58</ele>
        <time>2020-06-16T10:25:36.000Z</time>
      </trkpt>
      <trkpt lat="45.17666" lon="5.77536">
        <ele>223.03</ele>
        <time>2020-06-16T10:25:41.000Z</time>
      </trkpt>
      <trkpt lat="45.17676" lon="5.77571">
        <ele>223.99</ele>
        <time>2020-06-16T10:25:46.000Z</time>
      </trkpt>
      <trkpt lat="45.17698" lon="5.77602">
        <ele>223.42</ele>
        <time>2020-06-16T10:25:51.000Z</time>
      </trkpt>
      <trkpt lat="45.17707" lon="5.77636">
        <ele>217.16</ele>
        <time>2020-06-16T10:25:56.000Z</time>
      </trkpt>
      <trkpt lat="45.17722" lon="5.77674">
        <ele>209.38</ele>
        <time>2020-06-16T10:26:01.000Z</time>
      </trkpt>
      <trkpt lat="45.17734" lon="5.77699">
        <ele>210.79</ele>
        <time>2020-06-16T10:26:06.000Z</time>
      </trkpt>
      <trkpt lat="45.17744" lon="5.77725">
        <ele>210.8</ele>
        <time>2020-06-16T10:26:11.000Z</time>
      </trkpt>
      <trkpt lat="45.17754" lon="5.77732">
        <ele>216.06</ele>
        <time>2020-06-16T10:26:16.000Z</time>
      </trkpt>
      <trkpt lat="45.17763" lon="5.77751">
        <ele>217.99</ele>
        <time>2020-06-16T10:26:21.000Z</time>
      </trkpt>
      <trkpt lat="45.17778" lon="5.7778">
        <ele>216.9</ele>
        <time>2020-06-16T10:26:26.000Z</time>
      </trkpt>
      <trkpt lat="45.17791" lon="5.77815">
        <ele>218.69</ele>
        <time>2020-06-16T10:26:31.000Z</time>
      </trkpt>
      <trkpt lat="45.17805" lon="5.77851">
        <ele>219.7</ele>
        <time>2020-06-16T10:26:36.000Z</time>
      </trkpt>
      <trkpt lat="45.1782" lon="5.77887">
        <ele>220.59</ele>
        <time>2020-06-16T10:26:41.000Z</time>
      </trkpt>
      <trkpt lat="45.1783" lon="5.77916">
        <ele>220.05</ele>
        <time>2020-06-16T10:26:46.000Z</time>
      </trkpt>
      <trkpt lat="45.17845" lon="5.77956">
        <ele>217.31</ele>
        <time>2020-06-16T10:26:51.000Z</time>
      </trkpt>
      <trkpt lat="45.17852" lon="5.77987">
        <ele>217.57</ele>
        <time>2020-06-16T10:26:56.000Z</time>
      </trkpt>
      <trkpt lat="45.17867" lon="5.78021">
        <ele>219.31</ele>
        <time>2020-06-16T10:27:01.000Z</time>
      </trkpt>
      <trkpt lat="45.17883" lon="5.78059">
        <ele>217.59</ele>
        <time>2020-06-16T10:27:06.000Z</time>
      </trkpt>
      <trkpt lat="45.17895" lon="5.78093">
        <ele>220.6</ele>
        <time>2020-06-16T10:27:11.000Z</time>
      </trkpt>
      <trkpt lat="45.17904" lon="5.78131">
        <ele>219.32</ele>
        <time>2020-06-16T10:27:16.000Z</time>
      </trkpt>
      <trkpt lat="45.17914" lon="5.78158">
        <ele>221.27</ele>
        <time>2020-06-16T10:27:21.000Z</time>
      </trkpt>
      <trkpt lat="45.17929" lon="5.78195">
        <ele>220.63</ele>
        <time>2020-06-16T10:27:26.000Z</time>
      </trkpt>
      <trkpt lat="45.17941" lon="5.78232">
        <ele>217.19</ele>
        <time>2020-06-16T10:27:31.000Z</time>
      </trkpt>
      <trkpt lat="45.17953" lon="5.7827">
        <ele>215.66</ele>
        <time>2020-06-16T10:27:36.000Z</time>
      </trkpt>
      <trkpt lat="45.17967" lon="5.783">
        <ele>217</ele>
        <time>2020-06-16T10:27:41.000Z</time>
      </trkpt>
      <trkpt lat="45.17978" lon="5.78334">
        <ele>216.67</ele>
        <time>2020-06-16T10:27:46.000Z</time>
      </trkpt>
      <trkpt lat="45.17987" lon="5.78361">
        <ele>216.64</ele>
        <time>2020-06-16T10:27:51.000Z</time>
      </trkpt>
      <trkpt lat="45.17995" lon="5.78391">
        <ele>218.03</ele>
        <time>2020-06-16T10:27:56.000Z</time>
      </trkpt>
      <trkpt lat="45.1801" lon="5.78418">
        <ele>221.51</ele>
        <time>2020-06-16T10:28:01.000Z</time>
      </trkpt>
      <trkpt lat="45.18023" lon="5.78449">
        <ele>221.22</ele>
        <time>2020-06-16T10:28:06.000Z</time>
      </trkpt>
      <trkpt lat="45.18035" lon="5.78475">
        <ele>216.81</ele>
        <time>2020-06-16T10:28:11.000Z</time>
      </trkpt>
      <trkpt lat="45.18044" lon="5.78505">
        <ele>212.31</ele>
        <time>2020-06-16T10:28:16.000Z</time>
      </trkpt>
      <trkpt lat="45.18057" lon="5.78531">
        <ele>220.34</ele>
        <time>2020-06-16T10:28:21.000Z</time>
      </trkpt>
      <trkpt lat="45.18064" lon="5.78548">
        <ele>218.91</ele>
        <time>2020-06-16T10:28:26.000Z</time>
      </trkpt>
      <trkpt lat="45.18072" lon="5.78566">
        <ele>219.83</ele>
        <time>2020-06-16T10:28:31.000Z</time>
      </trkpt>
      <trkpt lat="45.18083" lon="5.78595">
        <ele>221.65</ele>
        <time>2020-06-16T10:28:36.000Z</time>
      </trkpt>
      <trkpt lat="45.18092" lon="5.7862">
        <ele>224.64</ele>
        <time>2020-06-16T10:28:41.000Z</time>
      </trkpt>
      <trkpt lat="45.18103" lon="5.78648">
        <ele>227.97</ele>
        <time>2020-06-16T10:28:46.000Z</time>
      </trkpt>
      <trkpt lat="45.18114" lon="5.78678">
        <ele>225.35</ele>
        <time>2020-06-16T10:28:51.000Z</time>
      </trkpt>
      <trkpt lat="45.1812" lon="5.78693">
        <ele>224.77</ele>
        <time>2020-06-16T10:28:56.000Z</time>
      </trkpt>
      <trkpt lat="45.18127" lon="5.78714">
        <ele>221.75</ele>
        <time>2020-06-16T10:29:01.000Z</time>
      </trkpt>
      <trkpt lat="45.18133" lon="5.7873">
        <ele>225.59</ele>
        <time>2020-06-16T10:29:06.000Z</time>
      </trkpt>
      <trkpt lat="45.18141" lon="5.78737">
        <ele>228.28</ele>
        <time>2020-06-16T10:29:11.000Z</time>
      </trkpt>
      <trkpt lat="45.18142" lon="5.7875">
        <ele>227.41</ele>
        <time>2020-06-16T10:29:17.000Z</time>
      </trkpt>
      <trkpt lat="45.18144" lon="5.78763">
        <ele>228.82</ele>
        <time>2020-06-16T10:29:23.000Z</time>
      </trkpt>
      <trkpt lat="45.18144" lon="5.78777">
        <ele>227.92</ele>
        <time>2020-06-16T10:29:34.000Z</time>
      </trkpt>
      <trkpt lat="45.18145" lon="5.78791">
        <ele>226.19</ele>
        <time>2020-06-16T10:29:39.000Z</time>
      </trkpt>
      <trkpt lat="45.18146" lon="5.78807">
        <ele>227.67</ele>
        <time>2020-06-16T10:29:44.000Z</time>
      </trkpt>
      <trkpt lat="45.18153" lon="5.78832">
        <ele>231.94</ele>
        <time>2020-06-16T10:29:49.000Z</time>
      </trkpt>
      <trkpt lat="45.18156" lon="5.78861">
        <ele>230.63</ele>
        <time>2020-06-16T10:29:54.000Z</time>
      </trkpt>
      <trkpt lat="45.18159" lon="5.78892">
        <ele>228.87</ele>
        <time>2020-06-16T10:29:59.000Z</time>
      </trkpt>
      <trkpt lat="45.18162" lon="5.78925">
        <ele>228.37</ele>
        <time>2020-06-16T10:30:04.000Z</time>
      </trkpt>
      <trkpt lat="45.18164" lon="5.78959">
        <ele>228.38</ele>
        <time>2020-06-16T10:30:09.000Z</time>
      </trkpt>
      <trkpt lat="45.18165" lon="5.78995">
        <ele>227.07</ele>
        <time>2020-06-16T10:30:14.000Z</time>
      </trkpt>
      <trkpt lat="45.18169" lon="5.79036">
        <ele>229.55</ele>
        <time>2020-06-16T10:30:19.000Z</time>
      </trkpt>
      <trkpt lat="45.18178" lon="5.79063">
        <ele>236.65</ele>
        <time>2020-06-16T10:30:24.000Z</time>
      </trkpt>
      <trkpt lat="45.18181" lon="5.79092">
        <ele>235.43</ele>
        <time>2020-06-16T10:30:29.000Z</time>
      </trkpt>
      <trkpt lat="45.18185" lon="5.79122">
        <ele>232.17</ele>
        <time>2020-06-16T10:30:34.000Z</time>
      </trkpt>
      <trkpt lat="45.18187" lon="5.79156">
        <ele>232.98</ele>
        <time>2020-06-16T10:30:39.000Z</time>
      </trkpt>
      <trkpt lat="45.18195" lon="5.79185">
        <ele>232.38</ele>
        <time>2020-06-16T10:30:44.000Z</time>
      </trkpt>
      <trkpt lat="45.18202" lon="5.79204">
        <ele>230.43</ele>
        <time>2020-06-16T10:30:49.000Z</time>
      </trkpt>
      <trkpt lat="45.18208" lon="5.79214">
        <ele>231.6</ele>
        <time>2020-06-16T10:30:54.000Z</time>
      </trkpt>
      <trkpt lat="45.18218" lon="5.79211">
        <ele>234.68</ele>
        <time>2020-06-16T10:30:59.000Z</time>
      </trkpt>
      <trkpt lat="45.18229" lon="5.7921">
        <ele>237.81</ele>
        <time>2020-06-16T10:31:07.000Z</time>
      </trkpt>
      <trkpt lat="45.18238" lon="5.79205">
        <ele>234.99</ele>
        <time>2020-06-16T10:31:21.000Z</time>
      </trkpt>
      <trkpt lat="45.18259" lon="5.79193">
        <ele>230.46</ele>
        <time>2020-06-16T10:31:26.000Z</time>
      </trkpt>
      <trkpt lat="45.18282" lon="5.79178">
        <ele>226.95</ele>
        <time>2020-06-16T10:31:31.000Z</time>
      </trkpt>
      <trkpt lat="45.18305" lon="5.79168">
        <ele>222.32</ele>
        <time>2020-06-16T10:31:36.000Z</time>
      </trkpt>
      <trkpt lat="45.18323" lon="5.79155">
        <ele>220.84</ele>
        <time>2020-06-16T10:31:41.000Z</time>
      </trkpt>
      <trkpt lat="45.18338" lon="5.79138">
        <ele>219.48</ele>
        <time>2020-06-16T10:31:46.000Z</time>
      </trkpt>
      <trkpt lat="45.18355" lon="5.79118">
        <ele>221.48</ele>
        <time>2020-06-16T10:31:51.000Z</time>
      </trkpt>
      <trkpt lat="45.18372" lon="5.79102">
        <ele>218.75</ele>
        <time>2020-06-16T10:31:56.000Z</time>
      </trkpt>
      <trkpt lat="45.18389" lon="5.79082">
        <ele>219.61</ele>
        <time>2020-06-16T10:32:01.000Z</time>
      </trkpt>
      <trkpt lat="45.18402" lon="5.79073">
        <ele>220.07</ele>
        <time>2020-06-16T10:32:06.000Z</time>
      </trkpt>
      <trkpt lat="45.18418" lon="5.79066">
        <ele>219.86</ele>
        <time>2020-06-16T10:32:11.000Z</time>
      </trkpt>
      <trkpt lat="45.18437" lon="5.79061">
        <ele>221.95</ele>
        <time>2020-06-16T10:32:16.000Z</time>
      </trkpt>
      <trkpt lat="45.18456" lon="5.79059">
        <ele>221.34</ele>
        <time>2020-06-16T10:32:21.000Z</time>
      </trkpt>
      <trkpt lat="45.18471" lon="5.79055">
        <ele>220.31</ele>
        <time>2020-06-16T10:32:26.000Z</time>
      </trkpt>
      <trkpt lat="45.18487" lon="5.79047">
        <ele>217.74</ele>
        <time>2020-06-16T10:32:31.000Z</time>
      </trkpt>
      <trkpt lat="45.18495" lon="5.79055">
        <ele>218.76</ele>
        <time>2020-06-16T10:32:36.000Z</time>
      </trkpt>
      <trkpt lat="45.185" lon="5.79082">
        <ele>220.48</ele>
        <time>2020-06-16T10:32:41.000Z</time>
      </trkpt>
      <trkpt lat="45.18507" lon="5.79119">
        <ele>220.74</ele>
        <time>2020-06-16T10:32:46.000Z</time>
      </trkpt>
      <trkpt lat="45.1852" lon="5.79147">
        <ele>221.37</ele>
        <time>2020-06-16T10:32:51.000Z</time>
      </trkpt>
      <trkpt lat="45.18539" lon="5.79173">
        <ele>221.21</ele>
        <time>2020-06-16T10:32:56.000Z</time>
      </trkpt>
      <trkpt lat="45.18555" lon="5.79199">
        <ele>218.3</ele>
        <time>2020-06-16T10:33:01.000Z</time>
      </trkpt>
      <trkpt lat="45.1855" lon="5.79229">
        <ele>219.45</ele>
        <time>2020-06-16T10:33:06.000Z</time>
      </trkpt>
      <trkpt lat="45.18542" lon="5.79257">
        <ele>219.67</ele>
        <time>2020-06-16T10:33:11.000Z</time>
      </trkpt>
      <trkpt lat="45.18538" lon="5.79286">
        <ele>219.11</ele>
        <time>2020-06-16T10:33:16.000Z</time>
      </trkpt>
      <trkpt lat="45.18533" lon="5.79316">
        <ele>222.72</ele>
        <time>2020-06-16T10:33:21.000Z</time>
      </trkpt>
      <trkpt lat="45.18525" lon="5.79343">
        <ele>225.86</ele>
        <time>2020-06-16T10:33:26.000Z</time>
      </trkpt>
      <trkpt lat="45.18523" lon="5.79374">
        <ele>222.24</ele>
        <time>2020-06-16T10:33:31.000Z</time>
      </trkpt>
      <trkpt lat="45.18525" lon="5.79398">
        <ele>220.84</ele>
        <time>2020-06-16T10:33:36.000Z</time>
      </trkpt>
      <trkpt lat="45.18527" lon="5.79418">
        <ele>225.41</ele>
        <time>2020-06-16T10:33:41.000Z</time>
      </trkpt>
      <trkpt lat="45.18528" lon="5.79436">
        <ele>225.63</ele>
        <time>2020-06-16T10:33:46.000Z</time>
      </trkpt>
      <trkpt lat="45.18529" lon="5.79469">
        <ele>225.01</ele>
        <time>2020-06-16T10:33:51.000Z</time>
      </trkpt>
      <trkpt lat="45.18537" lon="5.79496">
        <ele>225.55</ele>
        <time>2020-06-16T10:33:56.000Z</time>
      </trkpt>
      <trkpt lat="45.18541" lon="5.79523">
        <ele>225.78</ele>
        <time>2020-06-16T10:34:01.000Z</time>
      </trkpt>
      <trkpt lat="45.1855" lon="5.79551">
        <ele>224.46</ele>
        <time>2020-06-16T10:34:06.000Z</time>
      </trkpt>
      <trkpt lat="45.18556" lon="5.79582">
        <ele>224.85</ele>
        <time>2020-06-16T10:34:11.000Z</time>
      </trkpt>
      <trkpt lat="45.18556" lon="5.79618">
        <ele>227.47</ele>
        <time>2020-06-16T10:34:16.000Z</time>
      </trkpt>
      <trkpt lat="45.18556" lon="5.79652">
        <ele>224.04</ele>
        <time>2020-06-16T10:34:21.000Z</time>
      </trkpt>
      <trkpt lat="45.18554" lon="5.79685">
        <ele>217.13</ele>
        <time>2020-06-16T10:34:26.000Z</time>
      </trkpt>
      <trkpt lat="45.18555" lon="5.79721">
        <ele>220.1</ele>
        <time>2020-06-16T10:34:31.000Z</time>
      </trkpt>
      <trkpt lat="45.18556" lon="5.79755">
        <ele>219.9</ele>
        <time>2020-06-16T10:34:36.000Z</time>
      </trkpt>
      <trkpt lat="45.18551" lon="5.79781">
        <ele>221.87</ele>
        <time>2020-06-16T10:34:41.000Z</time>
      </trkpt>
      <trkpt lat="45.1855" lon="5.79813">
        <ele>219.26</ele>
        <time>2020-06-16T10:34:46.000Z</time>
      </trkpt>
      <trkpt lat="45.18548" lon="5.79841">
        <ele>219.41</ele>
        <time>2020-06-16T10:34:51.000Z</time>
      </trkpt>
      <trkpt lat="45.18546" lon="5.79866">
        <ele>219.9</ele>
        <time>2020-06-16T10:34:56.000Z</time>
      </trkpt>
      <trkpt lat="45.18546" lon="5.79885">
        <ele>221.68</ele>
        <time>2020-06-16T10:35:01.000Z</time>
      </trkpt>
      <trkpt lat="45.18557" lon="5.79896">
        <ele>224.08</ele>
        <time>2020-06-16T10:35:06.000Z</time>
      </trkpt>
      <trkpt lat="45.18573" lon="5.79912">
        <ele>224.48</ele>
        <time>2020-06-16T10:35:11.000Z</time>
      </trkpt>
      <trkpt lat="45.18597" lon="5.79921">
        <ele>223.2</ele>
        <time>2020-06-16T10:35:16.000Z</time>
      </trkpt>
      <trkpt lat="45.1862" lon="5.79934">
        <ele>223.04</ele>
        <time>2020-06-16T10:35:21.000Z</time>
      </trkpt>
      <trkpt lat="45.18637" lon="5.79947">
        <ele>223.24</ele>
        <time>2020-06-16T10:35:26.000Z</time>
      </trkpt>
      <trkpt lat="45.18657" lon="5.79977">
        <ele>218.79</ele>
        <time>2020-06-16T10:35:31.000Z</time>
      </trkpt>
      <trkpt lat="45.18671" lon="5.80011">
        <ele>217.11</ele>
        <time>2020-06-16T10:35:36.000Z</time>
      </trkpt>
      <trkpt lat="45.18684" lon="5.80039">
        <ele>216.03</ele>
        <time>2020-06-16T10:35:41.000Z</time>
      </trkpt>
      <trkpt lat="45.18697" lon="5.8007">
        <ele>217.4</ele>
        <time>2020-06-16T10:35:46.000Z</time>
      </trkpt>
      <trkpt lat="45.187" lon="5.80096">
        <ele>218.05</ele>
        <time>2020-06-16T10:35:51.000Z</time>
      </trkpt>
      <trkpt lat="45.18699" lon="5.80118">
        <ele>217.29</ele>
        <time>2020-06-16T10:35:56.000Z</time>
      </trkpt>
      <trkpt lat="45.18696" lon="5.80138">
        <ele>217.21</ele>
        <time>2020-06-16T10:36:01.000Z</time>
      </trkpt>
      <trkpt lat="45.18691" lon="5.8016">
        <ele>216.15</ele>
        <time>2020-06-16T10:36:06.000Z</time>
      </trkpt>
      <trkpt lat="45.18686" lon="5.80184">
        <ele>215.65</ele>
        <time>2020-06-16T10:36:11.000Z</time>
      </trkpt>
      <trkpt lat="45.18675" lon="5.80206">
        <ele>216.68</ele>
        <time>2020-06-16T10:36:16.000Z</time>
      </trkpt>
      <trkpt lat="45.18666" lon="5.80228">
        <ele>218.26</ele>
        <time>2020-06-16T10:36:21.000Z</time>
      </trkpt>
      <trkpt lat="45.18661" lon="5.80254">
        <ele>218.03</ele>
        <time>2020-06-16T10:36:26.000Z</time>
      </trkpt>
      <trkpt lat="45.18659" lon="5.80278">
        <ele>219.93</ele>
        <time>2020-06-16T10:36:31.000Z</time>
      </trkpt>
      <trkpt lat="45.18659" lon="5.803">
        <ele>218.61</ele>
        <time>2020-06-16T10:36:36.000Z</time>
      </trkpt>
      <trkpt lat="45.18655" lon="5.80316">
        <ele>219.67</ele>
        <time>2020-06-16T10:36:41.000Z</time>
      </trkpt>
      <trkpt lat="45.18658" lon="5.80304">
        <ele>217.95</ele>
        <time>2020-06-16T10:36:52.000Z</time>
      </trkpt>
      <trkpt lat="45.18661" lon="5.80274">
        <ele>217.29</ele>
        <time>2020-06-16T10:36:57.000Z</time>
      </trkpt>
      <trkpt lat="45.18663" lon="5.80244">
        <ele>220.42</ele>
        <time>2020-06-16T10:37:02.000Z</time>
      </trkpt>
      <trkpt lat="45.18671" lon="5.80212">
        <ele>220.92</ele>
        <time>2020-06-16T10:37:07.000Z</time>
      </trkpt>
      <trkpt lat="45.18677" lon="5.80194">
        <ele>222.13</ele>
        <time>2020-06-16T10:37:12.000Z</time>
      </trkpt>
      <trkpt lat="45.18671" lon="5.80205">
        <ele>220.16</ele>
        <time>2020-06-16T10:37:19.000Z</time>
      </trkpt>
      <trkpt lat="45.18662" lon="5.80228">
        <ele>220.05</ele>
        <time>2020-06-16T10:37:24.000Z</time>
      </trkpt>
      <trkpt lat="45.18659" lon="5.8026">
        <ele>220.25</ele>
        <time>2020-06-16T10:37:29.000Z</time>
      </trkpt>
      <trkpt lat="45.18659" lon="5.80292">
        <ele>219.95</ele>
        <time>2020-06-16T10:37:34.000Z</time>
      </trkpt>
      <trkpt lat="45.18653" lon="5.80327">
        <ele>220.86</ele>
        <time>2020-06-16T10:37:39.000Z</time>
      </trkpt>
      <trkpt lat="45.18661" lon="5.80364">
        <ele>222.12</ele>
        <time>2020-06-16T10:37:44.000Z</time>
      </trkpt>
      <trkpt lat="45.18668" lon="5.80397">
        <ele>220.4</ele>
        <time>2020-06-16T10:37:49.000Z</time>
      </trkpt>
      <trkpt lat="45.18672" lon="5.80432">
        <ele>219.67</ele>
        <time>2020-06-16T10:37:54.000Z</time>
      </trkpt>
      <trkpt lat="45.18674" lon="5.80466">
        <ele>219.81</ele>
        <time>2020-06-16T10:37:59.000Z</time>
      </trkpt>
      <trkpt lat="45.18683" lon="5.80498">
        <ele>220.02</ele>
        <time>2020-06-16T10:38:04.000Z</time>
      </trkpt>
      <trkpt lat="45.18695" lon="5.80529">
        <ele>219.45</ele>
        <time>2020-06-16T10:38:09.000Z</time>
      </trkpt>
      <trkpt lat="45.1871" lon="5.80559">
        <ele>221.8</ele>
        <time>2020-06-16T10:38:14.000Z</time>
      </trkpt>
      <trkpt lat="45.18729" lon="5.80591">
        <ele>224.35</ele>
        <time>2020-06-16T10:38:19.000Z</time>
      </trkpt>
      <trkpt lat="45.18749" lon="5.80613">
        <ele>224.84</ele>
        <time>2020-06-16T10:38:24.000Z</time>
      </trkpt>
      <trkpt lat="45.1878" lon="5.80631">
        <ele>223.1</ele>
        <time>2020-06-16T10:38:29.000Z</time>
      </trkpt>
      <trkpt lat="45.18807" lon="5.80648">
        <ele>220.55</ele>
        <time>2020-06-16T10:38:34.000Z</time>
      </trkpt>
      <trkpt lat="45.18831" lon="5.80656">
        <ele>218.28</ele>
        <time>2020-06-16T10:38:39.000Z</time>
      </trkpt>
      <trkpt lat="45.18855" lon="5.80664">
        <ele>217.87</ele>
        <time>2020-06-16T10:38:44.000Z</time>
      </trkpt>
      <trkpt lat="45.1885" lon="5.80691">
        <ele>219.64</ele>
        <time>2020-06-16T10:38:49.000Z</time>
      </trkpt>
      <trkpt lat="45.18831" lon="5.80705">
        <ele>217.67</ele>
        <time>2020-06-16T10:38:54.000Z</time>
      </trkpt>
      <trkpt lat="45.18811" lon="5.80715">
        <ele>218.46</ele>
        <time>2020-06-16T10:38:59.000Z</time>
      </trkpt>
      <trkpt lat="45.1879" lon="5.80718">
        <ele>220.15</ele>
        <time>2020-06-16T10:39:04.000Z</time>
      </trkpt>
      <trkpt lat="45.1878" lon="5.80722">
        <ele>218.71</ele>
        <time>2020-06-16T10:39:10.000Z</time>
      </trkpt>
      <trkpt lat="45.18773" lon="5.80731">
        <ele>217.58</ele>
        <time>2020-06-16T10:39:15.000Z</time>
      </trkpt>
      <trkpt lat="45.18765" lon="5.80743">
        <ele>217.39</ele>
        <time>2020-06-16T10:39:20.000Z</time>
      </trkpt>
      <trkpt lat="45.18773" lon="5.80767">
        <ele>220.23</ele>
        <time>2020-06-16T10:39:25.000Z</time>
      </trkpt>
      <trkpt lat="45.18789" lon="5.80787">
        <ele>223.33</ele>
        <time>2020-06-16T10:39:30.000Z</time>
      </trkpt>
      <trkpt lat="45.18809" lon="5.80815">
        <ele>219.01</ele>
        <time>2020-06-16T10:39:35.000Z</time>
      </trkpt>
      <trkpt lat="45.18824" lon="5.80845">
        <ele>220.52</ele>
        <time>2020-06-16T10:39:40.000Z</time>
      </trkpt>
      <trkpt lat="45.18837" lon="5.80877">
        <ele>221.02</ele>
        <time>2020-06-16T10:39:45.000Z</time>
      </trkpt>
      <trkpt lat="45.1885" lon="5.80908">
        <ele>221.28</ele>
        <time>2020-06-16T10:39:50.000Z</time>
      </trkpt>
      <trkpt lat="45.18865" lon="5.8094">
        <ele>220.85</ele>
        <time>2020-06-16T10:39:55.000Z</time>
      </trkpt>
      <trkpt lat="45.18879" lon="5.80967">
        <ele>221.11</ele>
        <time>2020-06-16T10:40:00.000Z</time>
      </trkpt>
      <trkpt lat="45.18894" lon="5.80998">
        <ele>221.3</ele>
        <time>2020-06-16T10:40:05.000Z</time>
      </trkpt>
      <trkpt lat="45.18904" lon="5.81027">
        <ele>223.44</ele>
        <time>2020-06-16T10:40:10.000Z</time>
      </trkpt>
      <trkpt lat="45.18918" lon="5.81056">
        <ele>221.78</ele>
        <time>2020-06-16T10:40:15.000Z</time>
      </trkpt>
      <trkpt lat="45.18934" lon="5.81091">
        <ele>223.27</ele>
        <time>2020-06-16T10:40:20.000Z</time>
      </trkpt>
      <trkpt lat="45.18948" lon="5.81125">
        <ele>223.01</ele>
        <time>2020-06-16T10:40:25.000Z</time>
      </trkpt>
      <trkpt lat="45.18961" lon="5.81163">
        <ele>222.95</ele>
        <time>2020-06-16T10:40:30.000Z</time>
      </trkpt>
      <trkpt lat="45.1898" lon="5.81195">
        <ele>222.7</ele>
        <time>2020-06-16T10:40:35.000Z</time>
      </trkpt>
      <trkpt lat="45.18995" lon="5.81223">
        <ele>222.35</ele>
        <time>2020-06-16T10:40:40.000Z</time>
      </trkpt>
      <trkpt lat="45.19006" lon="5.81251">
        <ele>222.77</ele>
        <time>2020-06-16T10:40:45.000Z</time>
      </trkpt>
      <trkpt lat="45.19019" lon="5.81283">
        <ele>222.79</ele>
        <time>2020-06-16T10:40:50.000Z</time>
      </trkpt>
      <trkpt lat="45.19032" lon="5.81318">
        <ele>221.56</ele>
        <time>2020-06-16T10:40:55.000Z</time>
      </trkpt>
      <trkpt lat="45.19048" lon="5.81352">
        <ele>218.14</ele>
        <time>2020-06-16T10:41:00.000Z</time>
      </trkpt>
      <trkpt lat="45.19064" lon="5.81384">
        <ele>220.06</ele>
        <time>2020-06-16T10:41:05.000Z</time>
      </trkpt>
      <trkpt lat="45.19078" lon="5.81419">
        <ele>220.84</ele>
        <time>2020-06-16T10:41:10.000Z</time>
      </trkpt>
      <trkpt lat="45.19094" lon="5.81452">
        <ele>221.37</ele>
        <time>2020-06-16T10:41:15.000Z</time>
      </trkpt>
      <trkpt lat="45.19112" lon="5.81487">
        <ele>223.71</ele>
        <time>2020-06-16T10:41:20.000Z</time>
      </trkpt>
      <trkpt lat="45.19127" lon="5.81521">
        <ele>224.36</ele>
        <time>2020-06-16T10:41:25.000Z</time>
      </trkpt>
      <trkpt lat="45.19139" lon="5.81552">
        <ele>222.67</ele>
        <time>2020-06-16T10:41:30.000Z</time>
      </trkpt>
      <trkpt lat="45.19148" lon="5.81587">
        <ele>223.36</ele>
        <time>2020-06-16T10:41:35.000Z</time>
      </trkpt>
      <trkpt lat="45.19161" lon="5.8162">
        <ele>224.39</ele>
        <time>2020-06-16T10:41:40.000Z</time>
      </trkpt>
      <trkpt lat="45.19171" lon="5.8164">
        <ele>224.33</ele>
        <time>2020-06-16T10:41:45.000Z</time>
      </trkpt>
      <trkpt lat="45.1918" lon="5.81658">
        <ele>226.04</ele>
        <time>2020-06-16T10:41:50.000Z</time>
      </trkpt>
      <trkpt lat="45.19188" lon="5.81673">
        <ele>227.55</ele>
        <time>2020-06-16T10:41:55.000Z</time>
      </trkpt>
      <trkpt lat="45.19194" lon="5.81691">
        <ele>225.97</ele>
        <time>2020-06-16T10:42:00.000Z</time>
      </trkpt>
      <trkpt lat="45.19202" lon="5.81705">
        <ele>226.37</ele>
        <time>2020-06-16T10:42:05.000Z</time>
      </trkpt>
      <trkpt lat="45.19208" lon="5.81718">
        <ele>225.67</ele>
        <time>2020-06-16T10:42:10.000Z</time>
      </trkpt>
      <trkpt lat="45.19203" lon="5.81731">
        <ele>226.02</ele>
        <time>2020-06-16T10:42:15.000Z</time>
      </trkpt>
      <trkpt lat="45.19191" lon="5.81745">
        <ele>225.81</ele>
        <time>2020-06-16T10:42:20.000Z</time>
      </trkpt>
      <trkpt lat="45.19181" lon="5.81762">
        <ele>226.45</ele>
        <time>2020-06-16T10:42:25.000Z</time>
      </trkpt>
      <trkpt lat="45.19171" lon="5.81779">
        <ele>230.96</ele>
        <time>2020-06-16T10:42:30.000Z</time>
      </trkpt>
      <trkpt lat="45.1916" lon="5.81797">
        <ele>230.32</ele>
        <time>2020-06-16T10:42:35.000Z</time>
      </trkpt>
      <trkpt lat="45.19143" lon="5.81822">
        <ele>230.27</ele>
        <time>2020-06-16T10:42:40.000Z</time>
      </trkpt>
      <trkpt lat="45.19128" lon="5.81847">
        <ele>235.07</ele>
        <time>2020-06-16T10:42:45.000Z</time>
      </trkpt>
      <trkpt lat="45.19113" lon="5.81871">
        <ele>237.87</ele>
        <time>2020-06-16T10:42:50.000Z</time>
      </trkpt>
      <trkpt lat="45.19097" lon="5.81885">
        <ele>238.58</ele>
        <time>2020-06-16T10:42:55.000Z</time>
      </trkpt>
      <trkpt lat="45.19077" lon="5.81898">
        <ele>239.14</ele>
        <time>2020-06-16T10:43:00.000Z</time>
      </trkpt>
      <trkpt lat="45.19057" lon="5.81909">
        <ele>238.13</ele>
        <time>2020-06-16T10:43:05.000Z</time>
      </trkpt>
      <trkpt lat="45.19037" lon="5.81922">
        <ele>241.84</ele>
        <time>2020-06-16T10:43:10.000Z</time>
      </trkpt>
      <trkpt lat="45.19016" lon="5.8192">
        <ele>241.47</ele>
        <time>2020-06-16T10:43:15.000Z</time>
      </trkpt>
      <trkpt lat="45.18999" lon="5.81908">
        <ele>245.51</ele>
        <time>2020-06-16T10:43:20.000Z</time>
      </trkpt>
      <trkpt lat="45.18983" lon="5.81894">
        <ele>244.44</ele>
        <time>2020-06-16T10:43:25.000Z</time>
      </trkpt>
      <trkpt lat="45.18967" lon="5.81881">
        <ele>247.06</ele>
        <time>2020-06-16T10:43:30.000Z</time>
      </trkpt>
      <trkpt lat="45.18953" lon="5.81864">
        <ele>250.09</ele>
        <time>2020-06-16T10:43:35.000Z</time>
      </trkpt>
      <trkpt lat="45.18942" lon="5.81845">
        <ele>251.86</ele>
        <time>2020-06-16T10:43:40.000Z</time>
      </trkpt>
      <trkpt lat="45.1893" lon="5.81827">
        <ele>253.71</ele>
        <time>2020-06-16T10:43:45.000Z</time>
      </trkpt>
      <trkpt lat="45.18919" lon="5.81807">
        <ele>257.7</ele>
        <time>2020-06-16T10:43:50.000Z</time>
      </trkpt>
      <trkpt lat="45.18908" lon="5.81785">
        <ele>256.16</ele>
        <time>2020-06-16T10:43:55.000Z</time>
      </trkpt>
      <trkpt lat="45.189" lon="5.81764">
        <ele>255.95</ele>
        <time>2020-06-16T10:44:00.000Z</time>
      </trkpt>
      <trkpt lat="45.18894" lon="5.81743">
        <ele>259.52</ele>
        <time>2020-06-16T10:44:05.000Z</time>
      </trkpt>
      <trkpt lat="45.18882" lon="5.81722">
        <ele>261.38</ele>
        <time>2020-06-16T10:44:10.000Z</time>
      </trkpt>
      <trkpt lat="45.18864" lon="5.81713">
        <ele>258.57</ele>
        <time>2020-06-16T10:44:15.000Z</time>
      </trkpt>
      <trkpt lat="45.18853" lon="5.817">
        <ele>256.96</ele>
        <time>2020-06-16T10:44:20.000Z</time>
      </trkpt>
      <trkpt lat="45.18844" lon="5.81681">
        <ele>255.57</ele>
        <time>2020-06-16T10:44:25.000Z</time>
      </trkpt>
      <trkpt lat="45.18838" lon="5.81661">
        <ele>260.28</ele>
        <time>2020-06-16T10:44:30.000Z</time>
      </trkpt>
      <trkpt lat="45.18831" lon="5.81638">
        <ele>263.6</ele>
        <time>2020-06-16T10:44:35.000Z</time>
      </trkpt>
      <trkpt lat="45.18822" lon="5.81614">
        <ele>266.54</ele>
        <time>2020-06-16T10:44:40.000Z</time>
      </trkpt>
      <trkpt lat="45.18813" lon="5.81589">
        <ele>269.08</ele>
        <time>2020-06-16T10:44:45.000Z</time>
      </trkpt>
      <trkpt lat="45.18802" lon="5.81565">
        <ele>266.8</ele>
        <time>2020-06-16T10:44:50.000Z</time>
      </trkpt>
      <trkpt lat="45.1879" lon="5.81541">
        <ele>266.07</ele>
        <time>2020-06-16T10:44:55.000Z</time>
      </trkpt>
      <trkpt lat="45.18779" lon="5.81518">
        <ele>272.37</ele>
        <time>2020-06-16T10:45:00.000Z</time>
      </trkpt>
      <trkpt lat="45.18769" lon="5.81497">
        <ele>279.22</ele>
        <time>2020-06-16T10:45:05.000Z</time>
      </trkpt>
      <trkpt lat="45.18759" lon="5.81476">
        <ele>280.03</ele>
        <time>2020-06-16T10:45:10.000Z</time>
      </trkpt>
      <trkpt lat="45.18745" lon="5.8145">
        <ele>276.98</ele>
        <time>2020-06-16T10:45:15.000Z</time>
      </trkpt>
      <trkpt lat="45.18731" lon="5.81425">
        <ele>277.16</ele>
        <time>2020-06-16T10:45:20.000Z</time>
      </trkpt>
      <trkpt lat="45.18715" lon="5.81403">
        <ele>277.13</ele>
        <time>2020-06-16T10:45:25.000Z</time>
      </trkpt>
      <trkpt lat="45.18703" lon="5.81394">
        <ele>280.61</ele>
        <time>2020-06-16T10:45:30.000Z</time>
      </trkpt>
      <trkpt lat="45.18697" lon="5.81384">
        <ele>283.94</ele>
        <time>2020-06-16T10:45:38.000Z</time>
      </trkpt>
      <trkpt lat="45.18695" lon="5.81371">
        <ele>289.65</ele>
        <time>2020-06-16T10:45:46.000Z</time>
      </trkpt>
      <trkpt lat="45.18689" lon="5.81385">
        <ele>293.22</ele>
        <time>2020-06-16T10:46:56.000Z</time>
      </trkpt>
      <trkpt lat="45.18698" lon="5.81401">
        <ele>296.66</ele>
        <time>2020-06-16T10:47:01.000Z</time>
      </trkpt>
      <trkpt lat="45.18707" lon="5.81407">
        <ele>298.06</ele>
        <time>2020-06-16T10:50:07.000Z</time>
      </trkpt>
      <trkpt lat="45.18714" lon="5.81416">
        <ele>298.43</ele>
        <time>2020-06-16T10:50:12.000Z</time>
      </trkpt>
      <trkpt lat="45.18717" lon="5.8143">
        <ele>298.41</ele>
        <time>2020-06-16T10:50:17.000Z</time>
      </trkpt>
      <trkpt lat="45.1872" lon="5.81446">
        <ele>301.63</ele>
        <time>2020-06-16T10:50:22.000Z</time>
      </trkpt>
      <trkpt lat="45.1872" lon="5.81468">
        <ele>300.35</ele>
        <time>2020-06-16T10:50:27.000Z</time>
      </trkpt>
      <trkpt lat="45.18717" lon="5.81488">
        <ele>302.35</ele>
        <time>2020-06-16T10:50:32.000Z</time>
      </trkpt>
      <trkpt lat="45.18719" lon="5.81507">
        <ele>300.91</ele>
        <time>2020-06-16T10:50:37.000Z</time>
      </trkpt>
      <trkpt lat="45.18719" lon="5.81526">
        <ele>303.22</ele>
        <time>2020-06-16T10:50:42.000Z</time>
      </trkpt>
      <trkpt lat="45.18721" lon="5.81548">
        <ele>306.41</ele>
        <time>2020-06-16T10:50:47.000Z</time>
      </trkpt>
      <trkpt lat="45.18718" lon="5.81569">
        <ele>306.02</ele>
        <time>2020-06-16T10:50:52.000Z</time>
      </trkpt>
      <trkpt lat="45.18718" lon="5.81587">
        <ele>305.64</ele>
        <time>2020-06-16T10:50:57.000Z</time>
      </trkpt>
      <trkpt lat="45.18721" lon="5.81607">
        <ele>306.21</ele>
        <time>2020-06-16T10:51:02.000Z</time>
      </trkpt>
      <trkpt lat="45.18723" lon="5.8163">
        <ele>307.38</ele>
        <time>2020-06-16T10:51:07.000Z</time>
      </trkpt>
      <trkpt lat="45.18725" lon="5.81655">
        <ele>309.02</ele>
        <time>2020-06-16T10:51:12.000Z</time>
      </trkpt>
      <trkpt lat="45.18729" lon="5.8168">
        <ele>309.39</ele>
        <time>2020-06-16T10:51:17.000Z</time>
      </trkpt>
      <trkpt lat="45.18734" lon="5.81708">
        <ele>311.97</ele>
        <time>2020-06-16T10:51:22.000Z</time>
      </trkpt>
      <trkpt lat="45.18733" lon="5.81731">
        <ele>315.12</ele>
        <time>2020-06-16T10:51:27.000Z</time>
      </trkpt>
      <trkpt lat="45.1872" lon="5.81721">
        <ele>317.17</ele>
        <time>2020-06-16T10:51:32.000Z</time>
      </trkpt>
      <trkpt lat="45.18724" lon="5.81696">
        <ele>320.6</ele>
        <time>2020-06-16T10:51:37.000Z</time>
      </trkpt>
      <trkpt lat="45.18718" lon="5.81671">
        <ele>318.21</ele>
        <time>2020-06-16T10:51:42.000Z</time>
      </trkpt>
      <trkpt lat="45.1871" lon="5.81649">
        <ele>316.47</ele>
        <time>2020-06-16T10:51:47.000Z</time>
      </trkpt>
      <trkpt lat="45.18701" lon="5.8163">
        <ele>316.8</ele>
        <time>2020-06-16T10:51:52.000Z</time>
      </trkpt>
      <trkpt lat="45.18694" lon="5.8161">
        <ele>320.06</ele>
        <time>2020-06-16T10:51:57.000Z</time>
      </trkpt>
      <trkpt lat="45.18691" lon="5.81587">
        <ele>325.41</ele>
        <time>2020-06-16T10:52:02.000Z</time>
      </trkpt>
      <trkpt lat="45.18684" lon="5.81564">
        <ele>329.75</ele>
        <time>2020-06-16T10:52:07.000Z</time>
      </trkpt>
      <trkpt lat="45.18676" lon="5.8154">
        <ele>327.27</ele>
        <time>2020-06-16T10:52:12.000Z</time>
      </trkpt>
      <trkpt lat="45.18668" lon="5.81519">
        <ele>330.9</ele>
        <time>2020-06-16T10:52:17.000Z</time>
      </trkpt>
      <trkpt lat="45.18659" lon="5.815">
        <ele>332.14</ele>
        <time>2020-06-16T10:52:22.000Z</time>
      </trkpt>
      <trkpt lat="45.18649" lon="5.81486">
        <ele>331.07</ele>
        <time>2020-06-16T10:52:27.000Z</time>
      </trkpt>
      <trkpt lat="45.18638" lon="5.81471">
        <ele>332.25</ele>
        <time>2020-06-16T10:52:32.000Z</time>
      </trkpt>
      <trkpt lat="45.18625" lon="5.81456">
        <ele>329.69</ele>
        <time>2020-06-16T10:52:37.000Z</time>
      </trkpt>
      <trkpt lat="45.18616" lon="5.81435">
        <ele>332.63</ele>
        <time>2020-06-16T10:52:42.000Z</time>
      </trkpt>
      <trkpt lat="45.18606" lon="5.81418">
        <ele>331.74</ele>
        <time>2020-06-16T10:52:47.000Z</time>
      </trkpt>
      <trkpt lat="45.18595" lon="5.81397">
        <ele>332.76</ele>
        <time>2020-06-16T10:52:52.000Z</time>
      </trkpt>
      <trkpt lat="45.18584" lon="5.81371">
        <ele>336.88</ele>
        <time>2020-06-16T10:52:57.000Z</time>
      </trkpt>
      <trkpt lat="45.18569" lon="5.81348">
        <ele>337.75</ele>
        <time>2020-06-16T10:53:02.000Z</time>
      </trkpt>
      <trkpt lat="45.18553" lon="5.8133">
        <ele>339.38</ele>
        <time>2020-06-16T10:53:07.000Z</time>
      </trkpt>
      <trkpt lat="45.18549" lon="5.81352">
        <ele>346.11</ele>
        <time>2020-06-16T10:53:12.000Z</time>
      </trkpt>
      <trkpt lat="45.18568" lon="5.8137">
        <ele>351.38</ele>
        <time>2020-06-16T10:53:17.000Z</time>
      </trkpt>
      <trkpt lat="45.18581" lon="5.81394">
        <ele>355.48</ele>
        <time>2020-06-16T10:53:22.000Z</time>
      </trkpt>
      <trkpt lat="45.18583" lon="5.81421">
        <ele>356.27</ele>
        <time>2020-06-16T10:53:27.000Z</time>
      </trkpt>
      <trkpt lat="45.18584" lon="5.81449">
        <ele>358.59</ele>
        <time>2020-06-16T10:53:32.000Z</time>
      </trkpt>
      <trkpt lat="45.18586" lon="5.81476">
        <ele>357.28</ele>
        <time>2020-06-16T10:53:37.000Z</time>
      </trkpt>
      <trkpt lat="45.18587" lon="5.81503">
        <ele>359.57</ele>
        <time>2020-06-16T10:53:42.000Z</time>
      </trkpt>
      <trkpt lat="45.18586" lon="5.8153">
        <ele>360.55</ele>
        <time>2020-06-16T10:53:47.000Z</time>
      </trkpt>
      <trkpt lat="45.18585" lon="5.81559">
        <ele>360.55</ele>
        <time>2020-06-16T10:53:52.000Z</time>
      </trkpt>
      <trkpt lat="45.18585" lon="5.81587">
        <ele>360.4</ele>
        <time>2020-06-16T10:53:57.000Z</time>
      </trkpt>
      <trkpt lat="45.18585" lon="5.81617">
        <ele>359.4</ele>
        <time>2020-06-16T10:54:02.000Z</time>
      </trkpt>
      <trkpt lat="45.18587" lon="5.81647">
        <ele>358.66</ele>
        <time>2020-06-16T10:54:07.000Z</time>
      </trkpt>
      <trkpt lat="45.18595" lon="5.81673">
        <ele>363.31</ele>
        <time>2020-06-16T10:54:12.000Z</time>
      </trkpt>
      <trkpt lat="45.18606" lon="5.81697">
        <ele>369.83</ele>
        <time>2020-06-16T10:54:17.000Z</time>
      </trkpt>
      <trkpt lat="45.18611" lon="5.81726">
        <ele>373.79</ele>
        <time>2020-06-16T10:54:22.000Z</time>
      </trkpt>
      <trkpt lat="45.18615" lon="5.81755">
        <ele>376.42</ele>
        <time>2020-06-16T10:54:27.000Z</time>
      </trkpt>
      <trkpt lat="45.18611" lon="5.81782">
        <ele>380.15</ele>
        <time>2020-06-16T10:54:32.000Z</time>
      </trkpt>
      <trkpt lat="45.18596" lon="5.81797">
        <ele>382.21</ele>
        <time>2020-06-16T10:54:37.000Z</time>
      </trkpt>
      <trkpt lat="45.18584" lon="5.81816">
        <ele>383.68</ele>
        <time>2020-06-16T10:54:42.000Z</time>
      </trkpt>
      <trkpt lat="45.1859" lon="5.81844">
        <ele>380.99</ele>
        <time>2020-06-16T10:54:47.000Z</time>
      </trkpt>
      <trkpt lat="45.18613" lon="5.81862">
        <ele>385.57</ele>
        <time>2020-06-16T10:54:52.000Z</time>
      </trkpt>
      <trkpt lat="45.18636" lon="5.8187">
        <ele>385.2</ele>
        <time>2020-06-16T10:54:57.000Z</time>
      </trkpt>
      <trkpt lat="45.18648" lon="5.81896">
        <ele>385.62</ele>
        <time>2020-06-16T10:55:02.000Z</time>
      </trkpt>
      <trkpt lat="45.18656" lon="5.81924">
        <ele>387.75</ele>
        <time>2020-06-16T10:55:07.000Z</time>
      </trkpt>
      <trkpt lat="45.18661" lon="5.81949">
        <ele>383.92</ele>
        <time>2020-06-16T10:55:12.000Z</time>
      </trkpt>
      <trkpt lat="45.18666" lon="5.81974">
        <ele>386</ele>
        <time>2020-06-16T10:55:17.000Z</time>
      </trkpt>
      <trkpt lat="45.18669" lon="5.82006">
        <ele>388.61</ele>
        <time>2020-06-16T10:55:22.000Z</time>
      </trkpt>
      <trkpt lat="45.18662" lon="5.82038">
        <ele>392.1</ele>
        <time>2020-06-16T10:55:27.000Z</time>
      </trkpt>
      <trkpt lat="45.18655" lon="5.82071">
        <ele>394.33</ele>
        <time>2020-06-16T10:55:32.000Z</time>
      </trkpt>
      <trkpt lat="45.18631" lon="5.82061">
        <ele>397.93</ele>
        <time>2020-06-16T10:55:41.000Z</time>
      </trkpt>
      <trkpt lat="45.18627" lon="5.82031">
        <ele>402.97</ele>
        <time>2020-06-16T10:55:46.000Z</time>
      </trkpt>
      <trkpt lat="45.18612" lon="5.82008">
        <ele>406.41</ele>
        <time>2020-06-16T10:55:51.000Z</time>
      </trkpt>
      <trkpt lat="45.18597" lon="5.81987">
        <ele>411.12</ele>
        <time>2020-06-16T10:55:56.000Z</time>
      </trkpt>
      <trkpt lat="45.18583" lon="5.81967">
        <ele>413.17</ele>
        <time>2020-06-16T10:56:01.000Z</time>
      </trkpt>
      <trkpt lat="45.18569" lon="5.81947">
        <ele>414.59</ele>
        <time>2020-06-16T10:56:06.000Z</time>
      </trkpt>
      <trkpt lat="45.18555" lon="5.81928">
        <ele>416.66</ele>
        <time>2020-06-16T10:56:11.000Z</time>
      </trkpt>
      <trkpt lat="45.1854" lon="5.81907">
        <ele>415.98</ele>
        <time>2020-06-16T10:56:16.000Z</time>
      </trkpt>
      <trkpt lat="45.18525" lon="5.81887">
        <ele>418.62</ele>
        <time>2020-06-16T10:56:21.000Z</time>
      </trkpt>
      <trkpt lat="45.18512" lon="5.81864">
        <ele>422.51</ele>
        <time>2020-06-16T10:56:26.000Z</time>
      </trkpt>
      <trkpt lat="45.185" lon="5.81841">
        <ele>422.68</ele>
        <time>2020-06-16T10:56:31.000Z</time>
      </trkpt>
      <trkpt lat="45.18482" lon="5.81826">
        <ele>421.84</ele>
        <time>2020-06-16T10:56:36.000Z</time>
      </trkpt>
      <trkpt lat="45.18476" lon="5.81856">
        <ele>421.7</ele>
        <time>2020-06-16T10:56:41.000Z</time>
      </trkpt>
      <trkpt lat="45.18493" lon="5.81879">
        <ele>423.29</ele>
        <time>2020-06-16T10:56:46.000Z</time>
      </trkpt>
      <trkpt lat="45.18507" lon="5.81903">
        <ele>427.7</ele>
        <time>2020-06-16T10:56:51.000Z</time>
      </trkpt>
      <trkpt lat="45.18517" lon="5.81931">
        <ele>431.16</ele>
        <time>2020-06-16T10:56:56.000Z</time>
      </trkpt>
      <trkpt lat="45.18526" lon="5.81959">
        <ele>433.9</ele>
        <time>2020-06-16T10:57:01.000Z</time>
      </trkpt>
      <trkpt lat="45.18536" lon="5.81984">
        <ele>437.08</ele>
        <time>2020-06-16T10:57:06.000Z</time>
      </trkpt>
      <trkpt lat="45.18544" lon="5.82011">
        <ele>440.92</ele>
        <time>2020-06-16T10:57:11.000Z</time>
      </trkpt>
      <trkpt lat="45.18556" lon="5.82032">
        <ele>444.38</ele>
        <time>2020-06-16T10:57:16.000Z</time>
      </trkpt>
      <trkpt lat="45.18562" lon="5.82056">
        <ele>447.06</ele>
        <time>2020-06-16T10:57:21.000Z</time>
      </trkpt>
      <trkpt lat="45.18548" lon="5.82077">
        <ele>446.44</ele>
        <time>2020-06-16T10:57:26.000Z</time>
      </trkpt>
      <trkpt lat="45.18539" lon="5.82102">
        <ele>447.22</ele>
        <time>2020-06-16T10:57:31.000Z</time>
      </trkpt>
      <trkpt lat="45.18542" lon="5.8213">
        <ele>449.67</ele>
        <time>2020-06-16T10:57:36.000Z</time>
      </trkpt>
      <trkpt lat="45.18548" lon="5.82155">
        <ele>450.16</ele>
        <time>2020-06-16T10:57:41.000Z</time>
      </trkpt>
      <trkpt lat="45.18545" lon="5.82185">
        <ele>451.06</ele>
        <time>2020-06-16T10:57:46.000Z</time>
      </trkpt>
      <trkpt lat="45.18536" lon="5.82208">
        <ele>448.03</ele>
        <time>2020-06-16T10:57:51.000Z</time>
      </trkpt>
      <trkpt lat="45.18532" lon="5.82233">
        <ele>446.18</ele>
        <time>2020-06-16T10:57:56.000Z</time>
      </trkpt>
      <trkpt lat="45.1853" lon="5.82259">
        <ele>446.37</ele>
        <time>2020-06-16T10:58:01.000Z</time>
      </trkpt>
      <trkpt lat="45.1853" lon="5.82288">
        <ele>450.21</ele>
        <time>2020-06-16T10:58:06.000Z</time>
      </trkpt>
      <trkpt lat="45.18531" lon="5.8231">
        <ele>453.16</ele>
        <time>2020-06-16T10:58:11.000Z</time>
      </trkpt>
      <trkpt lat="45.18528" lon="5.82331">
        <ele>456.27</ele>
        <time>2020-06-16T10:58:16.000Z</time>
      </trkpt>
      <trkpt lat="45.18527" lon="5.82344">
        <ele>459.37</ele>
        <time>2020-06-16T10:58:22.000Z</time>
      </trkpt>
      <trkpt lat="45.18517" lon="5.82345">
        <ele>458.59</ele>
        <time>2020-06-16T11:05:31.000Z</time>
      </trkpt>
      <trkpt lat="45.18499" lon="5.8236">
        <ele>456.94</ele>
        <time>2020-06-16T11:05:36.000Z</time>
      </trkpt>
      <trkpt lat="45.18482" lon="5.82382">
        <ele>453.88</ele>
        <time>2020-06-16T11:05:41.000Z</time>
      </trkpt>
      <trkpt lat="45.18465" lon="5.8241">
        <ele>452.32</ele>
        <time>2020-06-16T11:05:46.000Z</time>
      </trkpt>
      <trkpt lat="45.18442" lon="5.82441">
        <ele>446.66</ele>
        <time>2020-06-16T11:05:51.000Z</time>
      </trkpt>
      <trkpt lat="45.18443" lon="5.82484">
        <ele>447.86</ele>
        <time>2020-06-16T11:05:56.000Z</time>
      </trkpt>
      <trkpt lat="45.18425" lon="5.82529">
        <ele>443.06</ele>
        <time>2020-06-16T11:06:01.000Z</time>
      </trkpt>
      <trkpt lat="45.18413" lon="5.82573">
        <ele>441.96</ele>
        <time>2020-06-16T11:06:06.000Z</time>
      </trkpt>
      <trkpt lat="45.18395" lon="5.82616">
        <ele>441.86</ele>
        <time>2020-06-16T11:06:11.000Z</time>
      </trkpt>
      <trkpt lat="45.18416" lon="5.82631">
        <ele>436.12</ele>
        <time>2020-06-16T11:06:16.000Z</time>
      </trkpt>
      <trkpt lat="45.18436" lon="5.82621">
        <ele>439.16</ele>
        <time>2020-06-16T11:06:21.000Z</time>
      </trkpt>
      <trkpt lat="45.18449" lon="5.82607">
        <ele>441.53</ele>
        <time>2020-06-16T11:06:26.000Z</time>
      </trkpt>
      <trkpt lat="45.18466" lon="5.82583">
        <ele>444.46</ele>
        <time>2020-06-16T11:06:31.000Z</time>
      </trkpt>
      <trkpt lat="45.18483" lon="5.82561">
        <ele>449.03</ele>
        <time>2020-06-16T11:06:36.000Z</time>
      </trkpt>
      <trkpt lat="45.18501" lon="5.82548">
        <ele>448.08</ele>
        <time>2020-06-16T11:06:41.000Z</time>
      </trkpt>
      <trkpt lat="45.18518" lon="5.82537">
        <ele>444.93</ele>
        <time>2020-06-16T11:06:46.000Z</time>
      </trkpt>
      <trkpt lat="45.18538" lon="5.82532">
        <ele>445.11</ele>
        <time>2020-06-16T11:06:51.000Z</time>
      </trkpt>
      <trkpt lat="45.18557" lon="5.82543">
        <ele>451.04</ele>
        <time>2020-06-16T11:06:56.000Z</time>
      </trkpt>
      <trkpt lat="45.18572" lon="5.8256">
        <ele>454.89</ele>
        <time>2020-06-16T11:07:01.000Z</time>
      </trkpt>
      <trkpt lat="45.18589" lon="5.82575">
        <ele>458.35</ele>
        <time>2020-06-16T11:07:06.000Z</time>
      </trkpt>
      <trkpt lat="45.18605" lon="5.82589">
        <ele>462.23</ele>
        <time>2020-06-16T11:07:11.000Z</time>
      </trkpt>
      <trkpt lat="45.1862" lon="5.82607">
        <ele>464.15</ele>
        <time>2020-06-16T11:07:16.000Z</time>
      </trkpt>
      <trkpt lat="45.18632" lon="5.82628">
        <ele>470.91</ele>
        <time>2020-06-16T11:07:21.000Z</time>
      </trkpt>
      <trkpt lat="45.18645" lon="5.82647">
        <ele>475.44</ele>
        <time>2020-06-16T11:07:26.000Z</time>
      </trkpt>
      <trkpt lat="45.18664" lon="5.82661">
        <ele>476.95</ele>
        <time>2020-06-16T11:07:31.000Z</time>
      </trkpt>
      <trkpt lat="45.18687" lon="5.82664">
        <ele>478.03</ele>
        <time>2020-06-16T11:07:36.000Z</time>
      </trkpt>
      <trkpt lat="45.18707" lon="5.82664">
        <ele>481.11</ele>
        <time>2020-06-16T11:07:41.000Z</time>
      </trkpt>
      <trkpt lat="45.18726" lon="5.82667">
        <ele>480.22</ele>
        <time>2020-06-16T11:07:46.000Z</time>
      </trkpt>
      <trkpt lat="45.18744" lon="5.82661">
        <ele>481.56</ele>
        <time>2020-06-16T11:07:51.000Z</time>
      </trkpt>
      <trkpt lat="45.18765" lon="5.82657">
        <ele>481.65</ele>
        <time>2020-06-16T11:07:56.000Z</time>
      </trkpt>
      <trkpt lat="45.18787" lon="5.82672">
        <ele>480.95</ele>
        <time>2020-06-16T11:08:01.000Z</time>
      </trkpt>
      <trkpt lat="45.18804" lon="5.82694">
        <ele>482.03</ele>
        <time>2020-06-16T11:08:06.000Z</time>
      </trkpt>
      <trkpt lat="45.1882" lon="5.82718">
        <ele>482.43</ele>
        <time>2020-06-16T11:08:11.000Z</time>
      </trkpt>
      <trkpt lat="45.18834" lon="5.82738">
        <ele>483.62</ele>
        <time>2020-06-16T11:08:16.000Z</time>
      </trkpt>
      <trkpt lat="45.18843" lon="5.82761">
        <ele>484.01</ele>
        <time>2020-06-16T11:08:21.000Z</time>
      </trkpt>
      <trkpt lat="45.1885" lon="5.82783">
        <ele>485.2</ele>
        <time>2020-06-16T11:08:26.000Z</time>
      </trkpt>
      <trkpt lat="45.18857" lon="5.82807">
        <ele>487.74</ele>
        <time>2020-06-16T11:08:31.000Z</time>
      </trkpt>
      <trkpt lat="45.18863" lon="5.82833">
        <ele>486.73</ele>
        <time>2020-06-16T11:08:36.000Z</time>
      </trkpt>
      <trkpt lat="45.18871" lon="5.8286">
        <ele>488.34</ele>
        <time>2020-06-16T11:08:41.000Z</time>
      </trkpt>
      <trkpt lat="45.18876" lon="5.82889">
        <ele>489.33</ele>
        <time>2020-06-16T11:08:46.000Z</time>
      </trkpt>
      <trkpt lat="45.18882" lon="5.82918">
        <ele>491.77</ele>
        <time>2020-06-16T11:08:51.000Z</time>
      </trkpt>
      <trkpt lat="45.1889" lon="5.82946">
        <ele>493</ele>
        <time>2020-06-16T11:08:56.000Z</time>
      </trkpt>
      <trkpt lat="45.18892" lon="5.82971">
        <ele>495.69</ele>
        <time>2020-06-16T11:09:01.000Z</time>
      </trkpt>
      <trkpt lat="45.18883" lon="5.82994">
        <ele>492.34</ele>
        <time>2020-06-16T11:09:06.000Z</time>
      </trkpt>
      <trkpt lat="45.18873" lon="5.83017">
        <ele>492.29</ele>
        <time>2020-06-16T11:09:11.000Z</time>
      </trkpt>
      <trkpt lat="45.18868" lon="5.83043">
        <ele>489.92</ele>
        <time>2020-06-16T11:09:16.000Z</time>
      </trkpt>
      <trkpt lat="45.18863" lon="5.83079">
        <ele>491.95</ele>
        <time>2020-06-16T11:09:21.000Z</time>
      </trkpt>
      <trkpt lat="45.18867" lon="5.83116">
        <ele>497.9</ele>
        <time>2020-06-16T11:09:26.000Z</time>
      </trkpt>
      <trkpt lat="45.1887" lon="5.83147">
        <ele>500.18</ele>
        <time>2020-06-16T11:09:31.000Z</time>
      </trkpt>
      <trkpt lat="45.18866" lon="5.83174">
        <ele>503.29</ele>
        <time>2020-06-16T11:09:36.000Z</time>
      </trkpt>
      <trkpt lat="45.1885" lon="5.83197">
        <ele>502.33</ele>
        <time>2020-06-16T11:09:41.000Z</time>
      </trkpt>
      <trkpt lat="45.18838" lon="5.83221">
        <ele>503.78</ele>
        <time>2020-06-16T11:09:46.000Z</time>
      </trkpt>
      <trkpt lat="45.18828" lon="5.83246">
        <ele>506.04</ele>
        <time>2020-06-16T11:09:51.000Z</time>
      </trkpt>
      <trkpt lat="45.18812" lon="5.83262">
        <ele>502.02</ele>
        <time>2020-06-16T11:09:56.000Z</time>
      </trkpt>
      <trkpt lat="45.18802" lon="5.83292">
        <ele>502.89</ele>
        <time>2020-06-16T11:10:01.000Z</time>
      </trkpt>
      <trkpt lat="45.18805" lon="5.8332">
        <ele>503.65</ele>
        <time>2020-06-16T11:10:06.000Z</time>
      </trkpt>
      <trkpt lat="45.18805" lon="5.83347">
        <ele>502.7</ele>
        <time>2020-06-16T11:10:11.000Z</time>
      </trkpt>
      <trkpt lat="45.18795" lon="5.83375">
        <ele>502.72</ele>
        <time>2020-06-16T11:10:16.000Z</time>
      </trkpt>
      <trkpt lat="45.1878" lon="5.83393">
        <ele>506.8</ele>
        <time>2020-06-16T11:10:21.000Z</time>
      </trkpt>
      <trkpt lat="45.18765" lon="5.83408">
        <ele>510.51</ele>
        <time>2020-06-16T11:10:26.000Z</time>
      </trkpt>
      <trkpt lat="45.18753" lon="5.83424">
        <ele>512.91</ele>
        <time>2020-06-16T11:10:31.000Z</time>
      </trkpt>
      <trkpt lat="45.18736" lon="5.83432">
        <ele>510.92</ele>
        <time>2020-06-16T11:10:36.000Z</time>
      </trkpt>
      <trkpt lat="45.1872" lon="5.83446">
        <ele>509.41</ele>
        <time>2020-06-16T11:10:41.000Z</time>
      </trkpt>
      <trkpt lat="45.18721" lon="5.83491">
        <ele>510.67</ele>
        <time>2020-06-16T11:10:46.000Z</time>
      </trkpt>
      <trkpt lat="45.1871" lon="5.83524">
        <ele>511.31</ele>
        <time>2020-06-16T11:10:51.000Z</time>
      </trkpt>
      <trkpt lat="45.18697" lon="5.83548">
        <ele>513.61</ele>
        <time>2020-06-16T11:10:56.000Z</time>
      </trkpt>
      <trkpt lat="45.18685" lon="5.83571">
        <ele>514.44</ele>
        <time>2020-06-16T11:11:01.000Z</time>
      </trkpt>
      <trkpt lat="45.18678" lon="5.83597">
        <ele>514.16</ele>
        <time>2020-06-16T11:11:06.000Z</time>
      </trkpt>
      <trkpt lat="45.18705" lon="5.83619">
        <ele>516.75</ele>
        <time>2020-06-16T11:11:11.000Z</time>
      </trkpt>
      <trkpt lat="45.18736" lon="5.83623">
        <ele>519.09</ele>
        <time>2020-06-16T11:11:16.000Z</time>
      </trkpt>
      <trkpt lat="45.18763" lon="5.83635">
        <ele>520.46</ele>
        <time>2020-06-16T11:11:21.000Z</time>
      </trkpt>
      <trkpt lat="45.18787" lon="5.83656">
        <ele>517.77</ele>
        <time>2020-06-16T11:11:26.000Z</time>
      </trkpt>
      <trkpt lat="45.18811" lon="5.83674">
        <ele>521.5</ele>
        <time>2020-06-16T11:11:31.000Z</time>
      </trkpt>
      <trkpt lat="45.18845" lon="5.83674">
        <ele>527</ele>
        <time>2020-06-16T11:11:36.000Z</time>
      </trkpt>
      <trkpt lat="45.18872" lon="5.83672">
        <ele>528.35</ele>
        <time>2020-06-16T11:11:41.000Z</time>
      </trkpt>
      <trkpt lat="45.189" lon="5.83665">
        <ele>532.71</ele>
        <time>2020-06-16T11:11:46.000Z</time>
      </trkpt>
      <trkpt lat="45.18926" lon="5.83675">
        <ele>536.53</ele>
        <time>2020-06-16T11:11:51.000Z</time>
      </trkpt>
      <trkpt lat="45.18941" lon="5.83708">
        <ele>539.74</ele>
        <time>2020-06-16T11:11:56.000Z</time>
      </trkpt>
      <trkpt lat="45.18955" lon="5.83742">
        <ele>539.36</ele>
        <time>2020-06-16T11:12:01.000Z</time>
      </trkpt>
      <trkpt lat="45.18974" lon="5.83772">
        <ele>540.67</ele>
        <time>2020-06-16T11:12:06.000Z</time>
      </trkpt>
      <trkpt lat="45.18995" lon="5.83802">
        <ele>541.54</ele>
        <time>2020-06-16T11:12:11.000Z</time>
      </trkpt>
      <trkpt lat="45.19001" lon="5.83834">
        <ele>541.52</ele>
        <time>2020-06-16T11:12:16.000Z</time>
      </trkpt>
      <trkpt lat="45.19004" lon="5.83857">
        <ele>543.63</ele>
        <time>2020-06-16T11:12:21.000Z</time>
      </trkpt>
      <trkpt lat="45.1901" lon="5.83887">
        <ele>544.56</ele>
        <time>2020-06-16T11:12:26.000Z</time>
      </trkpt>
      <trkpt lat="45.19012" lon="5.83913">
        <ele>543.47</ele>
        <time>2020-06-16T11:12:31.000Z</time>
      </trkpt>
      <trkpt lat="45.19014" lon="5.8394">
        <ele>544.86</ele>
        <time>2020-06-16T11:12:36.000Z</time>
      </trkpt>
      <trkpt lat="45.19018" lon="5.83968">
        <ele>548.43</ele>
        <time>2020-06-16T11:12:41.000Z</time>
      </trkpt>
      <trkpt lat="45.19024" lon="5.83993">
        <ele>549.37</ele>
        <time>2020-06-16T11:12:46.000Z</time>
      </trkpt>
      <trkpt lat="45.1903" lon="5.84019">
        <ele>550.13</ele>
        <time>2020-06-16T11:12:51.000Z</time>
      </trkpt>
      <trkpt lat="45.19031" lon="5.84044">
        <ele>548.06</ele>
        <time>2020-06-16T11:12:56.000Z</time>
      </trkpt>
      <trkpt lat="45.19027" lon="5.84065">
        <ele>549.94</ele>
        <time>2020-06-16T11:13:01.000Z</time>
      </trkpt>
      <trkpt lat="45.19015" lon="5.84086">
        <ele>551.96</ele>
        <time>2020-06-16T11:13:06.000Z</time>
      </trkpt>
      <trkpt lat="45.18997" lon="5.84101">
        <ele>553.43</ele>
        <time>2020-06-16T11:13:11.000Z</time>
      </trkpt>
      <trkpt lat="45.18972" lon="5.84118">
        <ele>551.4</ele>
        <time>2020-06-16T11:13:16.000Z</time>
      </trkpt>
      <trkpt lat="45.18944" lon="5.84136">
        <ele>556.36</ele>
        <time>2020-06-16T11:13:21.000Z</time>
      </trkpt>
      <trkpt lat="45.18922" lon="5.84167">
        <ele>561.07</ele>
        <time>2020-06-16T11:13:26.000Z</time>
      </trkpt>
      <trkpt lat="45.18916" lon="5.84215">
        <ele>563.49</ele>
        <time>2020-06-16T11:13:31.000Z</time>
      </trkpt>
      <trkpt lat="45.18913" lon="5.84258">
        <ele>564.11</ele>
        <time>2020-06-16T11:13:36.000Z</time>
      </trkpt>
      <trkpt lat="45.18912" lon="5.84296">
        <ele>561.19</ele>
        <time>2020-06-16T11:13:41.000Z</time>
      </trkpt>
      <trkpt lat="45.18904" lon="5.84329">
        <ele>561.28</ele>
        <time>2020-06-16T11:13:46.000Z</time>
      </trkpt>
      <trkpt lat="45.18896" lon="5.84358">
        <ele>563.2</ele>
        <time>2020-06-16T11:13:51.000Z</time>
      </trkpt>
      <trkpt lat="45.18894" lon="5.8439">
        <ele>564.92</ele>
        <time>2020-06-16T11:13:56.000Z</time>
      </trkpt>
      <trkpt lat="45.189" lon="5.84414">
        <ele>566.45</ele>
        <time>2020-06-16T11:14:01.000Z</time>
      </trkpt>
      <trkpt lat="45.1891" lon="5.84443">
        <ele>567.76</ele>
        <time>2020-06-16T11:14:06.000Z</time>
      </trkpt>
      <trkpt lat="45.18913" lon="5.84471">
        <ele>568.07</ele>
        <time>2020-06-16T11:14:11.000Z</time>
      </trkpt>
      <trkpt lat="45.18911" lon="5.84497">
        <ele>568.92</ele>
        <time>2020-06-16T11:14:16.000Z</time>
      </trkpt>
      <trkpt lat="45.18908" lon="5.84524">
        <ele>572.27</ele>
        <time>2020-06-16T11:14:21.000Z</time>
      </trkpt>
      <trkpt lat="45.18904" lon="5.84545">
        <ele>574.55</ele>
        <time>2020-06-16T11:14:26.000Z</time>
      </trkpt>
      <trkpt lat="45.18896" lon="5.84551">
        <ele>576.62</ele>
        <time>2020-06-16T11:14:31.000Z</time>
      </trkpt>
      <trkpt lat="45.18883" lon="5.84549">
        <ele>578.65</ele>
        <time>2020-06-16T11:14:36.000Z</time>
      </trkpt>
      <trkpt lat="45.18873" lon="5.84546">
        <ele>576.64</ele>
        <time>2020-06-16T11:14:41.000Z</time>
      </trkpt>
      <trkpt lat="45.18863" lon="5.84544">
        <ele>576.6</ele>
        <time>2020-06-16T11:14:46.000Z</time>
      </trkpt>
      <trkpt lat="45.18853" lon="5.84546">
        <ele>580.08</ele>
        <time>2020-06-16T11:19:01.000Z</time>
      </trkpt>
      <trkpt lat="45.18844" lon="5.84544">
        <ele>583.65</ele>
        <time>2020-06-16T11:19:06.000Z</time>
      </trkpt>
      <trkpt lat="45.18828" lon="5.84542">
        <ele>585.35</ele>
        <time>2020-06-16T11:19:11.000Z</time>
      </trkpt>
      <trkpt lat="45.18812" lon="5.8454">
        <ele>585.64</ele>
        <time>2020-06-16T11:19:16.000Z</time>
      </trkpt>
      <trkpt lat="45.18796" lon="5.84542">
        <ele>582.63</ele>
        <time>2020-06-16T11:19:21.000Z</time>
      </trkpt>
      <trkpt lat="45.1878" lon="5.84547">
        <ele>581.53</ele>
        <time>2020-06-16T11:19:26.000Z</time>
      </trkpt>
      <trkpt lat="45.18764" lon="5.84561">
        <ele>577.66</ele>
        <time>2020-06-16T11:19:31.000Z</time>
      </trkpt>
      <trkpt lat="45.1875" lon="5.84577">
        <ele>577.32</ele>
        <time>2020-06-16T11:19:36.000Z</time>
      </trkpt>
      <trkpt lat="45.18736" lon="5.84591">
        <ele>578.8</ele>
        <time>2020-06-16T11:19:41.000Z</time>
      </trkpt>
      <trkpt lat="45.18723" lon="5.84607">
        <ele>580.01</ele>
        <time>2020-06-16T11:19:46.000Z</time>
      </trkpt>
      <trkpt lat="45.18715" lon="5.84629">
        <ele>579.36</ele>
        <time>2020-06-16T11:19:51.000Z</time>
      </trkpt>
      <trkpt lat="45.18708" lon="5.84653">
        <ele>580.6</ele>
        <time>2020-06-16T11:19:56.000Z</time>
      </trkpt>
      <trkpt lat="45.18693" lon="5.84673">
        <ele>582.67</ele>
        <time>2020-06-16T11:20:01.000Z</time>
      </trkpt>
      <trkpt lat="45.18671" lon="5.84675">
        <ele>576.5</ele>
        <time>2020-06-16T11:20:06.000Z</time>
      </trkpt>
      <trkpt lat="45.18644" lon="5.84672">
        <ele>576.83</ele>
        <time>2020-06-16T11:20:11.000Z</time>
      </trkpt>
      <trkpt lat="45.18631" lon="5.84668">
        <ele>579.6</ele>
        <time>2020-06-16T11:20:16.000Z</time>
      </trkpt>
      <trkpt lat="45.18613" lon="5.84669">
        <ele>576.82</ele>
        <time>2020-06-16T11:20:21.000Z</time>
      </trkpt>
      <trkpt lat="45.18602" lon="5.84702">
        <ele>574.42</ele>
        <time>2020-06-16T11:20:26.000Z</time>
      </trkpt>
      <trkpt lat="45.18602" lon="5.84745">
        <ele>577.37</ele>
        <time>2020-06-16T11:20:31.000Z</time>
      </trkpt>
      <trkpt lat="45.18607" lon="5.8478">
        <ele>576.61</ele>
        <time>2020-06-16T11:20:36.000Z</time>
      </trkpt>
      <trkpt lat="45.18612" lon="5.84808">
        <ele>579.55</ele>
        <time>2020-06-16T11:20:41.000Z</time>
      </trkpt>
      <trkpt lat="45.18614" lon="5.84836">
        <ele>582.72</ele>
        <time>2020-06-16T11:20:46.000Z</time>
      </trkpt>
      <trkpt lat="45.18622" lon="5.84865">
        <ele>583.58</ele>
        <time>2020-06-16T11:20:51.000Z</time>
      </trkpt>
      <trkpt lat="45.18629" lon="5.84896">
        <ele>585.24</ele>
        <time>2020-06-16T11:20:56.000Z</time>
      </trkpt>
      <trkpt lat="45.1864" lon="5.84929">
        <ele>586.37</ele>
        <time>2020-06-16T11:21:01.000Z</time>
      </trkpt>
      <trkpt lat="45.18645" lon="5.84956">
        <ele>587.23</ele>
        <time>2020-06-16T11:21:06.000Z</time>
      </trkpt>
      <trkpt lat="45.18658" lon="5.84985">
        <ele>589.58</ele>
        <time>2020-06-16T11:21:11.000Z</time>
      </trkpt>
      <trkpt lat="45.18666" lon="5.85014">
        <ele>589.76</ele>
        <time>2020-06-16T11:21:16.000Z</time>
      </trkpt>
      <trkpt lat="45.18659" lon="5.8504">
        <ele>586.06</ele>
        <time>2020-06-16T11:21:21.000Z</time>
      </trkpt>
      <trkpt lat="45.18641" lon="5.85053">
        <ele>583.39</ele>
        <time>2020-06-16T11:21:26.000Z</time>
      </trkpt>
      <trkpt lat="45.1862" lon="5.85058">
        <ele>582.88</ele>
        <time>2020-06-16T11:21:31.000Z</time>
      </trkpt>
      <trkpt lat="45.18597" lon="5.85065">
        <ele>581.8</ele>
        <time>2020-06-16T11:21:36.000Z</time>
      </trkpt>
      <trkpt lat="45.18576" lon="5.8507">
        <ele>580.76</ele>
        <time>2020-06-16T11:21:41.000Z</time>
      </trkpt>
      <trkpt lat="45.18553" lon="5.85081">
        <ele>581.31</ele>
        <time>2020-06-16T11:21:46.000Z</time>
      </trkpt>
      <trkpt lat="45.18521" lon="5.85087">
        <ele>577.09</ele>
        <time>2020-06-16T11:21:51.000Z</time>
      </trkpt>
      <trkpt lat="45.18501" lon="5.85097">
        <ele>578.13</ele>
        <time>2020-06-16T11:21:56.000Z</time>
      </trkpt>
      <trkpt lat="45.18475" lon="5.85105">
        <ele>577.46</ele>
        <time>2020-06-16T11:22:01.000Z</time>
      </trkpt>
      <trkpt lat="45.18454" lon="5.85111">
        <ele>574.19</ele>
        <time>2020-06-16T11:22:06.000Z</time>
      </trkpt>
      <trkpt lat="45.18427" lon="5.85119">
        <ele>572.24</ele>
        <time>2020-06-16T11:22:11.000Z</time>
      </trkpt>
      <trkpt lat="45.18399" lon="5.85126">
        <ele>572.23</ele>
        <time>2020-06-16T11:22:16.000Z</time>
      </trkpt>
      <trkpt lat="45.18376" lon="5.85132">
        <ele>572.56</ele>
        <time>2020-06-16T11:22:21.000Z</time>
      </trkpt>
      <trkpt lat="45.18352" lon="5.85135">
        <ele>574.43</ele>
        <time>2020-06-16T11:22:26.000Z</time>
      </trkpt>
      <trkpt lat="45.18324" lon="5.85141">
        <ele>576.16</ele>
        <time>2020-06-16T11:22:31.000Z</time>
      </trkpt>
      <trkpt lat="45.18296" lon="5.85134">
        <ele>574.42</ele>
        <time>2020-06-16T11:22:36.000Z</time>
      </trkpt>
      <trkpt lat="45.18268" lon="5.85133">
        <ele>575.85</ele>
        <time>2020-06-16T11:22:41.000Z</time>
      </trkpt>
      <trkpt lat="45.18239" lon="5.85128">
        <ele>575.91</ele>
        <time>2020-06-16T11:22:46.000Z</time>
      </trkpt>
      <trkpt lat="45.18207" lon="5.85122">
        <ele>576.93</ele>
        <time>2020-06-16T11:22:51.000Z</time>
      </trkpt>
      <trkpt lat="45.18176" lon="5.85125">
        <ele>578.72</ele>
        <time>2020-06-16T11:22:56.000Z</time>
      </trkpt>
      <trkpt lat="45.18146" lon="5.8513">
        <ele>580.88</ele>
        <time>2020-06-16T11:23:01.000Z</time>
      </trkpt>
      <trkpt lat="45.18118" lon="5.85131">
        <ele>581.51</ele>
        <time>2020-06-16T11:23:06.000Z</time>
      </trkpt>
      <trkpt lat="45.18099" lon="5.85163">
        <ele>584.47</ele>
        <time>2020-06-16T11:23:11.000Z</time>
      </trkpt>
      <trkpt lat="45.18084" lon="5.85198">
        <ele>585.18</ele>
        <time>2020-06-16T11:23:16.000Z</time>
      </trkpt>
      <trkpt lat="45.18073" lon="5.8524">
        <ele>585.17</ele>
        <time>2020-06-16T11:23:21.000Z</time>
      </trkpt>
      <trkpt lat="45.18067" lon="5.85284">
        <ele>586.06</ele>
        <time>2020-06-16T11:23:26.000Z</time>
      </trkpt>
      <trkpt lat="45.18062" lon="5.85324">
        <ele>590.29</ele>
        <time>2020-06-16T11:23:31.000Z</time>
      </trkpt>
      <trkpt lat="45.18053" lon="5.85361">
        <ele>591.77</ele>
        <time>2020-06-16T11:23:36.000Z</time>
      </trkpt>
      <trkpt lat="45.18043" lon="5.85391">
        <ele>595.98</ele>
        <time>2020-06-16T11:23:41.000Z</time>
      </trkpt>
      <trkpt lat="45.18026" lon="5.85421">
        <ele>599.83</ele>
        <time>2020-06-16T11:23:46.000Z</time>
      </trkpt>
      <trkpt lat="45.18003" lon="5.85436">
        <ele>602.66</ele>
        <time>2020-06-16T11:23:51.000Z</time>
      </trkpt>
      <trkpt lat="45.17979" lon="5.85444">
        <ele>598.89</ele>
        <time>2020-06-16T11:23:56.000Z</time>
      </trkpt>
      <trkpt lat="45.17958" lon="5.85439">
        <ele>598.8</ele>
        <time>2020-06-16T11:24:01.000Z</time>
      </trkpt>
      <trkpt lat="45.17935" lon="5.8544">
        <ele>602.79</ele>
        <time>2020-06-16T11:24:06.000Z</time>
      </trkpt>
      <trkpt lat="45.17906" lon="5.85437">
        <ele>604.45</ele>
        <time>2020-06-16T11:24:11.000Z</time>
      </trkpt>
      <trkpt lat="45.17876" lon="5.85427">
        <ele>604.65</ele>
        <time>2020-06-16T11:24:16.000Z</time>
      </trkpt>
      <trkpt lat="45.17851" lon="5.85421">
        <ele>606.34</ele>
        <time>2020-06-16T11:24:21.000Z</time>
      </trkpt>
      <trkpt lat="45.17827" lon="5.85412">
        <ele>606.3</ele>
        <time>2020-06-16T11:24:26.000Z</time>
      </trkpt>
      <trkpt lat="45.17807" lon="5.85392">
        <ele>605.08</ele>
        <time>2020-06-16T11:24:31.000Z</time>
      </trkpt>
      <trkpt lat="45.17782" lon="5.85375">
        <ele>605</ele>
        <time>2020-06-16T11:24:36.000Z</time>
      </trkpt>
      <trkpt lat="45.17755" lon="5.8536">
        <ele>605.83</ele>
        <time>2020-06-16T11:24:41.000Z</time>
      </trkpt>
      <trkpt lat="45.17737" lon="5.85349">
        <ele>608.6</ele>
        <time>2020-06-16T11:24:46.000Z</time>
      </trkpt>
      <trkpt lat="45.17713" lon="5.85337">
        <ele>608.27</ele>
        <time>2020-06-16T11:24:51.000Z</time>
      </trkpt>
      <trkpt lat="45.17683" lon="5.85341">
        <ele>609.61</ele>
        <time>2020-06-16T11:24:56.000Z</time>
      </trkpt>
      <trkpt lat="45.17651" lon="5.85338">
        <ele>609.9</ele>
        <time>2020-06-16T11:25:01.000Z</time>
      </trkpt>
      <trkpt lat="45.17614" lon="5.85345">
        <ele>608.41</ele>
        <time>2020-06-16T11:25:06.000Z</time>
      </trkpt>
      <trkpt lat="45.17609" lon="5.85394">
        <ele>606.11</ele>
        <time>2020-06-16T11:25:11.000Z</time>
      </trkpt>
      <trkpt lat="45.17616" lon="5.85446">
        <ele>611.63</ele>
        <time>2020-06-16T11:25:16.000Z</time>
      </trkpt>
      <trkpt lat="45.17604" lon="5.85494">
        <ele>613.26</ele>
        <time>2020-06-16T11:25:21.000Z</time>
      </trkpt>
      <trkpt lat="45.17583" lon="5.85523">
        <ele>614.44</ele>
        <time>2020-06-16T11:25:26.000Z</time>
      </trkpt>
      <trkpt lat="45.17551" lon="5.85539">
        <ele>615.14</ele>
        <time>2020-06-16T11:25:31.000Z</time>
      </trkpt>
      <trkpt lat="45.17513" lon="5.85549">
        <ele>612.8</ele>
        <time>2020-06-16T11:25:36.000Z</time>
      </trkpt>
      <trkpt lat="45.17475" lon="5.85553">
        <ele>612.8</ele>
        <time>2020-06-16T11:25:41.000Z</time>
      </trkpt>
      <trkpt lat="45.1745" lon="5.85581">
        <ele>610.89</ele>
        <time>2020-06-16T11:25:46.000Z</time>
      </trkpt>
      <trkpt lat="45.17447" lon="5.8563">
        <ele>610.13</ele>
        <time>2020-06-16T11:25:51.000Z</time>
      </trkpt>
      <trkpt lat="45.17456" lon="5.85672">
        <ele>609.48</ele>
        <time>2020-06-16T11:25:56.000Z</time>
      </trkpt>
      <trkpt lat="45.17464" lon="5.85715">
        <ele>611.72</ele>
        <time>2020-06-16T11:26:01.000Z</time>
      </trkpt>
      <trkpt lat="45.17474" lon="5.85746">
        <ele>613.94</ele>
        <time>2020-06-16T11:26:06.000Z</time>
      </trkpt>
      <trkpt lat="45.17487" lon="5.85782">
        <ele>614.63</ele>
        <time>2020-06-16T11:26:11.000Z</time>
      </trkpt>
      <trkpt lat="45.17491" lon="5.8582">
        <ele>615.51</ele>
        <time>2020-06-16T11:26:16.000Z</time>
      </trkpt>
      <trkpt lat="45.17504" lon="5.85852">
        <ele>616.82</ele>
        <time>2020-06-16T11:26:21.000Z</time>
      </trkpt>
      <trkpt lat="45.17518" lon="5.85888">
        <ele>615.45</ele>
        <time>2020-06-16T11:26:26.000Z</time>
      </trkpt>
      <trkpt lat="45.17534" lon="5.85931">
        <ele>611.33</ele>
        <time>2020-06-16T11:26:31.000Z</time>
      </trkpt>
      <trkpt lat="45.17563" lon="5.85966">
        <ele>613.54</ele>
        <time>2020-06-16T11:26:36.000Z</time>
      </trkpt>
      <trkpt lat="45.17592" lon="5.85992">
        <ele>612.76</ele>
        <time>2020-06-16T11:26:41.000Z</time>
      </trkpt>
      <trkpt lat="45.17606" lon="5.86015">
        <ele>609.24</ele>
        <time>2020-06-16T11:26:46.000Z</time>
      </trkpt>
      <trkpt lat="45.17616" lon="5.86042">
        <ele>611.32</ele>
        <time>2020-06-16T11:26:51.000Z</time>
      </trkpt>
      <trkpt lat="45.17629" lon="5.86067">
        <ele>614.73</ele>
        <time>2020-06-16T11:26:56.000Z</time>
      </trkpt>
      <trkpt lat="45.17634" lon="5.86089">
        <ele>614.57</ele>
        <time>2020-06-16T11:27:01.000Z</time>
      </trkpt>
      <trkpt lat="45.17633" lon="5.86111">
        <ele>614.28</ele>
        <time>2020-06-16T11:27:06.000Z</time>
      </trkpt>
      <trkpt lat="45.17634" lon="5.86127">
        <ele>614.19</ele>
        <time>2020-06-16T11:27:11.000Z</time>
      </trkpt>
      <trkpt lat="45.17635" lon="5.86144">
        <ele>617.15</ele>
        <time>2020-06-16T11:28:35.000Z</time>
      </trkpt>
      <trkpt lat="45.17651" lon="5.86172">
        <ele>615.72</ele>
        <time>2020-06-16T11:28:40.000Z</time>
      </trkpt>
      <trkpt lat="45.17673" lon="5.86205">
        <ele>612.23</ele>
        <time>2020-06-16T11:28:45.000Z</time>
      </trkpt>
      <trkpt lat="45.17691" lon="5.86239">
        <ele>613.08</ele>
        <time>2020-06-16T11:28:50.000Z</time>
      </trkpt>
      <trkpt lat="45.17707" lon="5.86286">
        <ele>611.52</ele>
        <time>2020-06-16T11:28:55.000Z</time>
      </trkpt>
      <trkpt lat="45.17723" lon="5.86324">
        <ele>610.72</ele>
        <time>2020-06-16T11:29:00.000Z</time>
      </trkpt>
      <trkpt lat="45.17754" lon="5.86336">
        <ele>609.12</ele>
        <time>2020-06-16T11:29:05.000Z</time>
      </trkpt>
      <trkpt lat="45.17777" lon="5.8635">
        <ele>609.36</ele>
        <time>2020-06-16T11:29:10.000Z</time>
      </trkpt>
      <trkpt lat="45.178" lon="5.86365">
        <ele>611.33</ele>
        <time>2020-06-16T11:29:15.000Z</time>
      </trkpt>
      <trkpt lat="45.17821" lon="5.86381">
        <ele>613.99</ele>
        <time>2020-06-16T11:29:20.000Z</time>
      </trkpt>
      <trkpt lat="45.17837" lon="5.86377">
        <ele>614.21</ele>
        <time>2020-06-16T11:29:25.000Z</time>
      </trkpt>
      <trkpt lat="45.17856" lon="5.86375">
        <ele>616.89</ele>
        <time>2020-06-16T11:29:30.000Z</time>
      </trkpt>
      <trkpt lat="45.17873" lon="5.86374">
        <ele>617.46</ele>
        <time>2020-06-16T11:29:35.000Z</time>
      </trkpt>
      <trkpt lat="45.1789" lon="5.86374">
        <ele>618.51</ele>
        <time>2020-06-16T11:29:40.000Z</time>
      </trkpt>
      <trkpt lat="45.17907" lon="5.8637">
        <ele>618.34</ele>
        <time>2020-06-16T11:29:45.000Z</time>
      </trkpt>
      <trkpt lat="45.17922" lon="5.86367">
        <ele>619.69</ele>
        <time>2020-06-16T11:29:50.000Z</time>
      </trkpt>
      <trkpt lat="45.17937" lon="5.86366">
        <ele>621.1</ele>
        <time>2020-06-16T11:29:55.000Z</time>
      </trkpt>
      <trkpt lat="45.1795" lon="5.86363">
        <ele>615</ele>
        <time>2020-06-16T11:30:00.000Z</time>
      </trkpt>
      <trkpt lat="45.17962" lon="5.8636">
        <ele>614.78</ele>
        <time>2020-06-16T11:30:05.000Z</time>
      </trkpt>
      <trkpt lat="45.17979" lon="5.86359">
        <ele>611.62</ele>
        <time>2020-06-16T11:30:10.000Z</time>
      </trkpt>
      <trkpt lat="45.18003" lon="5.86359">
        <ele>611.96</ele>
        <time>2020-06-16T11:30:15.000Z</time>
      </trkpt>
      <trkpt lat="45.18018" lon="5.86385">
        <ele>613.17</ele>
        <time>2020-06-16T11:30:20.000Z</time>
      </trkpt>
      <trkpt lat="45.18018" lon="5.86424">
        <ele>611.31</ele>
        <time>2020-06-16T11:30:25.000Z</time>
      </trkpt>
      <trkpt lat="45.18019" lon="5.86473">
        <ele>611.09</ele>
        <time>2020-06-16T11:30:30.000Z</time>
      </trkpt>
      <trkpt lat="45.18013" lon="5.86534">
        <ele>605.99</ele>
        <time>2020-06-16T11:30:35.000Z</time>
      </trkpt>
      <trkpt lat="45.18015" lon="5.86598">
        <ele>602.37</ele>
        <time>2020-06-16T11:30:40.000Z</time>
      </trkpt>
      <trkpt lat="45.18017" lon="5.86663">
        <ele>601.25</ele>
        <time>2020-06-16T11:30:45.000Z</time>
      </trkpt>
      <trkpt lat="45.18011" lon="5.86724">
        <ele>595.91</ele>
        <time>2020-06-16T11:30:50.000Z</time>
      </trkpt>
      <trkpt lat="45.1802" lon="5.86784">
        <ele>590.82</ele>
        <time>2020-06-16T11:30:55.000Z</time>
      </trkpt>
      <trkpt lat="45.18034" lon="5.86853">
        <ele>586.89</ele>
        <time>2020-06-16T11:31:00.000Z</time>
      </trkpt>
      <trkpt lat="45.18052" lon="5.86927">
        <ele>583.46</ele>
        <time>2020-06-16T11:31:05.000Z</time>
      </trkpt>
      <trkpt lat="45.18054" lon="5.87011">
        <ele>586.57</ele>
        <time>2020-06-16T11:31:10.000Z</time>
      </trkpt>
      <trkpt lat="45.18044" lon="5.87093">
        <ele>580.81</ele>
        <time>2020-06-16T11:31:15.000Z</time>
      </trkpt>
      <trkpt lat="45.18053" lon="5.87177">
        <ele>576.85</ele>
        <time>2020-06-16T11:31:20.000Z</time>
      </trkpt>
      <trkpt lat="45.18061" lon="5.87236">
        <ele>573.11</ele>
        <time>2020-06-16T11:31:25.000Z</time>
      </trkpt>
      <trkpt lat="45.18093" lon="5.87209">
        <ele>569.18</ele>
        <time>2020-06-16T11:31:30.000Z</time>
      </trkpt>
      <trkpt lat="45.18108" lon="5.87173">
        <ele>569.95</ele>
        <time>2020-06-16T11:31:35.000Z</time>
      </trkpt>
      <trkpt lat="45.18124" lon="5.87158">
        <ele>568.4</ele>
        <time>2020-06-16T11:31:40.000Z</time>
      </trkpt>
      <trkpt lat="45.18131" lon="5.87139">
        <ele>570.88</ele>
        <time>2020-06-16T11:31:45.000Z</time>
      </trkpt>
      <trkpt lat="45.18141" lon="5.87129">
        <ele>572.02</ele>
        <time>2020-06-16T11:31:50.000Z</time>
      </trkpt>
      <trkpt lat="45.18152" lon="5.87127">
        <ele>573.08</ele>
        <time>2020-06-16T11:31:55.000Z</time>
      </trkpt>
      <trkpt lat="45.18164" lon="5.8713">
        <ele>574.02</ele>
        <time>2020-06-16T11:32:17.000Z</time>
      </trkpt>
      <trkpt lat="45.18183" lon="5.87125">
        <ele>574.13</ele>
        <time>2020-06-16T11:32:22.000Z</time>
      </trkpt>
      <trkpt lat="45.18196" lon="5.87105">
        <ele>579.17</ele>
        <time>2020-06-16T11:32:27.000Z</time>
      </trkpt>
      <trkpt lat="45.18204" lon="5.87083">
        <ele>579.81</ele>
        <time>2020-06-16T11:32:32.000Z</time>
      </trkpt>
      <trkpt lat="45.1821" lon="5.87061">
        <ele>581.22</ele>
        <time>2020-06-16T11:32:37.000Z</time>
      </trkpt>
      <trkpt lat="45.18214" lon="5.87038">
        <ele>584.16</ele>
        <time>2020-06-16T11:32:42.000Z</time>
      </trkpt>
      <trkpt lat="45.18219" lon="5.87015">
        <ele>585.61</ele>
        <time>2020-06-16T11:32:47.000Z</time>
      </trkpt>
      <trkpt lat="45.18225" lon="5.86992">
        <ele>588.79</ele>
        <time>2020-06-16T11:32:52.000Z</time>
      </trkpt>
      <trkpt lat="45.18231" lon="5.86971">
        <ele>592.91</ele>
        <time>2020-06-16T11:32:57.000Z</time>
      </trkpt>
      <trkpt lat="45.18236" lon="5.86949">
        <ele>596.42</ele>
        <time>2020-06-16T11:33:02.000Z</time>
      </trkpt>
      <trkpt lat="45.18243" lon="5.8693">
        <ele>598.08</ele>
        <time>2020-06-16T11:33:07.000Z</time>
      </trkpt>
      <trkpt lat="45.1825" lon="5.86906">
        <ele>597.57</ele>
        <time>2020-06-16T11:33:12.000Z</time>
      </trkpt>
      <trkpt lat="45.18258" lon="5.86887">
        <ele>598.68</ele>
        <time>2020-06-16T11:33:17.000Z</time>
      </trkpt>
      <trkpt lat="45.18266" lon="5.86863">
        <ele>600.61</ele>
        <time>2020-06-16T11:33:22.000Z</time>
      </trkpt>
      <trkpt lat="45.18272" lon="5.86843">
        <ele>598.93</ele>
        <time>2020-06-16T11:33:27.000Z</time>
      </trkpt>
      <trkpt lat="45.18276" lon="5.86819">
        <ele>603.32</ele>
        <time>2020-06-16T11:33:32.000Z</time>
      </trkpt>
      <trkpt lat="45.18282" lon="5.86796">
        <ele>605.32</ele>
        <time>2020-06-16T11:33:37.000Z</time>
      </trkpt>
      <trkpt lat="45.18287" lon="5.86773">
        <ele>605.48</ele>
        <time>2020-06-16T11:33:42.000Z</time>
      </trkpt>
      <trkpt lat="45.1829" lon="5.86749">
        <ele>605.62</ele>
        <time>2020-06-16T11:33:47.000Z</time>
      </trkpt>
      <trkpt lat="45.18294" lon="5.86726">
        <ele>606.06</ele>
        <time>2020-06-16T11:33:52.000Z</time>
      </trkpt>
      <trkpt lat="45.18301" lon="5.86707">
        <ele>605.36</ele>
        <time>2020-06-16T11:33:57.000Z</time>
      </trkpt>
      <trkpt lat="45.18315" lon="5.86693">
        <ele>607.01</ele>
        <time>2020-06-16T11:34:02.000Z</time>
      </trkpt>
      <trkpt lat="45.18331" lon="5.86678">
        <ele>607.36</ele>
        <time>2020-06-16T11:34:07.000Z</time>
      </trkpt>
      <trkpt lat="45.18345" lon="5.86662">
        <ele>607.79</ele>
        <time>2020-06-16T11:34:12.000Z</time>
      </trkpt>
      <trkpt lat="45.18358" lon="5.86645">
        <ele>608.29</ele>
        <time>2020-06-16T11:34:17.000Z</time>
      </trkpt>
      <trkpt lat="45.1837" lon="5.86624">
        <ele>611.15</ele>
        <time>2020-06-16T11:34:22.000Z</time>
      </trkpt>
      <trkpt lat="45.18383" lon="5.86604">
        <ele>613.6</ele>
        <time>2020-06-16T11:34:27.000Z</time>
      </trkpt>
      <trkpt lat="45.18396" lon="5.86587">
        <ele>617.23</ele>
        <time>2020-06-16T11:34:32.000Z</time>
      </trkpt>
      <trkpt lat="45.18414" lon="5.86589">
        <ele>619.47</ele>
        <time>2020-06-16T11:34:37.000Z</time>
      </trkpt>
      <trkpt lat="45.18427" lon="5.86602">
        <ele>619.52</ele>
        <time>2020-06-16T11:34:42.000Z</time>
      </trkpt>
      <trkpt lat="45.18443" lon="5.86619">
        <ele>622</ele>
        <time>2020-06-16T11:34:47.000Z</time>
      </trkpt>
      <trkpt lat="45.18462" lon="5.86635">
        <ele>625.54</ele>
        <time>2020-06-16T11:34:52.000Z</time>
      </trkpt>
      <trkpt lat="45.18479" lon="5.86654">
        <ele>626.43</ele>
        <time>2020-06-16T11:34:57.000Z</time>
      </trkpt>
      <trkpt lat="45.18498" lon="5.86678">
        <ele>628.42</ele>
        <time>2020-06-16T11:35:02.000Z</time>
      </trkpt>
      <trkpt lat="45.18505" lon="5.86705">
        <ele>629.64</ele>
        <time>2020-06-16T11:35:07.000Z</time>
      </trkpt>
      <trkpt lat="45.1851" lon="5.86724">
        <ele>632.93</ele>
        <time>2020-06-16T11:35:12.000Z</time>
      </trkpt>
      <trkpt lat="45.185" lon="5.86714">
        <ele>629.8</ele>
        <time>2020-06-16T11:35:28.000Z</time>
      </trkpt>
      <trkpt lat="45.18489" lon="5.867">
        <ele>626.82</ele>
        <time>2020-06-16T11:35:33.000Z</time>
      </trkpt>
      <trkpt lat="45.1848" lon="5.8669">
        <ele>627.65</ele>
        <time>2020-06-16T11:35:38.000Z</time>
      </trkpt>
      <trkpt lat="45.1847" lon="5.86699">
        <ele>628.66</ele>
        <time>2020-06-16T11:35:43.000Z</time>
      </trkpt>
      <trkpt lat="45.18472" lon="5.86718">
        <ele>630.41</ele>
        <time>2020-06-16T11:35:48.000Z</time>
      </trkpt>
      <trkpt lat="45.18482" lon="5.86738">
        <ele>630.9</ele>
        <time>2020-06-16T11:35:53.000Z</time>
      </trkpt>
      <trkpt lat="45.18473" lon="5.86752">
        <ele>634.59</ele>
        <time>2020-06-16T11:35:58.000Z</time>
      </trkpt>
      <trkpt lat="45.18458" lon="5.86765">
        <ele>636.61</ele>
        <time>2020-06-16T11:36:03.000Z</time>
      </trkpt>
      <trkpt lat="45.18445" lon="5.8678">
        <ele>636.26</ele>
        <time>2020-06-16T11:36:08.000Z</time>
      </trkpt>
      <trkpt lat="45.18434" lon="5.86801">
        <ele>639.32</ele>
        <time>2020-06-16T11:36:13.000Z</time>
      </trkpt>
      <trkpt lat="45.18428" lon="5.86823">
        <ele>640.95</ele>
        <time>2020-06-16T11:36:18.000Z</time>
      </trkpt>
      <trkpt lat="45.18423" lon="5.86844">
        <ele>642.03</ele>
        <time>2020-06-16T11:36:23.000Z</time>
      </trkpt>
      <trkpt lat="45.18418" lon="5.8686">
        <ele>640.62</ele>
        <time>2020-06-16T11:36:28.000Z</time>
      </trkpt>
      <trkpt lat="45.18409" lon="5.86879">
        <ele>642.77</ele>
        <time>2020-06-16T11:36:33.000Z</time>
      </trkpt>
      <trkpt lat="45.18401" lon="5.869">
        <ele>643.15</ele>
        <time>2020-06-16T11:36:38.000Z</time>
      </trkpt>
      <trkpt lat="45.18393" lon="5.86922">
        <ele>641.25</ele>
        <time>2020-06-16T11:36:43.000Z</time>
      </trkpt>
      <trkpt lat="45.18385" lon="5.86941">
        <ele>642.49</ele>
        <time>2020-06-16T11:36:48.000Z</time>
      </trkpt>
      <trkpt lat="45.18379" lon="5.86967">
        <ele>645.25</ele>
        <time>2020-06-16T11:36:53.000Z</time>
      </trkpt>
      <trkpt lat="45.18375" lon="5.86991">
        <ele>648.94</ele>
        <time>2020-06-16T11:36:58.000Z</time>
      </trkpt>
      <trkpt lat="45.18369" lon="5.87014">
        <ele>653.27</ele>
        <time>2020-06-16T11:37:03.000Z</time>
      </trkpt>
      <trkpt lat="45.18373" lon="5.87003">
        <ele>653.4</ele>
        <time>2020-06-16T11:37:22.000Z</time>
      </trkpt>
      <trkpt lat="45.18371" lon="5.87018">
        <ele>656.13</ele>
        <time>2020-06-16T11:37:28.000Z</time>
      </trkpt>
      <trkpt lat="45.18369" lon="5.87041">
        <ele>656.96</ele>
        <time>2020-06-16T11:37:33.000Z</time>
      </trkpt>
      <trkpt lat="45.1837" lon="5.87066">
        <ele>656.66</ele>
        <time>2020-06-16T11:37:38.000Z</time>
      </trkpt>
      <trkpt lat="45.18363" lon="5.8709">
        <ele>656.38</ele>
        <time>2020-06-16T11:37:43.000Z</time>
      </trkpt>
      <trkpt lat="45.18363" lon="5.87112">
        <ele>655.61</ele>
        <time>2020-06-16T11:37:48.000Z</time>
      </trkpt>
      <trkpt lat="45.18364" lon="5.87133">
        <ele>654.18</ele>
        <time>2020-06-16T11:37:53.000Z</time>
      </trkpt>
      <trkpt lat="45.18364" lon="5.87158">
        <ele>653.19</ele>
        <time>2020-06-16T11:37:58.000Z</time>
      </trkpt>
      <trkpt lat="45.18375" lon="5.87178">
        <ele>659.07</ele>
        <time>2020-06-16T11:38:03.000Z</time>
      </trkpt>
      <trkpt lat="45.18392" lon="5.87193">
        <ele>662.6</ele>
        <time>2020-06-16T11:38:08.000Z</time>
      </trkpt>
      <trkpt lat="45.18408" lon="5.8721">
        <ele>665.61</ele>
        <time>2020-06-16T11:38:13.000Z</time>
      </trkpt>
      <trkpt lat="45.18412" lon="5.87228">
        <ele>667.99</ele>
        <time>2020-06-16T11:38:18.000Z</time>
      </trkpt>
      <trkpt lat="45.18403" lon="5.87243">
        <ele>670.36</ele>
        <time>2020-06-16T11:38:23.000Z</time>
      </trkpt>
      <trkpt lat="45.18391" lon="5.87264">
        <ele>671</ele>
        <time>2020-06-16T11:38:28.000Z</time>
      </trkpt>
      <trkpt lat="45.18386" lon="5.87288">
        <ele>673.2</ele>
        <time>2020-06-16T11:38:33.000Z</time>
      </trkpt>
      <trkpt lat="45.1839" lon="5.87314">
        <ele>677.19</ele>
        <time>2020-06-16T11:38:38.000Z</time>
      </trkpt>
      <trkpt lat="45.18395" lon="5.87337">
        <ele>679.46</ele>
        <time>2020-06-16T11:38:43.000Z</time>
      </trkpt>
      <trkpt lat="45.18396" lon="5.87361">
        <ele>683.3</ele>
        <time>2020-06-16T11:38:48.000Z</time>
      </trkpt>
      <trkpt lat="45.1839" lon="5.87383">
        <ele>688.6</ele>
        <time>2020-06-16T11:38:53.000Z</time>
      </trkpt>
      <trkpt lat="45.18379" lon="5.87386">
        <ele>690.31</ele>
        <time>2020-06-16T11:38:58.000Z</time>
      </trkpt>
      <trkpt lat="45.18389" lon="5.87383">
        <ele>691.24</ele>
        <time>2020-06-16T11:45:54.000Z</time>
      </trkpt>
      <trkpt lat="45.18386" lon="5.8737">
        <ele>697.6</ele>
        <time>2020-06-16T11:48:33.000Z</time>
      </trkpt>
      <trkpt lat="45.18377" lon="5.87363">
        <ele>697.32</ele>
        <time>2020-06-16T11:48:43.000Z</time>
      </trkpt>
      <trkpt lat="45.18322" lon="5.87323">
        <ele>696.79</ele>
        <time>2020-06-16T11:48:57.000Z</time>
      </trkpt>
      <trkpt lat="45.18337" lon="5.87345">
        <ele>698.15</ele>
        <time>2020-06-16T11:49:02.000Z</time>
      </trkpt>
      <trkpt lat="45.18345" lon="5.87352">
        <ele>693.01</ele>
        <time>2020-06-16T11:49:10.000Z</time>
      </trkpt>
      <trkpt lat="45.18362" lon="5.87369">
        <ele>694.36</ele>
        <time>2020-06-16T11:49:15.000Z</time>
      </trkpt>
      <trkpt lat="45.18377" lon="5.87384">
        <ele>693.19</ele>
        <time>2020-06-16T11:49:22.000Z</time>
      </trkpt>
      <trkpt lat="45.18369" lon="5.87373">
        <ele>693.84</ele>
        <time>2020-06-16T11:49:30.000Z</time>
      </trkpt>
      <trkpt lat="45.18371" lon="5.8736">
        <ele>687.65</ele>
        <time>2020-06-16T11:50:08.000Z</time>
      </trkpt>
      <trkpt lat="45.18372" lon="5.87376">
        <ele>684.93</ele>
        <time>2020-06-16T11:50:15.000Z</time>
      </trkpt>
      <trkpt lat="45.18363" lon="5.87372">
        <ele>691.55</ele>
        <time>2020-06-16T11:53:11.000Z</time>
      </trkpt>
    </trkseg>
  </trk>
</gpx>